[[{"header":{"parameterUnit":"m.s-1","parameterCategory":1,"la1":30.6,"la2":29.2853,"lo1":-89.7004,"lo2":-87.6739,"dy":0.0162,"dx":0.0183,"nx":112,"ny":82,"refTime":"2024-09-19T12:00:00:Z","depth":0,"parameterNumber":2,"parameterNumberName":"U-component_of_WINDS"},"data":[0.0,0.0,0.0,0.0,0.0,0.0,0.0,0.0,0.0,0.0,0.0,0.0,0.0,0.0,0.0,0.0,0.0,0.0,0.0,0.0,0.0,0.0,0.0,0.0,0.0,0.0,0.0,0.0,0.0,0.0,0.0,0.0,0.0,0.0,0.0,0.0,0.0,0.0,0.0,0.0,0.0,0.0,0.0,0.0,0.0,0.0,0.0,0.0,0.0,0.0,0.0,0.0,0.0,0.0,0.0,0.0,0.0,0.0,0.0,0.0,0.0,0.0,0.0,0.0,0.0,0.0,0.0,0.0,0.0,0.0,0.0,0.0,0.0,0.0,0.0,0.0,0.0,0.0,0.0,0.0,0.0,0.0,0.0,0.0,0.0,0.0,0.0,0.0,0.0,0.0,1.1015,1.2109,1.3353,1.4001,1.376,1.3613,1.2833,1.1169,0.0,0.0,0.0,0.0,0.0,0.0,0.0,0.0,0.0,0.0,0.0,0.0,0.0,0.0,0.0,0.0,0.0,0.0,0.0,0.0,0.0,0.0,0.0,0.0,0.0,0.0,0.0,0.0,0.0,0.0,0.0,0.0,0.0,0.0,0.0,0.0,0.0,0.0,0.0,0.0,0.0,0.0,0.0,0.0,0.0,0.0,0.0,0.0,0.0,0.0,0.0,0.0,0.0,0.0,0.0,0.0,0.0,0.0,0.0,0.0,0.0,0.0,0.0,0.0,0.0,0.0,0.0,0.0,0.0,0.0,0.0,0.0,0.0,0.0,0.0,0.0,0.0,0.0,0.0,0.0,0.0,0.0,0.0,0.0,0.0,0.0,0.0,0.0,0.0,0.0,0.0,0.0,0.0,0.0,0.0,0.0,0.0,0.0,0.0,0.0,0.0,0.0,0.0,0.0,1.1417,1.3541,1.3969,1.4175,1.4354,1.3687,1.2713,1.1419,0.0,0.0,0.0,0.0,0.0,0.0,0.0,0.0,0.0,0.0,0.0,0.0,0.0,0.0,0.0,0.0,0.0,0.0,0.0,0.0,0.0,0.0,0.0,0.0,0.0,0.0,0.0,0.0,0.0,0.0,0.0,0.0,0.0,0.0,0.0,0.0,0.0,0.0,0.0,0.0,0.0,0.0,0.0,0.0,0.0,0.0,0.0,0.0,0.0,0.0,0.0,0.0,0.0,0.0,0.0,0.0,0.0,0.0,0.0,0.0,0.0,0.0,0.0,0.0,0.0,0.0,0.0,0.0,0.0,0.0,0.0,0.0,0.0,0.0,0.0,0.0,0.0,0.0,0.0,0.0,0.0,0.0,0.0,0.0,0.0,0.0,0.0,0.0,0.0,0.0,0.0,0.0,0.0,0.0,0.0,0.0,0.0,0.0,0.0,0.0,0.0,0.0,0.0,1.1052,1.2033,1.3902,1.4103,1.4135,1.4269,1.3627,1.2686,1.1486,1.0461,0.0,0.0,0.0,0.0,0.0,0.0,0.0,0.0,0.0,0.0,0.0,0.0,0.0,0.0,0.0,0.0,0.0,0.0,0.0,0.0,0.0,0.0,0.0,0.0,0.0,0.0,0.0,0.0,0.0,0.0,0.0,0.0,0.0,0.0,0.0,0.0,0.0,0.0,0.0,0.0,0.0,0.0,0.0,0.0,0.0,0.0,0.0,0.0,0.0,0.0,0.0,0.0,0.0,0.0,0.0,0.0,0.0,0.0,0.0,0.0,0.0,0.0,0.0,0.0,0.0,0.0,0.0,0.0,0.0,0.0,0.0,0.0,0.0,0.0,0.0,0.0,0.0,0.0,0.0,0.0,0.0,0.0,0.0,0.0,0.0,0.0,0.0,0.0,0.0,0.0,0.0,0.0,0.0,0.0,0.0,0.0,0.0,0.0,0.0,0.0,0.0,0.0,1.2163,1.2725,1.4041,1.4143,1.4143,1.4188,1.3454,1.2526,1.1472,1.0194,0.0,0.0,0.0,0.0,0.0,0.0,0.0,0.0,0.0,0.0,0.0,0.0,0.0,0.0,0.0,0.0,0.0,0.0,0.0,0.0,0.0,0.0,0.0,0.0,0.0,0.0,0.0,0.0,0.0,0.0,0.0,0.0,0.0,0.0,0.0,0.0,0.0,0.0,0.0,0.0,0.0,0.0,0.0,0.0,0.0,0.0,0.0,0.0,0.0,0.0,0.0,0.0,0.0,0.0,0.0,0.0,0.0,0.0,0.0,0.0,0.0,0.0,0.0,0.0,0.0,0.0,0.0,0.0,0.0,0.0,0.0,0.0,0.0,0.0,0.0,0.0,0.0,0.0,0.0,0.0,0.0,0.0,0.0,0.0,0.0,0.0,0.0,0.0,0.0,0.0,0.0,0.0,0.0,0.0,0.0,0.0,0.0,0.0,0.0,0.0,0.0,0.0,1.242,1.3467,1.4367,1.4255,1.4202,1.4447,1.3186,1.2091,1.1446,0.9805,0.0,0.0,0.0,0.0,0.0,0.0,0.0,0.0,0.0,0.0,0.0,0.0,0.0,0.0,0.0,0.0,0.0,0.0,0.0,0.0,0.0,0.0,0.0,0.0,0.0,0.0,0.0,0.0,0.0,0.0,0.0,0.0,0.0,0.0,0.0,0.0,0.0,0.0,0.0,0.0,0.0,0.0,0.0,0.0,0.0,0.0,0.0,0.0,0.0,0.0,0.0,0.0,0.0,0.0,0.0,0.0,0.0,0.0,0.0,0.0,0.0,0.0,0.0,0.0,0.0,0.0,0.0,0.0,0.0,0.0,0.0,0.0,0.0,0.0,0.0,0.0,0.0,0.0,0.0,0.0,0.0,0.0,0.0,0.0,0.0,0.0,0.0,0.0,0.0,0.0,0.0,0.0,0.0,0.0,0.0,0.0,0.0,0.0,0.0,0.0,0.0,0.0,1.2126,1.3053,1.4135,1.4148,1.4135,1.4242,1.34,1.2433,1.1455,0.0,0.0,0.0,0.0,0.0,0.0,0.0,0.0,0.0,0.0,0.0,0.0,0.0,0.0,0.0,0.0,0.0,0.0,0.0,0.0,0.0,0.0,0.0,0.0,0.0,0.0,0.0,0.0,0.0,0.0,0.0,0.0,0.0,0.0,0.0,0.0,0.0,0.0,0.0,0.0,0.0,0.0,0.0,0.0,0.0,0.0,0.0,0.0,0.0,0.0,0.0,0.0,0.0,0.0,0.0,0.0,0.0,0.0,0.0,0.0,0.0,0.0,0.0,0.0,0.0,0.0,0.0,0.0,0.0,0.0,0.0,0.0,0.0,0.0,0.0,0.0,0.0,0.0,0.0,0.0,0.0,0.0,0.0,0.0,0.0,0.0,0.0,0.0,0.0,0.0,0.0,0.0,0.0,0.0,0.0,0.0,0.0,0.0,0.0,0.0,0.0,0.0,1.1206,1.2086,1.2973,1.3975,1.4103,1.4103,1.4103,1.328,1.2398,1.1472,0.0,0.0,0.0,0.0,0.0,0.0,0.0,0.0,0.0,0.0,0.0,0.0,0.0,0.0,0.0,0.0,0.0,0.0,0.0,0.0,0.0,0.0,0.0,0.0,0.0,0.0,0.0,0.0,0.0,0.0,0.0,0.0,0.0,0.0,0.0,0.0,0.0,0.0,0.0,0.0,0.0,0.0,0.0,0.0,0.0,0.0,0.0,0.0,0.0,0.0,0.0,0.0,0.0,0.0,0.0,0.0,0.0,0.0,0.0,0.0,0.0,0.0,0.0,0.0,0.0,0.0,0.0,0.0,0.0,0.0,0.0,0.0,0.0,0.0,0.0,0.0,0.0,0.0,0.0,0.0,0.0,0.0,0.0,0.0,0.0,0.0,0.0,0.0,0.0,0.0,0.0,0.0,0.0,0.0,0.0,0.0,0.0,0.0,0.0,0.0,0.0,0.0,1.1242,1.2441,1.342,1.4007,1.406,1.406,1.4082,1.2732,1.1744,0.0,0.0,0.0,0.0,0.0,0.0,0.0,0.0,0.0,0.0,0.0,0.0,0.0,0.0,0.0,0.0,0.0,0.0,0.0,0.0,0.0,0.0,0.0,0.0,0.0,0.0,0.0,0.0,0.0,0.0,0.0,0.0,0.0,0.0,0.0,0.0,0.0,0.0,0.0,0.0,0.0,0.0,0.0,0.0,0.0,0.0,0.0,0.0,0.0,0.0,0.0,0.0,0.0,0.0,0.0,0.0,0.0,0.0,0.0,0.0,0.0,0.0,0.0,0.0,0.0,0.0,0.0,0.0,0.0,0.0,0.0,0.0,0.0,0.0,0.0,0.0,0.0,0.0,0.0,0.0,0.0,0.0,0.0,0.0,0.0,0.0,0.0,0.0,0.0,0.0,0.0,0.0,0.0,0.0,0.0,0.0,0.0,0.0,0.0,0.0,0.0,0.0,0.0,1.0183,1.1414,1.2114,1.168,1.1628,1.1949,1.276,1.1865,1.1298,1.1377,0.0,0.0,0.0,0.0,0.0,0.0,0.0,0.0,0.0,0.0,0.0,0.0,0.0,0.0,0.0,0.0,0.0,0.0,0.0,0.0,0.0,0.0,0.0,0.0,0.0,0.0,0.0,0.0,0.0,0.0,0.0,0.0,0.0,0.0,0.0,0.0,0.0,0.0,0.0,0.0,0.0,0.0,0.0,0.0,0.0,0.0,0.0,0.0,0.0,0.0,0.0,0.0,0.0,0.0,0.0,0.0,0.0,0.0,0.0,0.0,0.0,0.0,0.0,0.0,0.0,0.0,0.0,0.0,0.0,0.0,0.0,0.0,0.0,0.0,0.0,0.0,0.0,0.0,0.0,0.0,0.0,0.0,0.0,0.0,0.0,0.0,0.0,0.0,0.0,0.0,0.0,0.0,0.0,0.0,0.0,0.0,0.0,0.0,0.0,0.0,0.0,0.0,0.9668,1.0587,1.1057,1.065,1.0605,1.0886,1.1552,1.0871,1.0372,1.0287,0.0,0.0,0.0,0.0,0.0,0.0,0.0,0.0,0.0,0.0,0.0,0.0,0.0,0.0,0.0,0.0,0.0,0.0,0.0,0.0,0.0,0.0,0.0,0.0,0.0,0.0,0.0,0.0,0.0,0.0,0.0,0.0,0.0,0.0,0.0,0.0,0.0,0.0,0.0,0.0,0.0,0.0,0.0,0.0,0.0,0.0,0.0,0.0,0.0,0.0,0.0,0.0,0.0,0.0,0.0,0.0,0.0,0.0,0.0,0.0,0.0,0.0,0.0,0.0,0.0,0.0,0.0,0.0,0.0,0.0,0.0,0.0,0.0,0.0,0.0,0.0,0.0,0.0,0.0,0.0,0.0,0.0,0.0,0.0,0.0,0.0,0.0,0.0,0.0,0.0,0.0,0.0,0.0,0.0,0.0,0.0,0.0,0.0,0.0,0.0,0.0,0.0,0.946,0.986,1.0149,1.0291,1.0301,1.0325,1.0443,0.9775,0.9132,0.8642,0.0,0.0,0.0,0.0,0.0,0.0,0.0,0.0,0.0,0.0,0.0,0.0,0.0,0.0,0.0,0.0,0.0,0.0,0.0,0.0,0.0,0.0,0.0,0.0,0.0,0.0,0.0,0.0,0.0,0.0,0.0,0.0,0.0,0.0,0.0,0.0,0.0,0.0,0.0,0.0,0.0,0.0,0.0,0.0,0.0,0.0,0.0,0.0,0.0,0.0,0.0,0.0,0.0,0.0,0.0,0.0,0.0,0.0,0.0,0.0,1.3226,1.2461,0.0,0.0,0.0,0.0,0.0,0.0,0.0,0.0,0.0,0.0,0.0,0.0,0.0,0.0,0.0,0.0,0.0,0.0,0.0,0.0,0.0,0.0,0.0,0.0,0.0,0.0,0.0,0.0,0.0,0.0,0.0,0.0,0.0,0.0,0.0,0.0,0.0,0.0,0.0,0.0,0.8565,0.8911,0.8903,0.8155,0.7938,0.8229,0.9192,0.8576,0.8335,0.8726,0.7787,0.0,0.0,0.0,0.0,0.0,0.0,0.0,0.0,0.0,0.0,0.0,0.0,0.0,0.0,0.0,0.0,0.0,0.0,0.0,0.0,0.0,0.0,0.0,0.0,0.0,0.0,0.0,0.0,0.0,0.0,0.0,0.0,0.0,0.0,0.0,0.0,0.0,0.0,0.0,0.0,0.0,0.0,0.0,0.0,0.0,0.0,0.0,0.0,0.0,0.0,0.0,0.0,0.0,0.0,0.0,0.0,0.0,0.0,0.0,1.472,1.3769,0.0,0.0,0.0,0.0,0.0,0.0,0.0,0.0,0.0,0.0,0.0,0.0,0.0,0.0,0.0,0.0,0.0,0.0,0.0,0.0,0.0,0.0,0.0,0.0,0.0,0.0,0.0,0.0,0.0,0.0,0.0,0.0,0.0,0.0,0.0,0.0,0.0,0.0,0.0,0.0,0.7827,0.8009,0.7975,0.7451,0.7299,0.7463,0.8003,0.762,0.7432,0.7585,0.7164,0.0,0.0,0.0,0.0,0.0,0.0,0.0,0.0,0.0,0.0,0.0,0.0,0.0,0.0,0.0,0.0,0.0,0.0,0.0,0.0,0.0,0.0,0.0,0.0,0.0,0.0,0.0,0.0,0.0,0.0,0.0,0.0,0.0,0.0,0.0,0.0,0.0,0.0,0.0,0.0,0.0,0.0,0.0,0.0,0.0,0.0,0.0,0.0,0.0,0.0,0.0,0.0,0.0,1.4974,1.5597,1.6502,1.5458,1.5669,1.6793,1.6071,1.519,1.424,1.398,0.0,0.0,0.0,0.0,0.0,0.0,0.0,0.0,0.0,0.0,0.0,0.0,0.0,0.0,0.0,0.0,0.0,0.0,0.0,0.0,0.0,0.0,0.9346,0.9756,0.9484,0.9153,0.9261,0.0,0.0,0.0,0.0,0.0,0.0,0.0,0.0,0.0,0.0,0.0,0.74,0.7411,0.7444,0.7471,0.7423,0.7342,0.7168,0.7006,0.6742,0.6382,0.6537,0.6316,0.0,0.0,0.0,0.0,0.0,0.0,0.0,0.0,0.0,0.0,0.0,0.0,0.0,0.0,0.0,0.0,0.0,0.0,0.0,0.0,0.0,0.0,0.0,0.0,0.0,0.0,0.0,0.0,0.0,0.0,0.0,0.0,1.2815,1.2463,0.0,0.0,0.0,0.0,0.0,0.0,0.0,0.0,0.0,0.0,0.0,0.0,0.0,1.4399,1.4775,1.5918,1.6513,1.6577,1.7678,1.812,1.7931,1.7762,1.7429,1.6971,1.6858,0.0,1.4893,1.4951,0.0,0.0,0.0,0.0,0.0,0.0,0.0,0.0,0.0,0.0,0.0,0.0,0.0,0.0,0.0,0.0,0.0,0.0,0.0,0.0,0.0,0.0,1.0125,0.98,0.9872,0.9962,0.9685,0.8565,0.7579,0.7471,0.6962,0.6558,0.0,0.0,0.0,0.0,0.0,0.0,0.768,0.7642,0.7617,0.774,0.7546,0.7382,0.7369,0.7066,0.6823,0.6654,0.6461,0.6459,0.6686,0.6213,0.0,0.0,0.0,0.0,0.0,0.0,0.0,0.0,0.0,0.0,0.0,0.0,0.0,0.0,0.0,0.0,0.0,0.0,0.0,0.0,0.0,0.0,0.0,0.0,0.0,0.0,0.0,0.0,0.0,1.2282,1.3337,1.3319,1.3677,1.3751,0.0,0.0,0.0,0.0,0.0,0.0,0.0,0.0,0.0,1.4585,1.4909,1.53,1.5726,1.6275,1.6632,1.6782,1.7357,1.7876,1.8349,1.7672,1.7534,1.7793,1.6971,1.6269,1.5713,1.5299,1.4881,1.4449,0.0,0.0,0.0,0.0,1.3579,1.3478,1.3576,1.3424,1.3096,1.2585,0.0,0.0,0.0,0.0,0.0,0.0,0.0,0.9478,0.9733,0.9624,0.9464,0.956,0.9276,0.8901,0.8673,0.8054,0.7684,0.8115,0.7646,0.7164,0.7129,0.7229,0.0,0.0,0.0,0.7511,0.7577,0.7655,0.774,0.7801,0.7692,0.7584,0.7532,0.7299,0.7109,0.6938,0.6749,0.6659,0.6683,0.6241,0.5922,0.0,0.0,0.0,0.0,0.0,0.0,0.0,0.0,0.0,0.0,0.0,0.0,0.0,0.0,0.0,0.0,0.0,0.0,0.0,0.0,0.0,0.0,0.0,0.0,0.0,0.0,0.0,0.0,1.3118,1.3758,1.4146,1.4234,1.4211,0.0,0.0,0.0,0.0,0.0,0.0,1.4362,1.5061,1.5438,1.5417,1.5764,1.6095,1.6404,1.6404,1.6486,1.67,1.67,1.7175,1.8015,1.7125,1.7186,1.7976,1.6892,1.6404,1.6335,1.5517,1.5006,1.4732,1.4455,1.4456,1.4588,1.4352,1.4152,1.405,1.4467,1.4442,1.4148,1.3868,1.3232,1.2447,1.1477,0.0,0.0,0.0,0.0,0.9021,0.9518,0.9066,0.8575,0.9028,0.8539,0.7986,0.7871,0.7763,0.7857,0.8413,0.8007,0.7559,0.7509,0.757,0.0,0.6962,0.7313,0.7575,0.7464,0.7685,0.7844,0.7844,0.781,0.7767,0.7665,0.7539,0.7366,0.7188,0.708,0.6905,0.662,0.6335,0.5989,0.5559,0.0,0.0,0.0,0.0,0.0,0.0,0.0,0.0,0.0,0.0,0.0,0.0,0.0,0.0,0.0,0.0,0.0,0.0,0.0,0.0,0.0,0.0,0.0,0.0,0.0,0.0,0.0,0.0,0.0,1.5183,1.5399,0.0,0.0,0.0,0.0,1.4912,1.5279,1.5536,1.5615,1.6316,1.6561,1.6236,1.652,1.6645,1.6687,1.6687,1.6687,1.67,1.67,1.6725,1.6775,1.6725,1.6725,1.6775,1.6712,1.6687,1.6607,1.5745,1.5734,1.617,1.4965,1.4873,1.5362,1.4708,1.4486,1.4504,1.4861,1.4772,1.4567,1.511,1.3866,1.208,1.1769,1.0549,0.0,0.0,0.9264,0.8995,0.9406,0.8678,0.7876,0.804,0.8031,0.7988,0.7982,0.8,0.7882,0.7529,0.719,0.6948,0.6928,0.0,0.666,0.6866,0.7035,0.7253,0.755,0.7824,0.8,0.8,0.7871,0.7807,0.7801,0.7672,0.7522,0.7389,0.7376,0.7217,0.6897,0.6749,0.6458,0.5984,0.5566,0.0,0.0,0.0,0.0,0.0,0.0,0.0,0.0,0.0,0.0,0.0,0.0,0.0,0.0,0.0,0.0,0.0,0.0,0.0,0.0,0.0,0.0,0.0,0.0,0.0,0.0,0.0,0.0,1.5786,1.5623,0.0,1.5102,1.4988,1.5083,1.5416,1.5612,1.5827,1.6071,1.6508,1.6774,1.6871,1.6966,1.71,1.7275,1.7275,1.7275,1.7275,1.7275,1.7275,1.7275,1.7275,1.7275,1.7261,1.71,1.702,1.6979,1.6446,1.6384,1.6563,1.6085,1.6072,1.6209,1.5812,1.5645,1.5631,1.5551,1.4898,1.3985,1.3158,1.2241,1.1289,1.0426,0.9804,0.9301,0.8658,0.8409,0.8353,0.8486,0.8227,0.7946,0.7975,0.7988,0.7988,0.7988,0.7988,0.7966,0.781,0.7614,0.7411,0.7244,0.7204,0.7204,0.721,0.7421,0.7621,0.7831,0.7952,0.7988,0.7988,0.7966,0.7932,0.7932,0.774,0.7577,0.7522,0.7333,0.7154,0.7024,0.6904,0.6681,0.6322,0.5969,0.5447,0.0,0.0,0.0,0.0,0.0,0.0,0.0,0.0,0.0,0.0,0.0,0.0,0.0,0.0,0.0,0.0,0.0,0.0,0.0,0.0,0.0,0.0,0.0,0.0,0.0,1.4159,1.4885,1.6265,1.6053,1.5814,1.5934,1.5842,1.5846,1.6035,1.6062,1.6259,1.6578,1.6872,1.7141,1.7474,1.7582,1.7715,1.7889,1.7889,1.7889,1.7889,1.7889,1.7836,1.7742,1.7742,1.7689,1.7595,1.7408,1.7314,1.7275,1.6562,1.6266,1.6253,1.6036,1.596,1.5909,1.522,1.4985,1.4936,1.4667,1.4038,1.3132,1.2004,1.1214,1.058,0.9787,0.9284,0.8831,0.8084,0.7939,0.7988,0.7988,0.7988,0.7988,0.7988,0.7988,0.7988,0.7988,0.7988,0.7988,0.7988,0.7932,0.7804,0.7631,0.7678,0.7712,0.7611,0.7767,0.7898,0.7975,0.7988,0.7988,0.7988,0.7988,0.7988,0.7988,0.779,0.7651,0.7604,0.729,0.7071,0.7024,0.6857,0.6654,0.6443,0.6057,0.5592,0.5067,0.0,0.0,0.0,0.0,0.0,0.0,0.0,0.0,0.0,0.0,0.0,0.0,0.0,0.0,0.0,0.0,0.0,0.0,0.0,0.0,0.0,0.0,0.0,1.5043,1.5371,1.5796,1.6608,1.6704,1.6671,1.6616,1.6691,1.6727,1.6727,1.6754,1.6913,1.7233,1.7488,1.7756,1.7995,1.8343,1.849,1.849,1.849,1.849,1.849,1.849,1.8343,1.8009,1.8009,1.7836,1.7556,1.7543,1.7516,1.7358,1.5929,1.5331,1.5284,1.4679,1.4493,1.4403,1.2951,1.2402,1.2372,1.2204,1.2124,1.2119,1.186,1.0968,0.9945,0.9961,0.9031,0.8027,0.802,0.8002,0.8027,0.7995,0.7995,0.802,0.7988,0.7988,0.7988,0.7988,0.7988,0.7988,0.7988,0.7988,0.7988,0.7988,0.7988,0.7988,0.7988,0.7988,0.0,0.7988,0.7988,0.7988,0.7988,0.7988,0.7988,0.7939,0.7822,0.7668,0.7533,0.7186,0.6937,0.6847,0.6558,0.6337,0.6216,0.5743,0.5449,0.5306,0.0,0.0,0.0,0.0,0.0,0.0,0.0,0.0,0.0,0.0,0.0,0.0,0.0,0.0,0.0,0.0,0.0,0.0,0.0,0.0,0.0,1.3552,1.4406,1.4664,1.513,1.5741,1.6611,1.6701,1.6681,1.6671,1.7068,1.7341,1.7341,1.7756,1.8036,1.8143,1.8196,1.8277,1.837,1.845,1.849,1.849,1.849,1.849,1.849,1.849,1.845,1.837,1.837,1.7699,1.6499,1.6414,1.5705,1.4593,1.4094,1.3884,1.3874,1.3694,1.3641,1.3567,1.2927,1.2557,1.2264,1.1256,1.0904,1.0741,0.9749,0.9201,0.8903,0.8794,0.8582,0.8336,0.8235,0.8282,0.8336,0.8235,0.8208,0.818,0.804,0.7988,0.7988,0.7988,0.7988,0.7988,0.7988,0.7988,0.7988,0.7988,0.7988,0.7988,0.7988,0.7988,0.7988,0.7988,0.7988,0.7988,0.7988,0.7988,0.7609,0.6631,0.6435,0.6255,0.6022,0.5097,0.4875,0.5556,0.4832,0.4311,0.4133,0.3709,0.3435,0.0,0.0,0.0,0.0,0.0,0.0,0.0,0.0,0.0,0.0,0.0,0.0,0.0,0.0,0.0,0.0,0.0,0.0,0.0,0.0,0.0,0.0,1.4581,1.5337,1.5615,1.5936,1.6351,1.6859,1.7114,1.7235,1.7235,1.7689,1.7996,1.7996,1.829,1.849,1.849,1.8611,1.8677,1.8677,1.8798,1.8893,1.8893,1.8893,1.8893,1.8865,1.8187,1.7799,1.7628,1.6996,1.6106,1.508,1.5021,1.4455,1.3524,1.2772,1.2467,1.2467,0.0,0.0,0.0,0.0,1.106,1.0798,0.9984,0.9696,0.9557,0.8762,0.8505,0.8492,0.841,0.8444,0.8492,0.841,0.8444,0.8492,0.8403,0.8383,0.8362,0.8248,0.8202,0.8182,0.8147,0.8133,0.8094,0.8027,0.7988,0.0,0.726,0.764,0.7988,0.7988,0.7509,0.716,0.716,0.6681,0.6326,0.6326,0.6326,0.6002,0.5222,0.5032,0.0,0.0,0.0,0.3707,0.4168,0.3619,0.0,0.0,0.0,0.0,0.0,0.2741,0.0,0.0,0.3591,0.3265,0.0,0.0,0.0,0.0,0.0,0.0,0.0,0.0,0.0,0.0,0.0,0.0,0.0,0.0,0.0,0.0,1.5671,1.6645,1.7193,1.7326,1.734,1.7274,1.7756,1.8076,1.8076,1.8343,1.8544,1.8544,1.8571,1.8584,1.8584,1.8838,0.0,0.0,0.0,1.9301,1.9127,1.9127,1.9039,1.8823,1.7413,1.6582,1.6247,1.4877,1.3982,1.3536,1.3517,1.3412,1.3117,1.1679,1.1096,1.108,1.091,1.0836,1.0699,0.9375,0.8912,0.8892,0.8757,0.0,0.0,0.8574,0.8533,0.8526,0.8539,0.852,0.8526,0.8539,0.852,0.8526,0.8539,0.8532,0.8532,0.8512,0.8505,0.8471,0.8349,0.8321,0.8281,0.8088,0.791,0.7428,0.6253,0.6992,0.7715,0.7584,0.6531,0.5777,0.5777,0.4743,0.3989,0.3989,0.3989,0.0,0.3792,0.3654,0.3588,0.3566,0.3324,0.3017,0.2594,0.2573,0.2579,0.2582,0.2568,0.2687,0.2923,0.2982,0.2991,0.2913,0.2396,0.2377,0.0,0.0,0.0,0.0,0.0,0.0,0.0,0.0,0.0,0.0,0.0,0.0,0.0,0.0,0.0,1.5775,1.6739,1.7462,1.7796,1.8076,1.8143,1.7876,1.8196,1.841,1.841,1.8664,1.881,1.881,1.9065,1.9227,1.9227,1.9281,1.9308,1.9308,1.9361,1.8765,1.7472,1.7472,1.6827,1.5529,1.5192,0.0,1.4952,1.4657,1.3768,1.2477,1.2378,1.1595,1.0362,0.9939,0.9759,0.9731,0.9454,0.932,0.9292,0.8989,0.8912,0.8906,0.8879,0.8865,0.8865,0.8831,0.8825,0.8798,0.8703,0.8723,0.0,0.8703,0.873,0.8798,0.8696,0.8669,0.8635,0.8539,0.8505,0.8498,0.8471,0.8464,0.8457,0.8404,0.7449,0.6552,0.6277,0.6315,0.6027,0.4943,0.4543,0.4393,0.4393,0.4168,0.3989,0.3989,0.3989,0.3566,0.249,0.2371,0.2256,0.2048,0.1977,0.153,0.0609,0.055,0.0552,0.0568,0.0554,0.058,0.0647,0.0644,0.0655,0.0654,0.1495,0.1879,0.0,0.0,0.0,0.0,0.0,0.0,0.0,0.0,0.0,0.0,0.0,1.3313,1.4479,0.0,1.5928,1.6994,1.7649,1.809,1.8223,1.8517,1.8597,1.8276,1.8531,1.8704,1.8704,1.8971,1.9145,1.9145,1.9308,1.9401,1.9401,1.8648,1.8198,1.8198,1.7425,1.6621,1.5814,1.5814,1.54,1.4599,1.3765,1.3407,1.3377,1.2577,1.1766,1.0982,1.0928,1.0449,0.9707,0.9557,0.9449,0.9396,0.9218,0.911,0.9035,0.894,0.8912,0.8912,0.8912,0.8912,0.8912,0.8912,0.8912,0.8899,0.8818,0.8852,0.8892,0.8818,0.8852,0.8892,0.8818,0.8798,0.8777,0.873,0.871,0.8474,0.7668,0.749,0.7254,0.6421,0.5642,0.494,0.4269,0.4053,0.4003,0.4002,0.3441,0.299,0.299,0.2414,0.1987,0.1987,0.1987,0.1737,0.1058,0.0991,0.0951,0.0798,0.0806,0.0563,0.0023,0.0,0.0,0.0,0.0,0.0,0.0,0.0,0.0,0.0025,0.0622,0.0862,0.0,0.0,0.0,0.0,0.0,0.0,0.0,1.2371,1.2711,1.3761,1.4141,1.4701,1.5995,1.6622,1.7195,1.7982,1.8384,1.8459,1.8167,1.8359,1.8451,1.8229,1.8695,1.9011,1.9011,1.9225,1.9401,1.9401,1.9127,1.891,1.891,1.7413,1.6521,1.6521,1.5281,1.445,1.4123,1.4123,1.3974,1.3646,1.2367,1.1736,1.1675,1.0391,0.9792,0.9792,0.9792,0.9792,0.9785,0.97,0.9578,0.9462,0.9435,0.9376,0.9254,0.9076,0.898,0.8953,0.8953,0.8933,0.8912,0.8912,0.8912,0.8912,0.8912,0.8912,0.8912,0.8912,0.8912,0.8912,0.8912,0.8912,0.8912,0.8912,0.8685,0.8121,0.6828,0.6317,0.5719,0.435,0.3859,0.3321,0.2219,0.179,0.1979,0.3048,0.23,0.1618,0.1611,0.0681,0.0,0.0,0.0,0.0,0.0,0.0,0.0,0.0,0.0,0.0,0.0,0.0,0.0,0.0,0.0,0.0,0.0,0.0,0.0,0.0,0.0,0.0,1.1141,1.1102,1.1619,1.2692,1.2412,1.2583,0.0,1.495,1.4696,1.6391,1.679,1.6993,1.7649,1.7809,1.7996,1.8384,1.8691,1.8342,1.691,1.6994,1.7207,1.7183,1.8455,1.9348,1.9348,1.9374,1.9401,1.9401,1.8069,1.7267,1.7267,1.5725,1.4866,1.4866,1.4688,1.3914,1.2487,1.2479,1.1736,1.0331,1.0149,1.0058,1.0058,0.9883,0.9792,0.9792,0.9792,0.9792,0.9792,0.9771,0.9758,0.9731,0.9632,0.9571,0.9537,0.9388,0.9274,0.9158,0.9158,0.9049,0.8912,0.8912,0.8912,0.8912,0.8912,0.8912,0.8912,0.8912,0.8912,0.8912,0.8912,0.8912,0.8912,0.8912,0.7903,0.6894,0.6712,0.5654,0.4679,0.4474,0.3334,0.2352,0.221,0.109,0.027,0.0416,0.031,0.0231,0.0228,0.0101,0.0,0.0,0.0,0.0,0.0,0.0,0.0,0.0,0.0,0.0,0.0,0.0,0.0,0.0,0.0,0.0,0.0,0.0,0.0,0.0,0.0,0.0,1.2989,1.286,1.292,1.3996,1.4202,1.4496,1.5738,1.5899,1.6099,1.7207,1.7568,1.7836,1.8423,1.8516,1.8623,1.8973,1.8333,1.7547,1.6896,1.6036,1.5489,1.5489,1.5965,1.6748,1.7898,1.7161,1.6621,1.6621,1.5991,1.5607,1.5607,1.4093,1.3198,1.3198,1.2307,1.1464,1.0808,1.0875,1.0546,0.9792,0.9879,0.9879,0.9792,0.9792,0.9792,0.9792,0.9792,0.9792,0.9792,0.9792,0.9792,0.9785,0.9724,0.9704,0.9707,0.9469,0.9369,0.9315,0.9315,0.9213,0.9062,0.9062,0.9008,0.8912,0.8912,0.8912,0.8912,0.8912,0.8912,0.8912,0.8912,0.8269,0.7626,0.7626,0.6505,0.5166,0.4272,0.3603,0.2905,0.2042,0.1372,0.0922,0.0915,0.0416,0.0,0.0,0.0,0.0,0.0,0.0,0.0,0.0,0.0,0.0,0.0,0.0,0.0,0.0,0.0,0.0,0.0,0.0,0.0,0.0,0.0,0.0,0.0,0.0,0.0,0.0,0.0,0.0,1.3948,1.4007,1.406,1.4905,1.5578,1.6088,1.6248,1.6675,1.7235,1.7822,1.7739,1.7823,1.874,1.8564,1.8373,1.858,1.7698,1.6697,1.5803,1.4543,1.3742,1.3742,1.3203,1.3557,1.5426,1.498,1.4568,1.4599,1.4183,1.3943,1.4001,1.2474,1.162,1.1676,1.0559,0.9951,0.9951,1.0028,1.0028,0.9951,0.9988,0.9961,0.9852,0.9812,0.9792,0.9792,0.9792,0.9792,0.9792,0.9792,0.9792,0.9792,0.9792,0.9792,0.9765,0.9585,0.9476,0.9442,0.9442,0.9376,0.924,0.9221,0.9111,0.896,0.8926,0.8912,0.883,0.8408,0.8297,0.8208,0.7792,0.6894,0.6089,0.6089,0.4944,0.3547,0.2431,0.1872,0.1287,0.0196,0.0,0.0,0.0,0.0,0.0,0.0,0.0,0.0,0.0,0.0,0.0,0.0,0.0,0.0,0.0,0.0,0.0,0.0,0.0,0.0,0.0,0.0,0.0,0.0,0.0,0.0,0.0,0.0,0.0,0.0,0.0,0.0,1.33,1.3834,1.4621,1.5231,1.6032,1.6834,1.7395,1.7756,1.8116,1.873,1.7531,1.6859,1.861,1.7742,1.6746,1.6614,1.6826,1.5902,1.2779,1.2196,1.2076,1.2076,1.0594,1.0215,1.198,1.3519,1.4454,1.4589,1.3138,1.2323,1.2448,1.0931,1.0176,1.0358,1.0295,1.0263,1.0263,1.0301,1.0301,1.0263,1.0089,0.9984,0.9977,0.9859,0.9792,0.9792,0.9792,0.9792,0.9792,0.9792,0.9792,0.9792,0.9792,0.9792,0.9792,0.9778,0.972,0.9605,0.9605,0.9503,0.9376,0.9226,0.9207,0.9152,0.8953,0.8912,0.8602,0.7177,0.6755,0.645,0.4999,0.4609,0.4554,0.4554,0.338,0.2263,0.2208,0.1064,0.0056,0.0,0.0,0.0,0.0,0.0,0.0,0.0,0.0,0.0,0.0,0.0,0.0,0.0,0.0,0.0,0.0,0.0,0.0,0.0,0.0,0.0,0.0,0.0,0.0,0.0,0.0,0.0,0.0,0.0,0.0,0.0,0.0,0.0,1.4687,1.5141,1.5595,1.6607,1.7074,1.7474,1.805,1.841,1.8332,1.7381,1.7487,1.7593,1.7021,1.6485,1.6172,1.6236,1.4803,1.3328,1.235,1.1173,1.0384,1.0303,0.9687,0.9544,1.0215,1.0854,1.1252,1.1426,1.1004,1.0756,1.0814,1.0423,1.0229,1.0308,1.0315,1.0315,1.0315,1.0403,1.0403,1.0315,1.0229,1.0116,0.9984,0.9967,0.9886,0.9792,0.9792,0.9792,0.9792,0.9792,0.9792,0.9792,0.9792,0.9792,0.9792,0.9792,0.9758,0.9717,0.9717,0.9652,0.9523,0.9469,0.9349,0.9002,0.7894,0.7516,0.7121,0.5667,0.525,0.5139,0.4637,0.3742,0.2961,0.2961,0.1818,0.0728,0.0728,0.0364,0.0,0.0,0.0,0.0,0.0,0.0,0.0,0.0,0.0,0.0,0.0,0.0,0.0,0.0,0.0,0.0,0.0,0.0,0.0,0.0,0.0,0.0,0.0,0.0,0.0,0.0,0.0,0.0,0.0,0.0,0.0,0.0,0.0,0.0,1.5368,1.5875,1.6355,1.7341,1.7822,1.7994,1.7761,1.792,1.7613,1.582,1.5668,1.5658,1.5078,1.4508,1.418,1.4364,1.3002,1.1783,1.1403,1.0352,0.9571,0.9476,0.9356,0.9322,0.9449,0.9551,0.9666,0.9778,0.9934,1.0042,1.0096,1.0276,1.0378,1.0432,1.0439,1.0439,1.0439,1.0527,1.05,1.0358,1.0358,1.0276,1.0096,1.0042,0.9961,0.9866,0.9812,0.9792,0.9792,0.9792,0.9451,0.8927,0.8927,0.8593,0.8039,0.8039,0.8039,0.8221,0.939,0.9731,0.9553,0.8933,0.8583,0.8135,0.6527,0.5991,0.5602,0.4086,0.3678,0.355,0.3019,0.2153,0.1426,0.1426,0.07,0.0,0.0,0.0,0.0,0.0,0.0,0.0,0.0,0.0,0.0,0.0,0.0,0.0,0.0,0.0,0.0,0.0,0.0,0.0,0.0,0.0,0.0,0.0,0.0,0.0,0.0,0.0,0.0,0.0,0.0,0.0,0.0,0.0,0.0,0.0,0.0,0.0,1.5427,1.6112,1.6889,1.7423,1.8167,1.8331,1.6606,1.6403,1.6006,1.4131,1.2388,1.1556,1.286,1.1879,1.0949,1.1206,1.1504,1.125,0.9986,0.9683,0.9632,0.9618,0.9496,0.9469,0.9618,0.9632,0.9693,0.9805,0.9947,1.0096,1.0315,1.0426,1.0568,1.0717,1.0684,1.0684,1.0684,1.0684,1.0649,1.0507,1.0507,1.0426,1.0283,1.0109,1.0004,1.0021,0.9866,0.9768,0.9677,0.967,0.8714,0.7271,0.7271,0.6289,0.4885,0.4885,0.4885,0.5345,0.8471,0.9542,0.9273,0.7545,0.6995,0.6643,0.4921,0.438,0.4065,0.2524,0.2099,0.1766,0.0365,0.0,0.0,0.0,0.0,0.0,0.0,0.0,0.0,0.0,0.0,0.0,0.0,0.0,0.0,0.0,0.0,0.0,0.0,0.0,0.0,0.0,0.0,0.0,0.0,0.0,0.0,0.0,0.0,0.0,0.0,0.0,0.0,0.0,0.0,0.0,0.0,0.0,0.0,0.0,0.0,0.0,1.6524,1.7194,1.7541,1.6916,1.6883,1.661,1.5189,1.4728,1.4093,1.2207,1.203,1.1858,1.0681,1.0434,1.0425,1.0607,1.0277,0.9945,0.9812,0.9859,0.9866,0.9751,0.9805,0.9866,0.99,0.9907,0.9967,1.0154,1.0202,1.0283,1.0432,1.0582,1.0644,1.0684,1.0684,1.0684,1.0684,1.0684,1.0671,1.0663,1.0663,1.0582,1.0439,1.0399,1.0324,1.0215,1.0028,0.9274,0.8166,0.8041,0.7027,0.5529,0.5529,0.5284,0.4885,0.4885,0.4885,0.5008,0.5865,0.6141,0.6075,0.5624,0.5392,0.504,0.3468,0.2895,0.248,0.0994,0.0554,0.0465,0.0087,0.0,0.0,0.0,0.0,0.0,0.0,0.0,0.0,0.0,0.0,0.0,0.0,0.0,0.0,0.0,0.0,0.0,0.0,0.0,0.0,0.0,0.0,0.0,0.0,0.0,0.0,0.0,0.0,0.0,0.0,0.0,0.0,0.0,0.0,0.0,0.0,0.0,0.0,0.0,0.0,0.0,1.7193,1.7876,1.8076,1.6742,1.6431,1.5851,1.3424,1.272,1.1981,0.9796,0.9807,0.9792,0.8504,0.8645,0.9046,0.9295,0.9246,0.9313,0.968,0.9886,0.9988,0.99,1.0028,1.0116,1.0116,1.0116,1.0215,1.0365,1.0403,1.0405,1.0487,1.0636,1.0684,1.0684,1.0684,1.0684,1.0684,1.0684,1.0684,1.0684,1.0684,1.0677,1.0588,1.0521,1.0026,0.9196,0.9029,0.7973,0.6424,0.6329,0.5341,0.3843,0.3843,0.3382,0.2739,0.2739,0.2739,0.2739,0.2739,0.2739,0.2862,0.3597,0.3791,0.3431,0.1885,0.1324,0.107,0.0238,0.0,0.0,0.0,0.0,0.0,0.0,0.0,0.0,0.0,0.0,0.0,0.0,0.0,0.0,0.0,0.0,0.0,0.0,0.0,0.0,0.0,0.0,0.0,0.0,0.0,0.0,0.0,0.0,0.0,0.0,0.0,0.0,0.0,0.0,0.0,0.0,0.0,0.0,0.0,0.0,0.0,0.0,0.0,0.0,1.7635,1.8303,1.8455,1.6529,1.6181,1.5328,1.1458,1.0527,0.9813,0.7555,0.7038,0.6945,0.6695,0.7049,0.7489,0.7912,0.8486,0.9048,0.9544,0.9832,1.0028,1.0049,1.0236,1.0337,1.0337,1.0337,1.0392,1.0514,1.0521,1.0521,1.0521,1.0649,1.0684,1.0684,1.0684,1.0684,1.0684,1.0684,1.0684,1.0684,1.0684,1.0585,1.0346,1.0215,0.9172,0.7491,0.7319,0.6244,0.4593,0.4589,0.3635,0.2156,0.2156,0.1295,0.0,0.0,0.0,0.0,0.0,0.0,0.0247,0.1694,0.2156,0.191,0.0432,0.0,0.0,0.0,0.0,0.0,0.0,0.0,0.0,0.0,0.0,0.0,0.0,0.0,0.0,0.0,0.0,0.0,0.0,0.0,0.0,0.0,0.0,0.0,0.0,0.0,0.0,0.0,0.0,0.0,0.0,0.0,0.0,0.0,0.0,0.0,0.0,0.0,0.0,0.0,0.0,0.0,0.0,0.0,0.0,0.0,0.0,0.0,1.821,1.8624,1.8239,1.5426,1.4558,1.3435,0.9746,0.8525,0.7926,0.7097,0.6763,0.6559,0.6409,0.6797,0.7303,0.7756,0.8331,0.8926,0.953,0.9832,1.0069,1.0222,1.048,1.0643,1.0643,1.0643,1.0656,1.0644,1.0677,1.0677,1.0677,1.0704,1.0684,1.0684,1.0684,1.0684,1.0684,1.0684,1.0684,1.0684,1.0684,0.9915,0.8468,0.8447,0.7469,0.5804,0.561,0.4594,0.3071,0.2965,0.1931,0.0432,0.0432,0.0247,0.0,0.0,0.0,0.0,0.0,0.0,0.0062,0.0339,0.0432,0.037,0.0093,0.0,0.0,0.0,0.0,0.0,0.0,0.0,0.0,0.0,0.0,0.0,0.0,0.0,0.0,0.0,0.0,0.0,0.0,0.0,0.0,0.0,0.0,0.0,0.0,0.0,0.0,0.0,0.0,0.0,0.0,0.0,0.0,0.0,0.0,0.0,0.0,0.0,0.0,0.0,0.0,0.0,0.0,0.0,0.0,0.0,0.0,0.0,1.7338,1.7513,1.7049,1.3836,1.2777,1.1738,0.8729,0.7678,0.7148,0.6465,0.6227,0.6076,0.587,0.6362,0.6892,0.7183,0.7801,0.8453,0.9136,0.9555,0.9907,1.0274,1.0541,1.0684,1.0684,1.0684,1.0684,1.0684,1.0684,1.0684,1.0684,1.0684,1.0684,1.0684,1.0684,1.0684,1.0684,1.0684,1.0684,1.0684,1.0684,0.9742,0.7997,0.7997,0.6527,0.3988,0.3897,0.2879,0.13,0.124,0.0723,0.0,0.0,0.0,0.0,0.0,0.0,0.0,0.0,0.0,0.0,0.0,0.0,0.0,0.0,0.0,0.0,0.0,0.0,0.0,0.0,0.0,0.0,0.0,0.0,0.0,0.0,0.0,0.0,0.0,0.0,0.0,0.0,0.0,0.0,0.0,0.0,0.0,0.0,0.0,0.0,0.0,0.0,0.0,0.0,0.0,0.0,0.0,0.0,0.0,0.0,0.0,0.0,0.0,0.0,0.0,0.0,0.0,0.0,0.0,0.0,0.0,1.5934,1.5897,1.551,1.25,1.1488,1.0604,0.8155,0.729,0.6789,0.5976,0.5752,0.5661,0.5481,0.5933,0.6443,0.6702,0.7292,0.8004,0.8798,0.9298,0.9774,1.0229,1.0541,1.0684,1.0684,1.0684,1.0684,1.0684,1.0684,1.0684,1.0684,1.0684,1.0684,1.0684,1.0684,1.0684,1.0684,1.0684,1.0518,1.0114,1.0114,0.8972,0.686,0.686,0.5125,0.2114,0.2124,0.132,0.0,0.0,0.0,0.0,0.0,0.0,0.0,0.0,0.0,0.0,0.0,0.0,0.0,0.0,0.0,0.0,0.0,0.0,0.0,0.0,0.0,0.0,0.0,0.0,0.0,0.0,0.0,0.0,0.0,0.0,0.0,0.0,0.0,0.0,0.0,0.0,0.0,0.0,0.0,0.0,0.0,0.0,0.0,0.0,0.0,0.0,0.0,0.0,0.0,0.0,0.0,0.0,0.0,0.0,0.0,0.0,0.0,0.0,0.0,0.0,0.0,0.0,0.0,0.0,1.4219,1.4116,1.3901,1.201,1.1318,1.0506,0.8127,0.7156,0.6566,0.5928,0.5607,0.5467,0.5566,0.5732,0.6091,0.6769,0.719,0.7767,0.8764,0.9298,0.9774,1.0229,1.0541,1.0684,1.0684,1.0684,1.0684,1.0684,1.0684,1.0684,1.0684,1.0684,1.0684,1.0684,1.0684,1.0684,1.0684,1.0684,0.9875,0.823,0.823,0.646,0.3186,0.3186,0.2115,0.0235,0.0235,0.0167,0.0,0.0,0.0,0.0,0.0,0.0,0.0,0.0,0.0,0.0,0.0,0.0,0.0,0.0,0.0,0.0,0.0,0.0,0.0,0.0,0.0,0.0,0.0,0.0,0.0,0.0,0.0,0.0,0.0,0.0,0.0,0.0,0.0,0.0,0.0,0.0,0.0,0.0,0.0,0.0,0.0,0.0,0.0,0.0,0.0,0.0,0.0,0.0,0.0,0.0,0.0,0.0,0.0,0.0,0.0,0.0,0.0,0.0,0.0,0.0,0.0,0.0,0.0,0.0,1.2436,1.2312,1.2114,1.0381,0.9666,0.9078,0.7775,0.7015,0.6437,0.5908,0.5586,0.5412,0.5474,0.5593,0.5861,0.6457,0.6716,0.7185,0.8101,0.8574,0.9069,0.9795,1.0103,1.0393,1.0657,1.0684,1.0684,1.0684,1.0684,1.0684,1.0684,1.0684,1.0684,1.0684,0.9643,0.9072,0.9072,0.8035,0.7136,0.6431,0.6431,0.5125,0.2685,0.2685,0.1713,0.0,0.0,0.0,0.0,0.0,0.0,0.0,0.0,0.0,0.0,0.0,0.0,0.0,0.0,0.0,0.0,0.0,0.0,0.0,0.0,0.0,0.0,0.0,0.0,0.0,0.0,0.0,0.0,0.0,0.0,0.0,0.0,0.0,0.0,0.0,0.0,0.0,0.0,0.0,0.0,0.0,0.0,0.0,0.0,0.0,0.0,0.0,0.0,0.0,0.0,0.0,0.0,0.0,0.0,0.0,0.0,0.0,0.0,0.0,0.0,0.0,0.0,0.0,0.0,0.0,0.0,-0.0594,1.0683,1.0511,1.0331,0.9126,0.8533,0.8058,0.7519,0.6927,0.6362,0.5895,0.5586,0.5392,0.5392,0.5505,0.5743,0.6144,0.6409,0.6859,0.7692,0.8113,0.8641,0.9381,0.971,1.0049,1.0447,1.061,1.0684,1.0684,1.0684,1.0684,1.0684,1.018,0.9908,0.9908,0.8668,0.7764,0.7231,0.5997,0.5128,0.4593,0.4593,0.3655,0.1915,0.1915,0.121,0.0,0.0,0.0,0.0,0.0,0.0,0.0,0.0,0.0,0.0,0.0,0.0,0.0,0.0,0.0,0.0,0.0,0.0,0.0,0.0,0.0,0.0,0.0,0.0,0.0,0.0,0.0,0.0,0.0,0.0,0.0,0.0,0.0,0.0,0.0,0.0,0.0,0.0,0.0,0.0,0.0,0.0,0.0,0.0,0.0,0.0,0.0,0.0,0.0,0.0,0.0,0.0,0.0,0.0,0.0,0.0,0.0,0.0,0.0,0.0,0.0,0.0,0.0,0.0,0.0,-0.0537,-0.2033,0.8917,0.8628,0.8553,0.8676,0.8351,0.7898,0.7498,0.6927,0.6362,0.5895,0.5586,0.5392,0.5392,0.5505,0.5684,0.5964,0.639,0.6959,0.7706,0.8201,0.8675,0.9159,0.9429,0.9704,0.9963,1.0427,1.0684,1.0684,1.0684,1.0684,1.0684,0.9006,0.803,0.803,0.7997,0.7165,0.5429,0.5396,0.4492,0.2719,0.2719,0.178,0.0034,0.0034,0.0034,0.0,0.0,0.0,0.0,0.0,0.0,0.0,0.0,0.0,0.0,0.0,0.0,0.0,0.0,0.0,0.0,0.0,0.0,0.0,0.0,0.0,0.0,0.0,0.0,0.0,0.0,0.0,0.0,0.0,0.0,0.0,0.0,0.0,0.0,0.0,0.0,0.0,0.0,0.0,0.0,0.0,0.0,0.0,0.0,0.0,0.0,0.0,0.0,0.0,0.0,0.0,0.0,0.0,0.0,0.0,0.0,0.0,0.0,0.0,0.0,0.0,0.0,0.0,0.0,-0.0032,-0.1835,-0.4559,0.7841,0.7729,0.7814,0.7533,0.7364,0.7141,0.6736,0.6403,0.6071,0.5725,0.5518,0.5392,0.5392,0.5433,0.5681,0.6369,0.6607,0.6959,0.7706,0.8201,0.8675,0.9159,0.9869,1.0405,1.0468,1.0603,1.0684,1.0684,1.0684,1.0147,0.8933,0.8302,0.7997,0.7997,0.5659,0.4124,0.3557,0.2316,0.1411,0.084,0.084,0.0538,0.0,0.0,0.0,0.0,0.0,0.0,0.0,0.0,0.0,0.0,0.0,0.0,0.0,0.0,0.0,0.0,0.0,0.0,0.0,0.0,0.0,0.0,0.0,0.0,0.0,0.0,0.0,0.0,0.0,0.0,0.0,0.0,0.0,0.0,0.0,0.0,0.0,0.0,0.0,0.0,0.0,0.0,0.0,0.0,0.0,0.0,0.0,0.0,0.0,0.0,0.0,0.0,0.0,0.0,0.0,0.0,0.0,0.0,0.0,0.0,0.0,0.0,0.0,0.0,0.0,-0.1229,-0.2485,-0.3719,-0.5505,-0.6921,0.7168,0.7134,0.7204,0.6965,0.6823,0.6668,0.6375,0.6098,0.5856,0.5637,0.5484,0.5392,0.5392,0.5487,0.5749,0.6349,0.662,0.7007,0.7645,0.8167,0.8716,0.9288,0.9998,1.0461,1.0548,1.0017,0.9676,0.9676,0.9078,0.8202,0.7065,0.636,0.5993,0.5993,0.3856,0.2383,0.168,0.0572,0.0,0.0,0.0,0.0,0.0,0.0,0.0,0.0,0.0,0.0,0.0,0.0,0.0,0.0,0.0,0.0,0.0,0.0,0.0,0.0,0.0,0.0,0.0,0.0,0.0,0.0,0.0,0.0,0.0,0.0,0.0,0.0,0.0,0.0,0.0,0.0,0.0,0.0,0.0,0.0,0.0,0.0,0.0,0.0,0.0,0.0,0.0,0.0,0.0,0.0,0.0,0.0,0.0,0.0,0.0,0.0,0.0,0.0,0.0,0.0,0.0,0.0,0.0,0.0,0.0,0.0,0.0,-0.0346,-0.1026,-0.283,-0.4648,-0.6411,-0.7496,-0.836,0.0,0.6688,0.6654,0.6762,0.6614,0.6389,0.6265,0.6001,0.0,0.562,0.5494,0.5405,0.544,0.5634,0.5861,0.6072,0.6566,0.7087,0.7584,0.8174,0.8838,0.9585,0.977,0.9928,1.0137,0.8738,0.7831,0.7831,0.6331,0.5329,0.5228,0.3622,0.2652,0.2518,0.2518,0.1713,0.0,0.0,0.0,0.0,0.0,0.0,0.0,0.0,0.0,0.0,0.0,0.0,0.0,0.0,0.0,0.0,0.0,0.0,0.0,0.0,0.0,0.0,0.0,0.0,0.0,0.0,0.0,0.0,0.0,0.0,0.0,0.0,0.0,0.0,0.0,0.0,0.0,0.0,0.0,0.0,0.0,0.0,0.0,0.0,0.0,0.0,0.0,0.0,0.0,0.0,0.0,0.0,0.0,0.0,0.0,0.0,0.0,0.0,0.0,0.0,0.0,0.0,0.0,0.0,0.0,0.0,0.0,0.0,-0.0127,-0.1154,-0.3087,-0.476,-0.6498,-0.8197,-0.8197,-0.9105,0.534,0.0,0.5852,0.577,0.5783,0.5777,0.0,0.5627,0.5613,0.5481,0.5419,0.5501,0.5806,0.5745,0.5967,0.6927,0.7053,0.731,0.8042,0.8825,0.9578,1.0209,0.9204,0.8486,0.8547,0.7005,0.5997,0.5997,0.5629,0.4794,0.3423,0.292,0.2049,0.0672,0.0639,0.0437,0.0,0.0,0.0,0.0,0.0,0.0,0.0,0.0,0.0,0.0,0.0,0.0,0.0,0.0,0.0,0.0,0.0,0.0,0.0,0.0,0.0,0.0,0.0,0.0,0.0,0.0,0.0,0.0,0.0,0.0,0.0,0.0,0.0,0.0,0.0,0.0,0.0,0.0,0.0,0.0,0.0,0.0,0.0,0.0,0.0,0.0,0.0,0.0,0.0,0.0,0.0,0.0,0.0,0.0,0.0,0.0,0.0,0.0,0.0,0.0,0.0,0.0,0.0,0.0,0.0,0.0,0.0,0.0,-0.1361,-0.3618,-0.6749,-0.7181,-0.8302,-1.0081,-1.0081,-1.028,0.4775,0.5196,0.5586,0.5505,0.5593,0.5664,0.56,0.5539,0.5494,0.5412,0.5453,0.5579,0.5849,0.5962,0.6273,0.7041,0.7303,0.7763,0.875,0.9422,0.9664,0.9374,0.8563,0.7698,0.6898,0.5195,0.4158,0.4158,0.339,0.2484,0.1512,0.1445,0.1009,0.0034,0.0,0.0,0.0,0.0,0.0,0.0,0.0,0.0,0.0,0.0,0.0,0.0,0.0,0.0,0.0,0.0,0.0,0.0,0.0,0.0,0.0,0.0,0.0,0.0,0.0,0.0,0.0,0.0,0.0,0.0,0.0,0.0,0.0,0.0,0.0,0.0,0.0,0.0,0.0,0.0,0.0,0.0,0.0,0.0,0.0,0.0,0.0,0.0,0.0,0.0,0.0,0.0,0.0,0.0,0.0,0.0,0.0,0.0,0.0,0.0,0.0,0.0,0.0,0.0,0.0,0.0,0.0,0.0,-0.0388,-0.1236,-0.3818,-0.609,-0.8004,-0.8839,-0.9742,-1.0684,-1.0684,-1.0684,0.4749,0.5232,0.5637,0.5542,0.5677,0.5827,0.5779,0.5607,0.546,0.546,0.5566,0.5725,0.5935,0.6281,0.6675,0.7046,0.7388,0.7975,0.9072,0.9216,0.8828,0.7725,0.736,0.6594,0.5128,0.3354,0.2283,0.2283,0.0874,0.0,0.0,0.0,0.0,0.0,0.0,0.0,0.0,0.0,0.0,0.0,0.0,0.0,0.0,0.0,0.0,0.0,0.0,0.0,0.0,0.0,0.0,0.0,0.0,0.0,0.0,0.0,0.0,0.0,0.0,0.0,0.0,0.0,0.0,0.0,0.0,0.0,0.0,0.0,0.0,0.0,0.0,0.0,0.0,0.0,0.0,0.0,0.0,0.0,0.0,0.0,0.0,0.0,0.0,0.0,0.0,0.0,0.0,0.0,0.0,0.0,0.0,0.0,0.0,0.0,0.0,0.0,0.0,0.0,0.0,-0.0128,-0.039,-0.0422,-0.1402,-0.3457,-0.6452,-0.813,-0.8402,-0.9948,-1.0684,-1.0684,-1.0684,-1.0684,0.5146,0.5603,0.5822,0.5308,0.5586,0.591,0.5677,0.5677,0.5732,0.5732,0.5836,0.6106,0.6634,0.6789,0.71,0.7961,0.7302,0.6891,0.7407,0.6433,0.5727,0.5774,0.4459,0.3421,0.3155,0.1478,0.0404,0.0404,0.0168,0.0,0.0,0.0,0.0,0.0,0.0,0.0,0.0,0.0,0.0,0.0,0.0,0.0,0.0,0.0,0.0,0.0,0.0,0.0,0.0,0.0,0.0,0.0,0.0,0.0,0.0,0.0,0.0,0.0,0.0,0.0,0.0,0.0,0.0,0.0,0.0,0.0,0.0,0.0,0.0,0.0,0.0,0.0,0.0,0.0,0.0,0.0,0.0,0.0,0.0,0.0,0.0,0.0,0.0,0.0,0.0,0.0,0.0,0.0,0.0,0.0,0.0,0.0,0.0,0.0,0.0,0.0,0.0,0.0,0.0,-0.0691,-0.2235,-0.2303,-0.3834,-0.7137,-0.7721,-0.8767,-1.028,-1.0552,-1.0684,-1.0684,-1.0684,-1.0684,0.4935,0.5386,0.5728,0.5525,0.6045,0.6532,0.6343,0.6302,0.6288,0.6288,0.639,0.66,0.6937,0.7215,0.7699,0.8628,0.763,0.6867,0.7314,0.599,0.4746,0.4014,0.3222,0.2316,0.1344,0.0505,0.0,0.0,0.0,0.0,0.0,0.0,0.0,0.0,0.0,0.0,0.0,0.0,0.0,0.0,0.0,0.0,0.0,0.0,0.0,0.0,0.0,0.0,0.0,0.0,0.0,0.0,0.0,0.0,0.0,0.0,0.0,0.0,0.0,0.0,0.0,0.0,0.0,0.0,0.0,0.0,0.0,0.0,0.0,0.0,0.0,0.0,0.0,0.0,0.0,0.0,0.0,0.0,0.0,0.0,0.0,0.0,0.0,0.0,0.0,0.0,0.0,0.0,0.0,0.0,0.0,0.0,0.0,0.0,0.0,0.0,0.0,0.0,-0.0928,-0.1835,-0.2652,-0.4557,-0.6327,-0.7964,-0.8972,-0.9875,-1.0684,-1.0684,-1.0684,-1.0684,-1.0684,-1.0684,0.4838,0.528,0.5698,0.5949,0.6478,0.6958,0.6958,0.6843,0.6783,0.6892,0.7012,0.7148,0.7256,0.7702,0.8175,0.8587,0.742,0.6425,0.6417,0.4965,0.3446,0.2213,0.2083,0.1512,0.0135,0.0,0.0,0.0,0.0,0.0,0.0,0.0,0.0,0.0,0.0,0.0,0.0,0.0,0.0,0.0,0.0,0.0,0.0,0.0,0.0,0.0,0.0,0.0,0.0,0.0,0.0,0.0,0.0,0.0,0.0,0.0,0.0,0.0,0.0,0.0,0.0,0.0,0.0,0.0,0.0,0.0,0.0,0.0,0.0,0.0,0.0,0.0,0.0,0.0,0.0,0.0,0.0,0.0,0.0,0.0,0.0,0.0,0.0,0.0,0.0,0.0,0.0,0.0,0.0,0.0,0.0,0.0,0.0,0.0,0.0,0.0,-0.0166,-0.0596,-0.1936,-0.2887,-0.332,-0.6327,-0.8197,-0.8634,-0.9981,-1.0684,-1.0684,-1.0684,-1.0684,-1.0684,-1.0684,-1.0684,0.5348,0.565,0.5922,0.6491,0.66,0.6648,0.7012,0.697,0.7012,0.7448,0.7651,0.7729,0.7736,0.8338,0.845,0.7265,0.5926,0.4532,0.3075,0.1429,0.0336,0.0202,0.0202,0.0135,0.0,0.0,0.0,0.0,0.0,0.0,0.0,0.0,0.0,0.0,0.0,0.0,0.0,0.0,0.0,0.0,0.0,0.0,0.0,0.0,0.0,0.0,0.0,0.0,0.0,0.0,0.0,0.0,0.0,0.0,0.0,0.0,0.0,0.0,0.0,0.0,0.0,0.0,0.0,0.0,0.0,0.0,0.0,0.0,0.0,0.0,0.0,0.0,0.0,0.0,0.0,0.0,0.0,0.0,0.0,0.0,0.0,0.0,0.0,0.0,0.0,0.0,0.0,0.0,0.0,0.0,0.0,0.0,0.0,0.0,0.0,0.0,-0.0705,-0.2414,-0.2617,-0.3454,-0.5128,-0.6998,-0.8801,-1.0485,-1.0618,-1.0684,-1.0684,-1.0684,-1.0684,-1.0684,-1.0684,-1.0684,0.504,0.5481,0.5922,0.645,0.6722,0.6958,0.7323,0.7604,0.7862,0.8214,0.8385,0.8486,0.8486,0.8818,0.8641,0.725,0.5831,0.4371,0.2854,0.1105,0.0,0.0,0.0,0.0,0.0,0.0,0.0,0.0,0.0,0.0,0.0,0.0,0.0,0.0,0.0,0.0,0.0,0.0,0.0,0.0,0.0,0.0,0.0,0.0,0.0,0.0,0.0,0.0,0.0,0.0,0.0,0.0,0.0,0.0,0.0,0.0,0.0,0.0,0.0,0.0,0.0,0.0,0.0,0.0,0.0,0.0,0.0,0.0,0.0,0.0,0.0,0.0,0.0,0.0,0.0,0.0,0.0,0.0,0.0,0.0,0.0,0.0,0.0,0.0,0.0,0.0,0.0,0.0,0.0,0.0,0.0,0.0,0.0,0.0,0.0,-0.1042,-0.1981,-0.2652,-0.3756,-0.5162,-0.6931,-0.874,-1.0014,-1.0684,-1.0684,-1.0684,-1.0684,-1.0684,-1.0684,-1.0684,-1.0684,-1.0684,0.4986,0.546,0.5983,0.645,0.6823,0.7235,0.7712,0.8076,0.841,0.8771,0.8872,0.894,0.9034,0.8687,0.7945,0.6564,0.5115,0.3602,0.2073,0.0773,0.0,0.0,0.0,0.0,0.0,0.0,0.0,0.0,0.0,0.0,0.0,0.0,0.0,0.0,0.0,0.0,0.0,0.0,0.0,0.0,0.0,0.0,0.0,0.0,0.0,0.0,0.0,0.0,0.0,0.0,0.0,0.0,0.0,0.0,0.0,0.0,0.0,0.0,0.0,0.0,0.0,0.0,0.0,0.0,0.0,0.0,0.0,0.0,0.0,0.0,0.0,0.0,0.0,0.0,0.0,0.0,0.0,0.0,0.0,0.0,0.0,0.0,0.0,0.0,0.0,0.0,0.0,0.0,0.0,0.0,0.0,0.0,0.0,-0.0235,-0.0807,-0.1982,-0.3186,-0.4289,-0.5529,-0.6765,-0.7964,-0.9205,-1.0114,-1.0684,-1.0147,-1.0147,-1.0684,-1.0684,-1.0684,-1.0684,-1.0684,-1.0684,0.5351,0.5691,0.612,0.6593,0.6904,0.7323,0.8131,0.8301,0.8471,0.9091,0.9049,0.9007,0.9327,0.7921,0.625,0.4915,0.347,0.1918,0.0235,0.0,0.0,0.0,0.0,0.0,0.0,0.0,0.0,0.0,0.0,0.0,0.0,0.0,0.0,0.0,0.0,0.0,0.0,0.0,0.0,0.0,0.0,0.0,0.0,0.0,0.0,0.0,0.0,0.0,0.0,0.0,0.0,0.0,0.0,0.0,0.0,0.0,0.0,0.0,0.0,0.0,0.0,0.0,0.0,0.0,0.0,0.0,0.0,0.0,0.0,0.0,0.0,0.0,0.0,0.0,0.0,0.0,0.0,0.0,0.0,0.0,0.0,0.0,0.0,0.0,0.0,0.0,0.0,0.0,0.0,0.0,0.0,0.0,0.0,-0.074,-0.2551,-0.2719,-0.4225,-0.7764,-0.7964,-0.7997,-0.7997,-0.7997,-0.8834,-1.0651,-0.89,-0.89,-1.0684,-1.0684,-1.0684,-1.0684,-1.0684,-1.0684,0.5216,0.5684,0.6321,0.6728,0.7296,0.7891,0.8459,0.8662,0.8879,0.9503,0.951,0.9435,0.9523,0.8131,0.6474,0.4932,0.347,0.1918,0.0235,0.0,0.0,0.0,0.0,0.0,0.0,0.0,0.0,0.0,0.0,0.0,0.0,0.0,0.0,0.0,0.0,0.0,0.0,0.0,0.0,0.0,0.0,0.0,0.0,0.0,0.0,0.0,0.0,0.0,0.0,0.0,0.0,0.0,0.0,0.0,0.0,0.0,0.0,0.0,0.0,0.0,0.0,0.0,0.0,0.0,0.0,0.0,0.0,0.0,0.0,0.0,0.0,0.0,0.0,0.0,0.0,0.0,0.0,0.0,0.0,0.0,0.0,0.0,0.0,0.0,0.0,0.0,0.0,0.0,0.0,0.0,0.0,0.0,-0.1143,-0.2115,-0.2652,-0.3856,-0.5061,-0.6097,-0.6164,-0.6731,-0.7964,-0.7997,-0.8263,-0.8801,-0.8263,-0.89,-1.0684,-1.0684,-1.0684,-1.0684,-1.0684,-1.0684,0.5694,0.6173,0.6729,0.7222,0.7658,0.8175,0.8832,0.9096,0.9291,0.9704,0.9677,0.9625,0.9686,0.7744,0.5849,0.4939,0.2947,0.1159,0.0132,0.0,0.0,0.0,0.0,0.0,0.0,0.0,0.0,0.0,0.0,0.0,0.0,0.0,0.0,0.0,0.0,0.0,0.0,0.0,0.0,0.0,0.0,0.0,0.0,0.0,0.0,0.0,0.0,0.0,0.0,0.0,0.0,0.0,0.0,0.0,0.0,0.0,0.0,0.0,0.0,0.0,0.0,0.0,0.0,0.0,0.0,0.0,0.0,0.0,0.0,0.0,0.0,0.0,0.0,0.0,0.0,0.0,0.0,0.0,0.0,0.0,0.0,0.0,0.0,0.0,0.0,0.0,0.0,-0.0269,-0.0975,-0.1076,-0.1344,-0.2083,-0.2484,-0.2987,-0.3722,-0.4124,-0.4626,-0.5362,-0.5396,-0.5863,-0.6931,-0.6965,-0.7298,-0.7997,-0.7997,-0.89,-1.0684,-1.0684,-1.0684,-1.0684,-1.0684,-1.0684,0.6491,0.6864,0.724,0.784,0.8067,0.8331,0.9191,0.9496,0.9652,0.9758,0.969,0.9666,0.9765,0.7009,0.4767,0.4873,0.2141,0.0,0.0,0.0,0.0,0.0,0.0,0.0,0.0,0.0,0.0,0.0,0.0,0.0,0.0,0.0,0.0,0.0,0.0,0.0,0.0,0.0,0.0,0.0,0.0,0.0,0.0,0.0,0.0,0.0,0.0,0.0,0.0,0.0,0.0,0.0,0.0,0.0,0.0,0.0,0.0,0.0,0.0,0.0,0.0,0.0,0.0,0.0,0.0,0.0,0.0,0.0,0.0,0.0,0.0,0.0,0.0,0.0,0.0,0.0,0.0,0.0,0.0,0.0,0.0,0.0,0.0,0.0,0.0,0.0,0.0,-0.0606,-0.2249,-0.245,-0.3088,-0.4727,-0.3588,-0.3354,-0.5028,-0.3655,-0.339,-0.5061,-0.5162,-0.5162,-0.5162,-0.5295,-0.6231,-0.7964,-0.7997,-0.89,-1.0684,-1.0684,-1.0684,-1.0684,-1.0684,-1.0684,0.612,0.6606,0.724,0.784,0.8479,0.9022,0.9335,0.9496,0.9652,0.9758,0.9765,0.9751,0.9785,0.7099,0.4858,0.4883,0.2141,0.0,0.0,0.0,0.0,0.0,0.0,0.0,0.0,0.0,0.0,0.0,0.0,0.0,0.0,0.0,0.0,0.0,0.0,0.0,0.0,0.0,0.0,0.0,0.0,0.0,0.0,0.0,0.0,0.0,0.0,0.0,0.0,0.0,0.0,0.0,0.0,0.0,0.0,0.0,0.0,0.0,0.0,0.0,0.0,0.0,0.0,0.0,0.0,0.0,0.0,0.0,0.0,0.0,0.0,0.0,0.0,0.0,0.0,0.0,0.0,0.0,0.0,0.0,0.0,0.0,0.0,0.0,0.0,0.0,0.0,-0.0135,-0.0538,-0.0572,-0.074,-0.1109,-0.2083,-0.2853,-0.3255,-0.292,-0.2853,-0.3255,-0.3289,-0.3289,-0.3289,-0.466,-0.6231,-0.7964,-0.7997,-0.89,-1.0684,-1.0684,-1.0684,-1.0684,-1.0684,-1.0684,0.6323,0.6823,0.7414,0.8085,0.873,0.9228,0.9281,0.9417,0.9523,0.9598,0.972,0.9572,0.8806,0.6599,0.4653,0.388,0.1652,0.0,0.0,0.0,0.0,0.0,0.0,0.0,0.0,0.0,0.0,0.0,0.0,0.0,0.0,0.0,0.0,0.0,0.0,0.0,0.0,0.0,0.0,0.0,0.0,0.0,0.0,0.0,0.0,0.0,0.0,0.0,0.0,0.0,0.0,0.0,0.0,0.0,0.0,0.0,0.0,0.0,0.0,0.0,0.0,0.0,0.0,0.0,0.0,0.0,0.0,0.0,0.0,0.0,0.0,0.0,0.0,0.0,0.0,0.0,0.0,0.0,0.0,0.0,0.0,0.0,0.0,0.0,0.0,0.0,0.0,-0.0303,-0.1177,-0.1277,-0.1613,-0.2484,-0.2652,-0.2685,-0.2685,-0.1915,-0.178,-0.2652,-0.2685,-0.3454,-0.5158,-0.6127,-0.7065,-0.7997,-0.8834,-0.9742,-1.0684,-1.0684,-1.0684,-1.0684,-1.0684,-1.0684,0.6458,0.7027,0.758,0.8355,0.8832,0.9117,0.92,0.9281,0.9376,0.9403,0.9598,0.926,0.7641,0.6006,0.4364,0.277,0.1079,0.0,0.0,0.0,0.0,0.0,0.0,0.0,0.0,0.0,0.0,0.0,0.0,0.0,0.0,0.0,0.0,0.0,0.0,0.0,0.0,0.0,0.0,0.0,0.0,0.0,0.0,0.0,0.0,0.0,0.0,0.0,0.0,0.0,0.0,0.0,0.0,0.0,0.0,0.0,0.0,0.0,0.0,0.0,0.0,0.0,0.0,0.0,0.0,0.0,0.0,0.0,0.0,0.0,0.0,0.0,0.0,0.0,0.0,0.0,0.0,0.0,0.0,0.0,0.0,0.0,0.0,0.0,0.0,0.0,0.0,-0.0538,-0.2049,-0.2249,-0.2819,-0.4292,-0.3121,-0.2249,-0.2249,-0.0874,-0.0773,-0.2585,-0.2987,-0.4623,-0.7864,-0.8296,-0.8468,-0.8468,-0.9948,-1.0684,-1.0684,-1.0684,-1.0684,-1.0684,-1.0684,-1.0684,0.5664,0.6573,0.7607,0.8459,0.8723,0.8838,0.9124,0.9228,0.9247,0.9383,0.9517,0.9125,0.7434,0.5904,0.4364,0.277,0.1079,0.0,0.0,0.0,0.0,0.0,0.0,0.0,0.0,0.0,0.0,0.0,0.0,0.0,0.0,0.0,0.0,0.0,0.0,0.0,0.0,0.0,0.0,0.0,0.0,0.0,0.0,0.0,0.0,0.0,0.0,0.0,0.0,0.0,0.0,0.0,0.0,0.0,0.0,0.0,0.0,0.0,0.0,0.0,0.0,0.0,0.0,0.0,0.0,0.0,0.0,0.0,0.0,0.0,0.0,0.0,0.0,0.0,0.0,0.0,0.0,0.0,0.0,0.0,0.0,0.0,0.0,0.0,0.0,0.0,0.0,-0.0101,-0.0336,-0.037,-0.0437,-0.0706,-0.0505,-0.037,-0.037,-0.0135,-0.0773,-0.2585,-0.4158,-0.593,-0.7931,-0.951,-1.0352,-1.0352,-1.0585,-1.0684,-1.0684,-1.0684,-1.0684,-1.0684,-1.0684,-1.0684,0.5996,0.6844,0.7675,0.8303,0.8526,0.8642,0.8859,0.8934,0.8947,0.9103,0.8581,0.7619,0.6029,0.4558,0.3007,0.1367,0.0487,0.0,0.0,0.0,0.0,0.0,0.0,0.0,0.0,0.0,0.0,0.0,0.0,0.0,0.0,0.0,0.0,0.0,0.0,0.0,0.0,0.0,0.0,0.0,0.0,0.0,0.0,0.0,0.0,0.0,0.0,0.0,0.0,0.0,0.0,0.0,0.0,0.0,0.0,0.0,0.0,0.0,0.0,0.0,0.0,0.0,0.0,0.0,0.0,0.0,0.0,0.0,0.0,0.0,0.0,0.0,0.0,0.0,0.0,0.0,0.0,0.0,0.0,0.0,0.0,0.0,0.0,0.0,0.0,0.0,0.0,0.0,0.0,0.0,0.0,0.0,0.0,-0.0404,-0.1411,-0.1512,-0.2717,-0.5492,-0.6427,-0.7664,-0.9437,-1.028,-1.0684,-1.0684,-1.0684,-1.0684,-1.0684,-1.0684,-1.0684,-1.0684,-1.0684,-1.0684,0.6125,0.677,0.7299,0.7968,0.8233,0.837,0.8601,0.8655,0.8696,0.8825,0.7449,0.5903,0.485,0.3471,0.1947,0.0269,0.0,0.0,0.0,0.0,0.0,0.0,0.0,0.0,0.0,0.0,0.0,0.0,0.0,0.0,0.0,0.0,0.0,0.0,0.0,0.0,0.0,0.0,0.0,0.0,0.0,0.0,0.0,0.0,0.0,0.0,0.0,0.0,0.0,0.0,0.0,0.0,0.0,0.0,0.0,0.0,0.0,0.0,0.0,0.0,0.0,0.0,0.0,0.0,0.0,0.0,0.0,0.0,0.0,0.0,0.0,0.0,0.0,0.0,0.0,0.0,0.0,0.0,0.0,0.0,0.0,0.0,0.0,0.0,0.0,0.0,0.0,0.0,0.0,0.0,0.0,0.0,0.0,-0.074,-0.2551,-0.2685,-0.4225,-0.7764,-0.7997,-0.8801,-1.0618,-1.0684,-1.0684,-1.0684,-1.0684,-1.0684,-1.0684,-1.0684,-1.0684,-1.0684,-1.0684,-1.0684,0.545,0.5766,0.6173,0.7346,0.774,0.7957,0.8397,0.8519,0.8533,0.8689,0.6379,0.4364,0.4495,0.342,0.194,0.0265,0.0,0.0,0.0,0.0,0.0,0.0,0.0,0.0,0.0,0.0,0.0,0.0,0.0,0.0,0.0,0.0,0.0,0.0,0.0,0.0,0.0,0.0,0.0,0.0,0.0,0.0,0.0,0.0,0.0,0.0,0.0,0.0,0.0,0.0,0.0,0.0,0.0,0.0,0.0,0.0,0.0,0.0,0.0,0.0,0.0,0.0,0.0,0.0,0.0,0.0,0.0,0.0,0.0,0.0,0.0,0.0,0.0,0.0,0.0,0.0,0.0,0.0,0.0,0.0,0.0,0.0,0.0,0.0,0.0,0.0,0.0,0.0,0.0,0.0,0.0,0.0,0.0,-0.074,-0.2551,-0.2685,-0.4225,-0.7764,-0.7997,-0.8801,-1.0618,-1.0684,-1.0684,-1.0684,-1.0684,-1.0684,-1.0684,-1.0684,-1.0684,-1.0684,-1.0684,-1.0684,0.5324,0.5566,0.5861,0.6695,0.7129,0.7452,0.7834,0.8165,0.8176,0.7437,0.5647,0.3958,0.3181,0.1851,0.0687,0.0087,0.0,0.0,0.0,0.0,0.0,0.0,0.0,0.0,0.0,0.0,0.0,0.0,0.0,0.0,0.0,0.0,0.0,0.0,0.0,0.0,0.0,0.0,0.0,0.0,0.0,0.0,0.0,0.0,0.0,0.0,0.0,0.0,0.0,0.0,0.0,0.0,0.0,0.0,0.0,0.0,0.0,0.0,0.0,0.0,0.0,0.0,0.0,0.0,0.0,0.0,0.0,0.0,0.0,0.0,0.0,0.0,0.0,0.0,0.0,0.0,0.0,0.0,0.0,0.0,0.0,0.0,0.0,0.0,0.0,0.0,0.0,0.0,0.0,0.0,0.0,0.0,0.0,-0.074,-0.2551,-0.3756,-0.5462,-0.7864,-0.9105,-1.0014,-1.0684,-1.0684,-1.0684,-1.0684,-1.0684,-1.0684,-1.0684,-1.0684,-1.0684,-1.0684,-1.0684,-1.0684,0.5071,0.5266,0.5542,0.6307,0.662,0.6904,0.7529,0.7852,0.7814,0.7141,0.5465,0.3886,0.3017,0.1311,0.0,0.0,0.0,0.0,0.0,0.0,0.0,0.0,0.0,0.0,0.0,0.0,0.0,0.0,0.0,0.0,0.0,0.0,0.0,0.0,0.0,0.0,0.0,0.0,0.0,0.0,0.0,0.0,0.0,0.0,0.0,0.0,0.0,0.0,0.0,0.0,0.0,0.0,0.0,0.0,0.0,0.0,0.0,0.0,0.0,0.0,0.0,0.0,0.0,0.0,0.0,0.0,0.0,0.0,0.0,0.0,0.0,0.0,0.0,0.0,0.0,0.0,0.0,0.0,0.0,0.0,0.0,0.0,0.0,0.0,0.0,0.0,0.0,0.0,0.0,0.0,0.0,0.0,0.0,-0.0975,-0.339,-0.4693,-0.6398,-0.8767,-1.0047,-1.0684,-1.0684,-1.0684,-1.0684,-1.0684,-1.0684,-1.0684,-1.0684,-1.0684,-1.0684,-1.0684,-1.0684,-1.0684,0.0,0.0,0.0,0.6185,0.6213,0.6296,0.7465,0.7543,0.7475,0.7807,0.5795,0.4011,0.4067,0.1833,0.0,0.0,0.0,0.0,0.0,0.0,0.0,0.0,0.0,0.0,0.0,0.0,0.0,0.0,0.0,0.0,0.0,0.0,0.0,0.0,0.0,0.0,0.0,0.0,0.0,0.0,0.0,0.0,0.0,0.0,0.0,0.0,0.0,0.0,0.0,0.0,0.0,0.0,0.0,0.0,0.0,0.0,0.0,0.0,0.0,0.0,0.0,0.0,0.0,0.0,0.0,0.0,0.0,0.0,0.0,0.0,0.0,0.0,0.0,0.0,0.0,0.0,0.0,0.0,0.0,0.0,0.0,0.0,0.0,0.0,0.0,0.0,0.0,0.0,0.0,0.0,0.0,0.0,0.0,-0.1445,-0.5028,-0.5362,-0.6902,-1.0386,-1.0684,-1.0684,-1.0684,-1.0684,-1.0684,-1.0684,-1.0684,-1.0684,-1.0684,-1.0684,-1.0684,-1.0684,-1.0684,-1.0684,0.4573,0.0,0.0,0.0,0.0,0.0,0.6356,0.6627,0.6386,0.5087,0.4117,0.3007,0.1446,0.0523,0.0,0.0,0.0,0.0,0.0,0.0,0.0,0.0,0.0,0.0,0.0,0.0,0.0,0.0,0.0,0.0,0.0,0.0,0.0,0.0,0.0,0.0,0.0,0.0,0.0,0.0,0.0,0.0,0.0,0.0,0.0,0.0,0.0,0.0,0.0,0.0,0.0,0.0,0.0,0.0,0.0,0.0,0.0,0.0,0.0,0.0,0.0,0.0,0.0,0.0,0.0,0.0,0.0,0.0,0.0,0.0,0.0,0.0,0.0,0.0,0.0,0.0,0.0,0.0,0.0,0.0,0.0,0.0,0.0,0.0,0.0,0.0,0.0,0.0,0.0,0.0,0.0,0.0,0.0,-0.0941,-0.3255,-0.466,-0.6364,-0.8601,-0.9981,-1.0684,-1.0684,-1.0684,-1.0684,-1.0684,-1.0684,-1.0684,-1.0684,-1.0684,-1.0684,-1.0684,-1.0684,-1.0684,0.4797,0.4809,0.4923,0.5182,0.0,0.0,0.6166,0.6349,0.6166,0.5237,0.4196,0.3044,0.1808,0.0706,0.0,0.0,0.0,0.0,0.0,0.0,0.0,0.0,0.0,0.0,0.0,0.0,0.0,0.0,0.0,0.0,0.0,0.0,0.0,0.0,0.0,0.0,0.0,0.0,0.0,0.0,0.0,0.0,0.0,0.0,0.0,0.0,0.0,0.0,0.0,0.0,0.0,0.0,0.0,0.0,0.0,0.0,0.0,0.0,0.0,0.0,0.0,0.0,0.0,0.0,0.0,0.0,0.0,0.0,0.0,0.0,0.0,0.0,0.0,0.0,0.0,0.0,0.0,0.0,0.0,0.0,0.0,0.0,0.0,0.0,0.0,0.0,0.0,0.0,0.0,0.0,0.0,0.0,-0.0672,-0.1848,-0.3655,-0.5462,-0.7231,-0.9006,-1.0114,-1.0684,-1.0684,-1.0684,-1.0684,-1.0684,-1.0684,-1.0684,-1.0684,-1.0684,-1.0684,-1.0684,-1.0684,-1.0684,0.5234,0.5214,0.5356,0.5842,0.5718,0.0,0.6403,0.6409,0.635,0.6711,0.5105,0.3659,0.3685,0.1835,0.0292,0.0174,0.0152,0.013,0.0027,0.0,0.0,0.0,0.0,0.0,0.0,0.0,0.0,0.0,0.0,0.0,0.0,0.0,0.0,0.0,0.0,0.0,0.0,0.0,0.0,0.0,0.0,0.0,0.0,0.0,0.0,0.0,0.0,0.0,0.0,0.0,0.0,0.0,0.0,0.0,0.0,0.0,0.0,0.0,0.0,0.0,0.0,0.0,0.0,0.0,0.0,0.0,0.0,0.0,0.0,0.0,0.0,0.0,0.0,0.0,0.0,0.0,0.0,0.0,0.0,0.0,0.0,0.0,0.0,0.0,0.0,0.0,0.0,0.0,0.0,0.0,0.0,0.0,-0.1613,-0.3423,-0.5228,-0.6998,-0.8767,-1.0585,-1.0684,-1.0684,-1.0684,-1.0684,-1.0684,-1.0684,-1.0684,-1.0684,-1.0684,-1.0684,-1.0684,-1.0684,-1.0684,-1.0684,0.5745,0.5872,0.6001,0.5739,0.5899,0.0,0.5865,0.5854,0.5693,0.4915,0.4328,0.3727,0.3037,0.2602,0.2045,0.1187,0.1171,0.0992,0.0132,0.0,0.0,0.0,0.0,0.0,0.0,0.0,0.0,0.0,0.0,0.0,0.0,0.0,0.0,0.0,0.0,0.0,0.0,0.0,0.0,0.0,0.0,0.0,0.0,0.0,0.0,0.0,0.0,0.0,0.0,0.0,0.0,0.0,0.0,0.0,0.0,0.0,0.0,0.0,0.0,0.0,0.0,0.0,0.0,0.0,0.0,0.0,0.0,0.0,0.0,0.0,0.0,0.0,0.0,0.0,0.0,0.0,0.0,0.0,0.0,0.0,0.0,0.0,0.0,0.0,0.0,0.0,0.0,0.0,0.0,0.0,0.0,0.0,-0.1613,-0.3423,-0.5228,-0.6998,-0.8767,-1.0585,-1.0684,-1.0684,-1.0684,-1.0684,-1.0684,-1.0684,-1.0684,-1.0684,-1.0684,-1.0684,-1.0684,-1.0684,-1.0684,-1.0684,0.6239,0.6267,0.6348,0.6199,0.6219,0.0,0.0,0.5926,0.5746,0.5583,0.4775,0.4063,0.3921,0.3362,0.2736,0.2272,0.1851,0.1443,0.0966,0.0383,0.0,0.0,0.0,0.0,0.0,0.0,0.0,0.0,0.0,0.0,0.0,0.0,0.0,0.0,0.0,0.0,0.0,0.0,0.0,0.0,0.0,0.0,0.0,0.0,0.0,0.0,0.0,0.0,0.0,0.0,0.0,0.0,0.0,0.0,0.0,0.0,0.0,0.0,0.0,0.0,0.0,0.0,0.0,0.0,0.0,0.0,0.0,0.0,0.0,0.0,0.0,0.0,0.0,0.0,0.0,0.0,0.0,0.0,0.0,0.0,0.0,0.0,0.0,0.0,0.0,0.0,0.0,0.0,0.0,0.0,0.0,0.0,-0.2417,-0.4426,-0.5329,-0.7836,-0.9742,-1.0651,-1.0684,-1.0684,-1.0684,-1.0684,-1.0684,-1.0684,-1.0684,-1.0684,-1.0684,-1.0684,-1.0684,-1.0684,-1.0684,-1.0684,0.6784,0.6729,0.6756,0.6742,0.6648,0.6518,0.0,0.0,0.0,0.658,0.5532,0.4656,0.5146,0.4269,0.3425,0.3322,0.2692,0.2145,0.2034,0.1046,0.0249,0.0025,0.0,0.0,0.0,0.0,0.0,0.0,0.0,0.0,0.0,0.0,0.0,0.0,0.0,0.0,0.0,0.0,0.0,0.0,0.0,0.0,0.0,0.0,0.0,0.0,0.0,0.0,0.0,0.0,0.0,0.0,0.0,0.0,0.0,0.0,0.0,0.0,0.0,0.0,0.0,0.0,0.0,0.0,0.0,0.0,0.0,0.0,0.0,0.0,0.0,0.0,0.0,0.0,0.0,0.0,0.0,0.0,0.0,0.0,0.0,0.0,0.0,0.0,0.0,0.0,0.0,0.0,0.0,0.0,0.0,0.0,-0.3255,-0.5396,-0.5396,-0.8673,-1.0684,-1.0684,-1.0684,-1.0684,-1.0684,-1.0684,-1.0684,-1.0684,-1.0684,-1.0684,-1.0684,-1.0684,-1.0684,-1.0684,-1.0684,-1.0704,0.7516,0.7563,0.7536,0.7006,0.7177,0.721,0.6268,0.0,0.6328,0.5996,0.0,0.5648,0.5714,0.0,0.0,0.4225,0.4234,0.3987,0.2929,0.2091,0.119,0.0117,0.0,0.0,0.0,0.0,0.0,0.0,0.0,0.0,0.0,0.0,0.0,0.0,0.0,0.0,0.0,0.0,0.0,0.0,0.0,0.0,0.0,0.0,0.0,0.0,0.0,0.0,0.0,0.0,0.0,0.0,0.0,0.0,0.0,0.0,0.0,0.0,0.0,0.0,0.0,0.0,0.0,0.0,0.0,0.0,0.0,0.0,0.0,0.0,0.0,0.0,0.0,0.0,0.0,0.0,0.0,0.0,0.0,0.0,0.0,0.0,0.0,0.0,0.0,0.0,0.0,0.0,0.0,0.0,0.0,0.0,-0.3255,-0.5396,-0.5396,-0.8673,-1.0684,-1.0684,-1.0684,-1.0684,-1.0684,-1.0684,-1.0684,-1.0684,-1.0684,-1.0684,-1.0684,-1.0684,-1.0684,-1.0684,-1.0684,-1.0759,0.7638,0.7645,0.7604,0.7272,0.7197,0.7053,0.6519,0.6296,0.6234,0.6308,0.0,0.0,0.0,0.0,0.0,0.0,0.4776,0.4229,0.3728,0.2409,0.1358,0.097,0.0388,0.0,0.0,0.0,0.0,0.0,0.0,0.0,0.0,0.0,0.0,0.0,0.0,0.0,0.0,0.0,0.0,0.0,0.0,0.0,0.0,0.0,0.0,0.0,0.0,0.0,0.0,0.0,0.0,0.0,0.0,0.0,0.0,0.0,0.0,0.0,0.0,0.0,0.0,0.0,0.0,0.0,0.0,0.0,0.0,0.0,0.0,0.0,0.0,0.0,0.0,0.0,0.0,0.0,0.0,0.0,0.0,0.0,0.0,0.0,0.0,0.0,0.0,0.0,0.0,0.0,0.0,0.0,0.0,0.0,-0.3255,-0.5396,-0.5396,-0.8673,-1.0684,-1.0684,-1.0684,-1.0684,-1.0684,-1.0684,-1.0684,-1.0684,-1.0684,-1.0684,-1.0684,-1.0684,-1.0684,-1.0684,-1.0684,-1.0772,0.776,0.7719,0.7651,0.738,0.7127,0.6891,0.6641,0.639,0.6275,0.658,0.6356,0.0,0.0,0.0,0.5996,0.6005,0.0,0.4732,0.4601,0.3204,0.199,0.1511,0.0605,0.0,0.0,0.0,0.0,0.0,0.0,0.0,0.0,0.0,0.0,0.0,0.0,0.0,0.0,0.0,0.0,0.0,0.0,0.0,0.0,0.0,0.0,0.0,0.0,0.0,0.0,0.0,0.0,0.0,0.0,0.0,0.0,0.0,0.0,0.0,0.0,0.0,0.0,0.0,0.0,0.0,0.0,0.0,0.0,0.0,0.0,0.0,0.0,0.0,0.0,0.0,0.0,0.0,0.0,0.0,0.0,0.0,0.0,0.0,0.0,0.0,0.0,0.0,0.0,0.0,0.0,0.0,0.0,0.0,-0.2786,-0.4861,-0.5362,-0.8202,-1.018,-1.0684,-1.0684,-1.0684,-1.0684,-1.0684,-1.0684,-1.0684,-1.0684,-1.0684,-1.0684,-1.0684,-1.0684,-1.0684,-1.0684,-1.0792,0.804,0.7975,0.7833,0.7247,0.7098,0.6958,0.643,0.6505,0.6641,0.6525,0.6702,0.683,0.6715,0.658,0.6375,0.6059,0.614,0.0,0.0,0.4885,0.3583,0.1381,0.0454,0.0,0.0,0.0,0.0,0.0,0.0,0.0,0.0,0.0,0.0,0.0,0.0,0.0,0.0,0.0,0.0,0.0,0.0,0.0,0.0,0.0,0.0,0.0,0.0,0.0,0.0,0.0,0.0,0.0,0.0,0.0,0.0,0.0,0.0,0.0,0.0,0.0,0.0,0.0,0.0,0.0,0.0,0.0,0.0,0.0,0.0,0.0,0.0,0.0,0.0,0.0,0.0,0.0,0.0,0.0,0.0,0.0,0.0,0.0,0.0,0.0,0.0,0.0,0.0,0.0,0.0,0.0,0.0,0.0,-0.168,-0.3488,-0.5262,-0.7065,-0.8834,-1.0585,-1.0684,-1.0684,-1.0684,-1.0684,-1.0684,-1.0684,-1.0684,-1.0684,-1.0684,-1.0684,-1.0684,-1.0684,-1.0684,-1.0873,0.8343,0.833,0.8214,0.7682,0.7434,0.7163,0.6688,0.6627,0.6654,0.6525,0.6715,0.6857,0.6729,0.6593,0.643,0.6233,0.6076,0.5852,0.0,0.4144,0.2698,0.1395,0.0511,0.0,0.0,0.0,0.0,0.0,0.0,0.0,0.0,0.0,0.0,0.0,0.0,0.0,0.0,0.0,0.0,0.0,0.0,0.0,0.0,0.0,0.0,0.0,0.0,0.0,0.0,0.0,0.0,0.0,0.0,0.0,0.0,0.0,0.0,0.0,0.0,0.0,0.0,0.0,0.0,0.0,0.0,0.0,0.0,0.0,0.0,0.0,0.0,0.0,0.0,0.0,0.0,0.0,0.0,0.0,0.0,0.0,0.0,0.0,0.0,0.0,0.0,0.0,0.0,0.0,0.0,0.0,0.0,0.0,-0.2685,-0.4727,-0.5362,-0.8102,-1.0047,-1.0651,-1.0684,-1.0684,-1.0684,-1.0684,-1.0684,-1.0684,-1.0684,-1.0684,-1.0684,-1.0684,-1.0684,-1.0684,-1.0684,-1.088,0.8526,0.8505,0.8384,0.7966,0.7339,0.6844,0.6844,0.6531,0.6199,0.6032,0.6585,0.6784,0.5768,0.6165,0.6424,0.5771,0.5777,0.5759,0.0,0.3768,0.238,0.1854,0.0725,0.0,0.0,0.0,0.0,0.0,0.0,0.0,0.0,0.0,0.0,0.0,0.0,0.0,0.0,0.0,0.0,0.0,0.0,0.0,0.0,0.0,0.0,0.0,0.0,0.0,0.0,0.0,0.0,0.0,0.0,0.0,0.0,0.0,0.0,0.0,0.0,0.0,0.0,0.0,0.0,0.0,0.0,0.0,0.0,0.0,0.0,0.0,0.0,0.0,0.0,0.0,0.0,0.0,0.0,0.0,0.0,0.0,0.0,0.0,0.0,0.0,0.0,0.0,0.0,0.0,0.0,0.0,0.0,0.0,-0.2652,-0.4961,-0.6231,-0.9006,-1.0684,-1.0684,-1.0684,-1.0684,-1.0684,-1.0684,-1.0684,-1.0684,-1.0684,-1.0684,-1.0684,-1.0684,-1.0684,-1.0691,-1.0745,-1.0928]},{"header":{"parameterUnit":"m.s-1","parameterCategory":1,"la1":30.6,"la2":29.2853,"lo1":-89.7004,"lo2":-87.6739,"dy":0.0162,"dx":0.0183,"nx":112,"ny":82,"refTime":"2024-09-19T12:00:00:Z","depth":0,"parameterNumber":3,"parameterNumberName":"V-component_of_WINDS"},"data":[0.0,0.0,0.0,0.0,0.0,0.0,0.0,0.0,0.0,0.0,0.0,0.0,0.0,0.0,0.0,0.0,0.0,0.0,0.0,0.0,0.0,0.0,0.0,0.0,0.0,0.0,0.0,0.0,0.0,0.0,0.0,0.0,0.0,0.0,0.0,0.0,0.0,0.0,0.0,0.0,0.0,0.0,0.0,0.0,0.0,0.0,0.0,0.0,0.0,0.0,0.0,0.0,0.0,0.0,0.0,0.0,0.0,0.0,0.0,0.0,0.0,0.0,0.0,0.0,0.0,0.0,0.0,0.0,0.0,0.0,0.0,0.0,0.0,0.0,0.0,0.0,0.0,0.0,0.0,0.0,0.0,0.0,0.0,0.0,0.0,0.0,0.0,0.0,0.0,0.0,3.0161,3.3213,3.6626,3.8469,3.7933,3.7529,3.5319,3.0687,0.0,0.0,0.0,0.0,0.0,0.0,0.0,0.0,0.0,0.0,0.0,0.0,0.0,0.0,0.0,0.0,0.0,0.0,0.0,0.0,0.0,0.0,0.0,0.0,0.0,0.0,0.0,0.0,0.0,0.0,0.0,0.0,0.0,0.0,0.0,0.0,0.0,0.0,0.0,0.0,0.0,0.0,0.0,0.0,0.0,0.0,0.0,0.0,0.0,0.0,0.0,0.0,0.0,0.0,0.0,0.0,0.0,0.0,0.0,0.0,0.0,0.0,0.0,0.0,0.0,0.0,0.0,0.0,0.0,0.0,0.0,0.0,0.0,0.0,0.0,0.0,0.0,0.0,0.0,0.0,0.0,0.0,0.0,0.0,0.0,0.0,0.0,0.0,0.0,0.0,0.0,0.0,0.0,0.0,0.0,0.0,0.0,0.0,0.0,0.0,0.0,0.0,0.0,0.0,3.1262,3.714,3.8314,3.8946,3.9504,3.7669,3.4988,3.1427,0.0,0.0,0.0,0.0,0.0,0.0,0.0,0.0,0.0,0.0,0.0,0.0,0.0,0.0,0.0,0.0,0.0,0.0,0.0,0.0,0.0,0.0,0.0,0.0,0.0,0.0,0.0,0.0,0.0,0.0,0.0,0.0,0.0,0.0,0.0,0.0,0.0,0.0,0.0,0.0,0.0,0.0,0.0,0.0,0.0,0.0,0.0,0.0,0.0,0.0,0.0,0.0,0.0,0.0,0.0,0.0,0.0,0.0,0.0,0.0,0.0,0.0,0.0,0.0,0.0,0.0,0.0,0.0,0.0,0.0,0.0,0.0,0.0,0.0,0.0,0.0,0.0,0.0,0.0,0.0,0.0,0.0,0.0,0.0,0.0,0.0,0.0,0.0,0.0,0.0,0.0,0.0,0.0,0.0,0.0,0.0,0.0,0.0,0.0,0.0,0.0,0.0,0.0,3.0314,3.2949,3.8131,3.8681,3.8836,3.9203,3.7441,3.4915,3.1611,2.8741,0.0,0.0,0.0,0.0,0.0,0.0,0.0,0.0,0.0,0.0,0.0,0.0,0.0,0.0,0.0,0.0,0.0,0.0,0.0,0.0,0.0,0.0,0.0,0.0,0.0,0.0,0.0,0.0,0.0,0.0,0.0,0.0,0.0,0.0,0.0,0.0,0.0,0.0,0.0,0.0,0.0,0.0,0.0,0.0,0.0,0.0,0.0,0.0,0.0,0.0,0.0,0.0,0.0,0.0,0.0,0.0,0.0,0.0,0.0,0.0,0.0,0.0,0.0,0.0,0.0,0.0,0.0,0.0,0.0,0.0,0.0,0.0,0.0,0.0,0.0,0.0,0.0,0.0,0.0,0.0,0.0,0.0,0.0,0.0,0.0,0.0,0.0,0.0,0.0,0.0,0.0,0.0,0.0,0.0,0.0,0.0,0.0,0.0,0.0,0.0,0.0,0.0,3.336,3.4901,3.8579,3.8791,3.8791,3.8982,3.6964,3.4474,3.1574,2.8007,0.0,0.0,0.0,0.0,0.0,0.0,0.0,0.0,0.0,0.0,0.0,0.0,0.0,0.0,0.0,0.0,0.0,0.0,0.0,0.0,0.0,0.0,0.0,0.0,0.0,0.0,0.0,0.0,0.0,0.0,0.0,0.0,0.0,0.0,0.0,0.0,0.0,0.0,0.0,0.0,0.0,0.0,0.0,0.0,0.0,0.0,0.0,0.0,0.0,0.0,0.0,0.0,0.0,0.0,0.0,0.0,0.0,0.0,0.0,0.0,0.0,0.0,0.0,0.0,0.0,0.0,0.0,0.0,0.0,0.0,0.0,0.0,0.0,0.0,0.0,0.0,0.0,0.0,0.0,0.0,0.0,0.0,0.0,0.0,0.0,0.0,0.0,0.0,0.0,0.0,0.0,0.0,0.0,0.0,0.0,0.0,0.0,0.0,0.0,0.0,0.0,0.0,3.4181,3.7,3.9541,3.9166,3.9019,3.9761,3.6229,3.322,3.1501,2.6985,0.0,0.0,0.0,0.0,0.0,0.0,0.0,0.0,0.0,0.0,0.0,0.0,0.0,0.0,0.0,0.0,0.0,0.0,0.0,0.0,0.0,0.0,0.0,0.0,0.0,0.0,0.0,0.0,0.0,0.0,0.0,0.0,0.0,0.0,0.0,0.0,0.0,0.0,0.0,0.0,0.0,0.0,0.0,0.0,0.0,0.0,0.0,0.0,0.0,0.0,0.0,0.0,0.0,0.0,0.0,0.0,0.0,0.0,0.0,0.0,0.0,0.0,0.0,0.0,0.0,0.0,0.0,0.0,0.0,0.0,0.0,0.0,0.0,0.0,0.0,0.0,0.0,0.0,0.0,0.0,0.0,0.0,0.0,0.0,0.0,0.0,0.0,0.0,0.0,0.0,0.0,0.0,0.0,0.0,0.0,0.0,0.0,0.0,0.0,0.0,0.0,0.0,3.3373,3.5862,3.8836,3.8872,3.8836,3.9129,3.6817,3.4217,3.158,0.0,0.0,0.0,0.0,0.0,0.0,0.0,0.0,0.0,0.0,0.0,0.0,0.0,0.0,0.0,0.0,0.0,0.0,0.0,0.0,0.0,0.0,0.0,0.0,0.0,0.0,0.0,0.0,0.0,0.0,0.0,0.0,0.0,0.0,0.0,0.0,0.0,0.0,0.0,0.0,0.0,0.0,0.0,0.0,0.0,0.0,0.0,0.0,0.0,0.0,0.0,0.0,0.0,0.0,0.0,0.0,0.0,0.0,0.0,0.0,0.0,0.0,0.0,0.0,0.0,0.0,0.0,0.0,0.0,0.0,0.0,0.0,0.0,0.0,0.0,0.0,0.0,0.0,0.0,0.0,0.0,0.0,0.0,0.0,0.0,0.0,0.0,0.0,0.0,0.0,0.0,0.0,0.0,0.0,0.0,0.0,0.0,0.0,0.0,0.0,0.0,0.0,3.084,3.3263,3.5642,3.8395,3.8681,3.8681,3.8681,3.6486,3.4064,3.1574,0.0,0.0,0.0,0.0,0.0,0.0,0.0,0.0,0.0,0.0,0.0,0.0,0.0,0.0,0.0,0.0,0.0,0.0,0.0,0.0,0.0,0.0,0.0,0.0,0.0,0.0,0.0,0.0,0.0,0.0,0.0,0.0,0.0,0.0,0.0,0.0,0.0,0.0,0.0,0.0,0.0,0.0,0.0,0.0,0.0,0.0,0.0,0.0,0.0,0.0,0.0,0.0,0.0,0.0,0.0,0.0,0.0,0.0,0.0,0.0,0.0,0.0,0.0,0.0,0.0,0.0,0.0,0.0,0.0,0.0,0.0,0.0,0.0,0.0,0.0,0.0,0.0,0.0,0.0,0.0,0.0,0.0,0.0,0.0,0.0,0.0,0.0,0.0,0.0,0.0,0.0,0.0,0.0,0.0,0.0,0.0,0.0,0.0,0.0,0.0,0.0,0.0,3.0993,3.4298,3.6934,3.855,3.8696,3.8696,3.8689,3.4981,3.2265,0.0,0.0,0.0,0.0,0.0,0.0,0.0,0.0,0.0,0.0,0.0,0.0,0.0,0.0,0.0,0.0,0.0,0.0,0.0,0.0,0.0,0.0,0.0,0.0,0.0,0.0,0.0,0.0,0.0,0.0,0.0,0.0,0.0,0.0,0.0,0.0,0.0,0.0,0.0,0.0,0.0,0.0,0.0,0.0,0.0,0.0,0.0,0.0,0.0,0.0,0.0,0.0,0.0,0.0,0.0,0.0,0.0,0.0,0.0,0.0,0.0,0.0,0.0,0.0,0.0,0.0,0.0,0.0,0.0,0.0,0.0,0.0,0.0,0.0,0.0,0.0,0.0,0.0,0.0,0.0,0.0,0.0,0.0,0.0,0.0,0.0,0.0,0.0,0.0,0.0,0.0,0.0,0.0,0.0,0.0,0.0,0.0,0.0,0.0,0.0,0.0,0.0,0.0,3.1398,3.5064,3.7916,3.9195,3.9333,3.9236,3.898,3.6314,3.3704,3.1525,0.0,0.0,0.0,0.0,0.0,0.0,0.0,0.0,0.0,0.0,0.0,0.0,0.0,0.0,0.0,0.0,0.0,0.0,0.0,0.0,0.0,0.0,0.0,0.0,0.0,0.0,0.0,0.0,0.0,0.0,0.0,0.0,0.0,0.0,0.0,0.0,0.0,0.0,0.0,0.0,0.0,0.0,0.0,0.0,0.0,0.0,0.0,0.0,0.0,0.0,0.0,0.0,0.0,0.0,0.0,0.0,0.0,0.0,0.0,0.0,0.0,0.0,0.0,0.0,0.0,0.0,0.0,0.0,0.0,0.0,0.0,0.0,0.0,0.0,0.0,0.0,0.0,0.0,0.0,0.0,0.0,0.0,0.0,0.0,0.0,0.0,0.0,0.0,0.0,0.0,0.0,0.0,0.0,0.0,0.0,0.0,0.0,0.0,0.0,0.0,0.0,0.0,3.156,3.5526,3.8482,3.9487,3.958,3.9504,3.9314,3.7072,3.4531,3.1898,0.0,0.0,0.0,0.0,0.0,0.0,0.0,0.0,0.0,0.0,0.0,0.0,0.0,0.0,0.0,0.0,0.0,0.0,0.0,0.0,0.0,0.0,0.0,0.0,0.0,0.0,0.0,0.0,0.0,0.0,0.0,0.0,0.0,0.0,0.0,0.0,0.0,0.0,0.0,0.0,0.0,0.0,0.0,0.0,0.0,0.0,0.0,0.0,0.0,0.0,0.0,0.0,0.0,0.0,0.0,0.0,0.0,0.0,0.0,0.0,0.0,0.0,0.0,0.0,0.0,0.0,0.0,0.0,0.0,0.0,0.0,0.0,0.0,0.0,0.0,0.0,0.0,0.0,0.0,0.0,0.0,0.0,0.0,0.0,0.0,0.0,0.0,0.0,0.0,0.0,0.0,0.0,0.0,0.0,0.0,0.0,0.0,0.0,0.0,0.0,0.0,0.0,3.1745,3.5857,3.8893,3.9703,3.9741,3.9654,3.9664,3.7376,3.4919,3.2463,0.0,0.0,0.0,0.0,0.0,0.0,0.0,0.0,0.0,0.0,0.0,0.0,0.0,0.0,0.0,0.0,0.0,0.0,0.0,0.0,0.0,0.0,0.0,0.0,0.0,0.0,0.0,0.0,0.0,0.0,0.0,0.0,0.0,0.0,0.0,0.0,0.0,0.0,0.0,0.0,0.0,0.0,0.0,0.0,0.0,0.0,0.0,0.0,0.0,0.0,0.0,0.0,0.0,0.0,0.0,0.0,0.0,0.0,0.0,0.0,2.3798,2.1583,0.0,0.0,0.0,0.0,0.0,0.0,0.0,0.0,0.0,0.0,0.0,0.0,0.0,0.0,0.0,0.0,0.0,0.0,0.0,0.0,0.0,0.0,0.0,0.0,0.0,0.0,0.0,0.0,0.0,0.0,0.0,0.0,0.0,0.0,0.0,0.0,0.0,0.0,0.0,0.0,3.2968,3.7029,4.0158,4.1232,4.0718,4.0221,4.0012,3.7709,3.5399,3.3289,2.9255,0.0,0.0,0.0,0.0,0.0,0.0,0.0,0.0,0.0,0.0,0.0,0.0,0.0,0.0,0.0,0.0,0.0,0.0,0.0,0.0,0.0,0.0,0.0,0.0,0.0,0.0,0.0,0.0,0.0,0.0,0.0,0.0,0.0,0.0,0.0,0.0,0.0,0.0,0.0,0.0,0.0,0.0,0.0,0.0,0.0,0.0,0.0,0.0,0.0,0.0,0.0,0.0,0.0,0.0,0.0,0.0,0.0,0.0,0.0,2.8052,2.6345,0.0,0.0,0.0,0.0,0.0,0.0,0.0,0.0,0.0,0.0,0.0,0.0,0.0,0.0,0.0,0.0,0.0,0.0,0.0,0.0,0.0,0.0,0.0,0.0,0.0,0.0,0.0,0.0,0.0,0.0,0.0,0.0,0.0,0.0,0.0,0.0,0.0,0.0,0.0,0.0,3.4073,3.8193,4.1148,4.1723,4.1393,4.0887,4.0347,3.875,3.6836,3.4568,3.158,0.0,0.0,0.0,0.0,0.0,0.0,0.0,0.0,0.0,0.0,0.0,0.0,0.0,0.0,0.0,0.0,0.0,0.0,0.0,0.0,0.0,0.0,0.0,0.0,0.0,0.0,0.0,0.0,0.0,0.0,0.0,0.0,0.0,0.0,0.0,0.0,0.0,0.0,0.0,0.0,0.0,0.0,0.0,0.0,0.0,0.0,0.0,0.0,0.0,0.0,0.0,0.0,0.0,3.4082,3.393,3.3325,3.3822,3.4284,3.4575,3.3319,3.2483,3.1844,2.9599,0.0,0.0,0.0,0.0,0.0,0.0,0.0,0.0,0.0,0.0,0.0,0.0,0.0,0.0,0.0,0.0,0.0,0.0,0.0,0.0,0.0,0.0,3.2593,3.3816,3.5473,3.5075,2.8986,0.0,0.0,0.0,0.0,0.0,0.0,0.0,0.0,0.0,0.0,0.0,3.5287,3.9387,4.2081,4.2235,4.1966,4.1504,4.0781,3.9858,3.8357,3.608,3.4225,3.1482,0.0,0.0,0.0,0.0,0.0,0.0,0.0,0.0,0.0,0.0,0.0,0.0,0.0,0.0,0.0,0.0,0.0,0.0,0.0,0.0,0.0,0.0,0.0,0.0,0.0,0.0,0.0,0.0,0.0,0.0,0.0,0.0,2.3178,2.4426,0.0,0.0,0.0,0.0,0.0,0.0,0.0,0.0,0.0,0.0,0.0,0.0,0.0,3.2628,3.3529,3.5544,3.6604,3.6746,3.8735,3.9305,3.8618,3.8696,3.9318,4.0409,4.0202,0.0,3.3648,3.3238,0.0,0.0,0.0,0.0,0.0,0.0,0.0,0.0,0.0,0.0,0.0,0.0,0.0,0.0,0.0,0.0,0.0,0.0,0.0,0.0,0.0,0.0,3.8374,3.7894,3.8521,3.878,3.7116,3.3573,3.0397,2.9216,2.7411,2.5942,0.0,0.0,0.0,0.0,0.0,0.0,3.7024,4.0615,4.3201,4.3893,4.2658,4.1735,4.1658,4.0204,3.8819,3.7738,3.6066,3.4121,3.1884,2.9709,0.0,0.0,0.0,0.0,0.0,0.0,0.0,0.0,0.0,0.0,0.0,0.0,0.0,0.0,0.0,0.0,0.0,0.0,0.0,0.0,0.0,0.0,0.0,0.0,0.0,0.0,0.0,0.0,0.0,2.2978,2.5249,2.5655,2.5996,2.5692,0.0,0.0,0.0,0.0,0.0,0.0,0.0,0.0,0.0,3.5267,3.6105,3.7633,3.9987,4.0989,4.1687,4.2132,4.3164,4.329,4.2709,4.2994,4.3261,4.3493,4.336,4.204,3.9825,3.7339,3.5058,3.3033,0.0,0.0,0.0,0.0,3.2682,3.2639,3.5082,3.5433,3.468,3.4287,0.0,0.0,0.0,0.0,0.0,0.0,0.0,3.4989,3.5932,3.8422,4.0791,4.1411,4.2276,4.2795,4.1925,3.9699,3.6944,3.3966,3.2953,3.1821,2.9342,2.8995,0.0,0.0,0.0,3.7019,3.9673,4.2202,4.3893,4.4239,4.3624,4.3008,4.2581,4.1393,4.0315,3.9473,3.8277,3.6825,3.4992,3.2969,3.0644,0.0,0.0,0.0,0.0,0.0,0.0,0.0,0.0,0.0,0.0,0.0,0.0,0.0,0.0,0.0,0.0,0.0,0.0,0.0,0.0,0.0,0.0,0.0,0.0,0.0,0.0,0.0,0.0,2.5539,2.7185,2.703,2.8433,2.8619,0.0,0.0,0.0,0.0,0.0,0.0,3.3581,3.5109,3.7155,3.9773,4.0602,4.2274,4.4993,4.4993,4.5296,4.5883,4.5883,4.5708,4.5299,4.5727,4.5662,4.5273,4.5105,4.4993,4.4728,4.0822,3.834,3.681,3.5278,3.4474,3.4419,3.6204,3.6451,3.6364,3.9213,3.968,3.8872,3.8102,3.7044,3.5581,3.2982,0.0,0.0,0.0,0.0,3.7846,3.9454,4.1002,4.2503,4.4005,4.4978,4.5436,4.4782,4.4167,4.2522,3.8346,3.7874,3.7049,3.3785,3.3371,0.0,3.4221,3.666,3.9316,4.18,4.3585,4.4628,4.4628,4.4436,4.4047,4.347,4.262,4.1777,4.0896,4.0281,3.9161,3.7427,3.593,3.3968,3.1426,0.0,0.0,0.0,0.0,0.0,0.0,0.0,0.0,0.0,0.0,0.0,0.0,0.0,0.0,0.0,0.0,0.0,0.0,0.0,0.0,0.0,0.0,0.0,0.0,0.0,0.0,0.0,0.0,0.0,2.944,3.2558,0.0,0.0,0.0,0.0,3.364,3.4417,3.6053,3.877,4.0383,4.2178,4.4306,4.5159,4.5654,4.5847,4.5847,4.5847,4.5883,4.5883,4.5874,4.5856,4.5874,4.5874,4.5856,4.5838,4.5847,4.5626,4.3113,4.1325,4.0147,3.9695,3.881,3.7904,3.9207,3.9664,3.9782,4.0691,4.0516,4.0092,4.1515,4.0629,3.8828,3.7902,3.7327,0.0,0.0,3.9635,4.1537,4.3207,4.3877,4.4385,4.5308,4.5547,4.5594,4.5556,4.5513,4.4701,4.2026,4.0261,3.9154,3.8919,0.0,3.7062,3.8692,3.9773,4.1004,4.2816,4.4513,4.5513,4.5513,4.4782,4.4278,4.4239,4.3508,4.2662,4.1773,4.1696,4.0931,3.9242,3.8277,3.6622,3.4048,3.1465,0.0,0.0,0.0,0.0,0.0,0.0,0.0,0.0,0.0,0.0,0.0,0.0,0.0,0.0,0.0,0.0,0.0,0.0,0.0,0.0,0.0,0.0,0.0,0.0,0.0,0.0,0.0,0.0,3.3757,3.5717,0.0,3.4069,3.531,3.6583,3.7333,3.9319,4.1164,4.2701,4.3788,4.494,4.6195,4.6535,4.6902,4.7462,4.7462,4.7462,4.7462,4.7462,4.7462,4.7462,4.7462,4.7462,4.7425,4.6902,4.6682,4.6571,4.5186,4.4335,4.3935,4.3821,4.3492,4.3066,4.3005,4.2983,4.2947,4.2727,4.2586,4.2566,4.287,4.2084,4.1054,4.0959,4.1233,4.163,4.2087,4.3133,4.4258,4.4829,4.5076,4.5205,4.5518,4.5594,4.5594,4.5594,4.5594,4.5321,4.4436,4.332,4.2166,4.1085,4.0854,4.0854,4.0893,4.2085,4.3359,4.4551,4.5244,4.5594,4.5594,4.5321,4.5128,4.5128,4.3893,4.297,4.2662,4.1585,4.0704,4.0092,3.9281,3.7892,3.5853,3.3853,3.0891,0.0,0.0,0.0,0.0,0.0,0.0,0.0,0.0,0.0,0.0,0.0,0.0,0.0,0.0,0.0,0.0,0.0,0.0,0.0,0.0,0.0,0.0,0.0,0.0,0.0,3.3921,3.6326,3.6586,3.9056,3.9827,3.7539,3.9395,4.0947,4.1502,4.3246,4.4672,4.5471,4.6278,4.7095,4.7929,4.8223,4.859,4.915,4.915,4.915,4.915,4.915,4.9003,4.8746,4.8746,4.86,4.826,4.7746,4.7489,4.7462,4.7095,4.6908,4.6871,4.6326,4.6105,4.604,4.5655,4.5527,4.5378,4.4562,4.4437,4.4509,4.3936,4.3459,4.3135,4.3362,4.3912,4.4523,4.4705,4.5167,4.5594,4.5594,4.5594,4.5594,4.5594,4.5594,4.5594,4.5594,4.5594,4.5594,4.5594,4.5128,4.4397,4.3278,4.3547,4.3739,4.3162,4.4047,4.4936,4.5518,4.5594,4.5594,4.5594,4.5594,4.5594,4.5594,4.4321,4.3393,4.3124,4.1474,4.0362,4.0092,3.9011,3.7738,3.6308,3.4353,3.1817,2.8736,0.0,0.0,0.0,0.0,0.0,0.0,0.0,0.0,0.0,0.0,0.0,0.0,0.0,0.0,0.0,0.0,0.0,0.0,0.0,0.0,0.0,0.0,0.0,3.4137,3.7225,3.9034,3.7801,4.2541,4.4812,4.2114,4.4346,4.5957,4.5957,4.603,4.6388,4.7186,4.7966,4.8783,4.961,5.0398,5.0802,5.0802,5.0802,5.0802,5.0802,5.0802,5.0398,4.9647,4.9647,4.917,4.8399,4.8362,4.8371,4.8428,4.8753,4.8903,4.8754,4.7183,4.6587,4.6655,4.6998,4.7106,4.6992,4.6148,4.5846,4.5726,4.4946,4.493,4.5208,4.5164,4.54,4.5667,4.5629,4.5671,4.5667,4.5633,4.5633,4.5629,4.5594,4.5594,4.5594,4.5594,4.5594,4.5594,4.5594,4.5594,4.5594,4.5594,4.5594,4.5594,4.5594,4.5594,0.0,4.5594,4.5594,4.5594,4.5594,4.5594,4.5594,4.5603,4.4791,4.3906,4.3136,4.1412,4.0108,3.933,3.7676,3.6406,3.5594,3.3099,3.1406,3.0479,0.0,0.0,0.0,0.0,0.0,0.0,0.0,0.0,0.0,0.0,0.0,0.0,0.0,0.0,0.0,0.0,0.0,0.0,0.0,0.0,0.0,3.6428,3.8402,3.8263,4.0133,4.2032,4.3415,4.4967,4.5599,4.4812,4.6498,4.7645,4.7645,4.8783,4.9554,4.9764,4.9994,5.0215,5.0472,5.0692,5.0802,5.0802,5.0802,5.0802,5.0802,5.0802,5.0692,5.0472,5.0472,5.0504,5.0498,4.9868,4.9809,5.0065,4.9558,4.9333,4.9296,4.8859,4.8671,4.8611,4.8138,4.759,4.7101,4.7111,4.7114,4.7111,4.7127,4.7197,4.7175,4.6599,4.6877,4.7278,4.6701,4.6971,4.7278,4.6701,4.6547,4.6394,4.5744,4.5594,4.5594,4.5594,4.5594,4.5594,4.5594,4.5594,4.5594,4.5594,4.5594,4.5594,4.5594,4.5594,4.5594,4.5594,4.5594,4.5594,4.5594,4.5594,4.562,4.5733,4.438,4.3143,4.2347,4.0776,3.9702,3.9376,3.8999,3.8391,3.7547,3.5667,3.3928,0.0,0.0,0.0,0.0,0.0,0.0,0.0,0.0,0.0,0.0,0.0,0.0,0.0,0.0,0.0,0.0,0.0,0.0,0.0,0.0,0.0,0.0,4.0128,4.2139,4.2828,4.3709,4.4847,4.6241,4.7021,4.7434,4.7434,4.86,4.9361,4.9361,5.0251,5.0802,5.0802,5.1132,5.1316,5.1316,5.1646,5.182,5.182,5.182,5.182,5.183,5.1989,5.1875,5.1562,5.1733,5.1771,5.1632,5.112,5.1039,5.1253,5.052,5.0234,5.0234,0.0,0.0,0.0,0.0,4.9002,4.858,4.8395,4.8334,4.8322,4.8155,4.8082,4.8005,4.7543,4.7735,4.8005,4.7543,4.7735,4.8005,4.7505,4.7389,4.7274,4.6778,4.6667,4.6552,4.6201,4.6124,4.6052,4.5667,4.5594,0.0,4.5677,4.5654,4.5594,4.5594,4.5636,4.5692,4.5692,4.5725,4.5736,4.5736,4.5736,4.578,4.5836,4.46,0.0,0.0,0.0,3.9632,3.8447,3.8463,0.0,0.0,0.0,0.0,0.0,3.7439,0.0,0.0,3.4344,3.4298,0.0,0.0,0.0,0.0,0.0,0.0,0.0,0.0,0.0,0.0,0.0,0.0,0.0,0.0,0.0,0.0,4.3057,4.5654,4.7159,4.7443,4.748,4.7379,4.8783,4.9747,4.9747,5.0482,5.0949,5.0949,5.1022,5.1059,5.1059,5.1756,0.0,0.0,0.0,5.3209,5.3272,5.3272,5.3303,5.3339,5.3692,5.3505,5.2832,5.3193,5.2991,5.234,5.2265,5.2211,5.2246,5.1745,5.1514,5.1437,5.0515,5.0171,5.0201,5.0584,5.0707,5.0592,4.9822,0.0,0.0,4.8625,4.8394,4.8355,4.8274,4.8317,4.8355,4.8274,4.8317,4.8355,4.8274,4.8235,4.8235,4.812,4.8082,4.7889,4.7197,4.7043,4.6812,4.6013,4.5886,4.5926,4.5944,4.5758,4.5642,4.5624,4.5747,4.5809,4.5809,4.5849,4.5882,4.5882,4.5882,0.0,4.5937,4.5165,4.4347,4.3487,4.1939,4.0004,3.7684,3.7686,3.8077,3.8742,3.886,3.9988,4.2125,4.2317,4.2434,4.2322,3.848,3.7855,0.0,0.0,0.0,0.0,0.0,0.0,0.0,0.0,0.0,0.0,0.0,0.0,0.0,0.0,0.0,4.3269,4.5911,4.7976,4.8976,4.9664,4.9848,4.9197,4.9994,5.0582,5.0582,5.1279,5.1767,5.1767,5.238,5.2737,5.2737,5.2884,5.2957,5.2957,5.3104,5.3359,5.3673,5.3673,5.3879,5.4267,5.4322,0.0,5.4145,5.4226,5.4337,5.4448,5.3749,5.3684,5.3935,5.3141,5.2817,5.2663,5.1165,5.0594,5.0599,5.0654,5.0707,5.0668,5.0515,5.0438,5.0438,5.0245,5.0207,5.0053,4.9356,4.963,0.0,4.9356,4.9668,5.0053,4.9317,4.9163,4.8971,4.8274,4.8082,4.8043,4.7889,4.7851,4.7812,4.7663,4.7703,4.7559,4.6886,4.6211,4.5777,4.5828,4.5869,4.5884,4.5884,4.5905,4.5882,4.5882,4.5882,4.5955,4.6065,4.525,4.4435,4.3624,4.261,4.1847,4.1363,4.2028,4.2145,4.1637,4.2301,4.2535,4.2339,4.3745,4.4448,4.4409,4.2825,4.1989,0.0,0.0,0.0,0.0,0.0,0.0,0.0,0.0,0.0,0.0,0.0,3.6641,3.9916,0.0,4.3836,4.6691,4.8489,4.9701,5.0151,5.0875,5.1096,5.0298,5.0912,5.1389,5.1389,5.2123,5.2601,5.2601,5.2957,5.3214,5.3214,5.34,5.3514,5.3514,5.3729,5.3943,5.4144,5.4144,5.4263,5.4484,5.4701,5.479,5.4797,5.5026,5.5205,5.5367,5.4939,5.4873,5.5049,5.4203,5.3587,5.3121,5.2279,5.1664,5.1241,5.0861,5.0707,5.0707,5.0707,5.0707,5.0707,5.0707,5.0707,5.063,5.0168,5.0361,5.0592,5.0168,5.0361,5.0592,5.0168,5.0053,4.9938,4.951,4.9394,4.9316,4.8934,4.8843,4.8721,4.8365,4.8344,4.8263,4.7896,4.7523,4.6939,4.6037,4.5965,4.5997,4.5997,4.6069,4.609,4.609,4.609,4.6139,4.6199,4.5419,4.4716,4.4329,4.3469,4.3004,4.3047,4.3476,4.3711,4.3711,4.4141,4.4336,4.4336,4.5234,4.5664,4.5664,4.5621,4.5148,0.0,0.0,0.0,0.0,0.0,0.0,0.0,3.399,3.4864,3.7808,3.8917,4.0459,4.402,4.5746,4.7324,4.949,5.0508,5.1063,5.1126,5.1845,5.2103,5.1477,5.1891,5.2234,5.2234,5.2821,5.3214,5.3214,5.3272,5.3308,5.3308,5.3692,5.3932,5.3932,5.4297,5.4524,5.4609,5.4609,5.4648,5.4731,5.5074,5.5212,5.5224,5.556,5.5708,5.5708,5.5708,5.5708,5.567,5.5011,5.4318,5.3664,5.351,5.3005,5.2313,5.1471,5.1092,5.0938,5.0938,5.0822,5.0707,5.0707,5.0707,5.0707,5.0707,5.0707,5.0707,5.0707,5.0707,5.0707,5.0707,5.0707,5.0707,5.0707,5.0707,5.0563,4.9965,4.9875,4.9711,4.9104,4.9028,4.9028,4.8973,4.8952,4.8358,4.6502,4.631,4.6339,4.6144,4.6245,4.6289,4.6289,4.6289,4.6289,4.6289,4.5664,4.5234,4.5234,4.4609,4.4219,4.4219,4.4219,4.4531,4.5234,4.5234,4.5664,4.6562,4.6562,4.6641,4.6836,4.7539,4.7383,2.9948,3.0503,3.1978,3.4871,3.41,3.4454,0.0,4.1075,4.0377,4.4957,4.5975,4.6608,4.8573,4.9013,4.9444,5.0508,5.1353,5.1976,5.2336,5.3089,5.3553,5.3479,5.3219,5.3067,5.3067,5.3141,5.3214,5.3214,5.3516,5.3739,5.3739,5.417,5.4412,5.4412,5.446,5.4663,5.5047,5.5008,5.5212,5.5571,5.5605,5.5621,5.5621,5.5692,5.5708,5.5708,5.5708,5.5708,5.5708,5.5593,5.5516,5.5362,5.4626,5.428,5.4087,5.3241,5.2428,5.1774,5.1774,5.1318,5.0707,5.0707,5.0707,5.0707,5.0707,5.0707,5.0707,5.0707,5.0707,5.0707,5.0707,5.0707,5.0707,5.0707,5.0795,5.0863,5.0769,5.0858,5.0918,5.0819,5.0867,5.0688,4.999,4.9949,4.9452,4.7654,4.7421,4.7148,4.6367,4.6289,4.6289,4.6289,4.6289,4.6289,4.6289,4.6211,4.6133,4.6133,4.6055,4.6016,4.6016,4.6016,4.6055,4.6133,4.6133,4.6562,4.7461,4.7461,4.7851,4.8594,4.8711,4.8281,3.5387,3.5392,3.562,3.8388,3.9019,3.9827,4.324,4.3681,4.4232,4.7195,4.8186,4.9003,5.0702,5.0959,5.1253,5.204,5.2682,5.3114,5.3284,5.3386,5.3466,5.3466,5.2836,5.2716,5.3491,5.3814,5.3943,5.3943,5.4092,5.4204,5.4204,5.4617,5.484,5.484,5.5087,5.5269,5.5441,5.5945,5.6048,5.5708,5.6209,5.6209,5.5708,5.5708,5.5708,5.5708,5.5708,5.5708,5.5708,5.5708,5.5708,5.567,5.5324,5.5208,5.5049,5.3703,5.2967,5.2659,5.2659,5.2082,5.1395,5.1395,5.1087,5.0707,5.0707,5.0707,5.0707,5.0707,5.0707,5.0707,5.0707,5.0776,5.0837,5.0837,5.0914,5.1028,5.1072,5.1123,5.1167,5.1248,5.131,5.1203,5.0851,5.0858,5.0508,4.9297,4.8672,4.8047,4.7187,4.707,4.6875,4.6367,4.6289,4.6289,4.6289,4.6289,4.6289,4.6289,4.6289,4.6289,4.6289,4.6797,4.707,4.707,4.7539,4.8008,4.8359,4.8359,4.8555,4.8906,4.9414,4.9453,3.8322,3.855,3.8696,4.0883,4.28,4.4277,4.4718,4.5892,4.7352,4.8967,4.9661,5.0419,5.175,5.2063,5.2337,5.2927,5.3475,5.3878,5.4107,5.369,5.3376,5.3376,5.2707,5.2658,5.3687,5.4016,5.425,5.4484,5.4594,5.4777,5.5004,5.541,5.5715,5.5983,5.6284,5.6434,5.6434,5.7055,5.7055,5.6434,5.6824,5.667,5.6055,5.5824,5.5708,5.5708,5.5708,5.5708,5.5708,5.5708,5.5708,5.5708,5.5708,5.5708,5.5555,5.4357,5.3741,5.3549,5.3549,5.3005,5.2236,5.1962,5.1505,5.0976,5.0784,5.0707,5.0721,5.0753,5.0772,5.0747,5.0812,5.0863,5.0966,5.0966,5.105,5.1127,5.1192,5.1216,5.1273,5.1367,5.1406,5.1406,5.1406,5.1406,5.1211,5.0625,5.0,4.918,4.8086,4.7969,4.7734,4.707,4.6797,4.6758,4.6992,4.6797,4.6758,4.6992,4.7031,4.7031,4.7031,4.7617,4.7969,4.7969,4.8594,4.9023,4.9258,4.9258,4.9375,4.9609,5.0234,5.0547,3.6604,3.8072,4.0238,4.1846,4.4048,4.625,4.7792,4.8783,4.9858,5.1546,5.1554,5.1408,5.1922,5.2266,5.2512,5.2594,5.3265,5.4118,5.494,5.4311,5.3778,5.3778,5.3412,5.3327,5.3759,5.3474,5.3593,5.4446,5.4855,5.5444,5.6296,5.673,5.7346,5.8187,5.8198,5.8204,5.8204,5.8236,5.8236,5.8204,5.7401,5.6983,5.6945,5.6093,5.5708,5.5708,5.5708,5.5708,5.5708,5.5708,5.5708,5.5708,5.5708,5.5708,5.5708,5.5631,5.5126,5.4472,5.4472,5.3895,5.3005,5.2159,5.1885,5.1736,5.0938,5.0707,5.0721,5.0863,5.0882,5.0921,5.1045,5.1081,5.1086,5.1086,5.1138,5.12,5.1202,5.1317,5.1406,5.1406,5.1406,5.1406,5.1406,5.1406,5.1406,5.1367,5.1328,5.0742,4.9062,4.8867,4.8867,4.8828,4.8047,4.7891,4.875,4.8047,4.793,4.8789,4.8828,4.8828,4.8828,4.8867,4.8867,4.8867,4.8906,4.9336,5.0156,5.0156,5.0547,5.1328,5.1367,5.1367,4.0422,4.167,4.2919,4.5626,4.6911,4.7929,4.9591,5.0582,5.1233,5.1481,5.1239,5.0913,5.0778,5.0831,5.1096,5.169,5.293,5.4085,5.4997,5.4611,5.405,5.3469,5.2751,5.2618,5.3327,5.3799,5.4395,5.5237,5.5959,5.6485,5.6792,5.7461,5.8011,5.8275,5.8313,5.8313,5.8313,5.8813,5.8813,5.8313,5.8011,5.7555,5.6983,5.6709,5.6247,5.5708,5.5708,5.5708,5.5708,5.5708,5.5708,5.5708,5.5708,5.5708,5.5708,5.5708,5.5516,5.5285,5.5285,5.4741,5.401,5.3703,5.2851,5.1881,5.1666,5.1248,5.0871,5.0975,5.102,5.1031,5.1079,5.1113,5.1164,5.1164,5.1257,5.1323,5.1323,5.1366,5.1406,5.1406,5.1406,5.1406,5.1406,5.1406,5.1406,5.1406,5.0937,5.0391,4.9844,4.9258,4.8906,4.8906,4.8633,4.8594,4.8867,4.8633,4.8594,4.8867,4.8906,4.8906,4.8906,4.9453,4.9766,4.9766,5.0273,5.0703,5.1016,5.1016,5.1133,5.1406,5.1406,5.1406,4.2294,4.369,4.5011,4.7645,4.8967,4.986,5.0772,5.1585,5.198,5.1246,5.0557,4.9947,4.9513,4.9276,4.9656,5.1146,5.2516,5.3843,5.5122,5.4852,5.428,5.3741,5.289,5.2697,5.3587,5.4164,5.4818,5.5631,5.6516,5.7132,5.744,5.828,5.8858,5.9165,5.9204,5.9204,5.9204,5.9704,5.955,5.8742,5.8742,5.828,5.744,5.7132,5.667,5.6132,5.5824,5.5708,5.5708,5.5708,5.5728,5.5774,5.5774,5.5827,5.587,5.587,5.587,5.5843,5.5738,5.5362,5.4878,5.4665,5.3812,5.2854,5.2683,5.2078,5.1414,5.1557,5.1392,5.1166,5.12,5.1244,5.1269,5.1269,5.1323,5.1406,5.1406,5.1406,5.1406,5.1406,5.1406,5.1406,5.1406,5.1406,5.1406,5.1406,5.0976,5.0625,5.0625,5.0156,4.9805,4.9805,4.9531,4.9492,4.9766,4.9531,4.9492,4.9766,4.9805,4.9805,4.9805,5.0312,5.0625,5.0625,5.1133,5.1406,5.1406,5.1406,5.1406,5.1406,5.1406,5.1562,4.2314,4.4268,4.648,4.8114,5.0254,5.1855,5.149,5.1924,5.2048,5.0846,4.9569,4.8485,4.7994,4.7643,4.8266,5.081,5.2024,5.3358,5.5396,5.5093,5.4626,5.4549,5.3857,5.3703,5.4549,5.4626,5.4972,5.5785,5.6593,5.744,5.8313,5.9127,5.9935,6.0781,6.0787,6.0787,6.0787,6.0787,6.0396,5.9588,5.9588,5.9127,5.8319,5.7517,5.7099,5.7016,5.6132,5.5752,5.5768,5.573,5.5808,5.5936,5.5936,5.6015,5.6194,5.6194,5.6194,5.6152,5.5845,5.5712,5.5599,5.4992,5.475,5.4597,5.3877,5.3062,5.2381,5.2556,5.1989,5.1376,5.1483,5.1523,5.1523,5.1523,5.1523,5.1523,5.1484,5.1484,5.1445,5.1406,5.1406,5.1406,5.1406,5.1406,5.1406,5.1406,5.1406,5.1406,5.1406,5.1406,5.1406,5.1406,5.0703,5.0586,5.1328,5.0703,5.0586,5.1367,5.1406,5.1406,5.1406,5.1406,5.1406,5.1406,5.1406,5.1406,5.1406,5.1406,5.1406,5.1406,5.1445,5.1914,4.5324,4.7241,4.911,5.1019,5.1482,5.1694,5.2536,5.1896,5.0816,4.9534,4.7806,4.5956,4.4277,4.5418,4.7022,4.8342,5.1086,5.3656,5.5467,5.6093,5.6132,5.5478,5.5785,5.6132,5.6324,5.6362,5.6709,5.7588,5.7857,5.8319,5.9165,6.0012,6.0556,6.0787,6.0787,6.0787,6.0787,6.0787,6.071,6.0473,6.0473,6.0012,5.9204,5.8973,5.855,5.7934,5.7055,5.6747,5.6759,5.6106,5.5967,5.6135,5.6135,5.6158,5.6194,5.6194,5.6194,5.6183,5.61,5.6071,5.6039,5.585,5.5363,5.4847,5.4734,5.4102,5.3458,5.3584,5.3474,5.3279,5.332,5.3359,5.3359,5.3359,5.3359,5.3164,5.25,5.2383,5.2187,5.1523,5.1406,5.1406,5.1406,5.1406,5.1406,5.1406,5.1406,5.1406,5.1406,5.1406,5.1406,5.1406,5.1211,5.1172,5.1367,5.1211,5.1172,5.1406,5.1406,5.1406,5.1406,5.1406,5.1406,5.1406,5.1406,5.1406,5.1406,5.1406,5.1406,5.1406,5.207,5.25,4.7159,4.9114,5.0868,5.1815,5.1915,5.1645,5.0876,4.9969,4.8503,4.572,4.4238,4.284,4.0883,4.2608,4.4839,4.6462,4.9734,5.2818,5.4895,5.6247,5.6824,5.6324,5.7055,5.7555,5.7555,5.7555,5.7934,5.8781,5.8813,5.9011,5.9473,6.0319,6.0787,6.0787,6.0787,6.0787,6.0787,6.0787,6.0787,6.0787,6.0787,6.055,6.005,5.9665,5.9315,5.8896,5.7617,5.7181,5.7218,5.6364,5.6113,5.6275,5.6275,5.6305,5.6379,5.6379,5.6379,5.6379,5.6379,5.6379,5.6373,5.6291,5.5965,5.5597,5.571,5.514,5.4482,5.4531,5.4297,5.3984,5.3984,5.3984,5.3984,5.3984,5.3984,5.3867,5.3398,5.3281,5.3008,5.2148,5.1641,5.1406,5.1406,5.1406,5.1406,5.1406,5.1406,5.1406,5.1406,5.1406,5.1406,5.1406,5.1406,5.1406,5.1406,5.1406,5.1406,5.1406,5.1406,5.1406,5.1406,5.1406,5.1406,5.1406,5.1406,5.1601,5.1953,5.1953,5.2187,5.2539,5.3047,5.3476,4.837,5.0288,5.1936,5.1638,5.1911,5.1437,4.8308,4.724,4.5676,4.1267,4.0169,3.9511,3.7969,3.985,4.247,4.5013,4.8283,5.1476,5.4126,5.5939,5.7055,5.717,5.805,5.8627,5.8627,5.8627,5.8934,5.9627,5.9665,5.9665,5.9665,6.0396,6.0787,6.0787,6.0787,6.0787,6.0787,6.0787,6.0787,6.0787,6.0787,6.0804,6.0806,6.0035,5.9808,5.9924,5.8292,5.7592,5.7551,5.6729,5.6406,5.6443,5.6443,5.6508,5.6601,5.6601,5.6601,5.6601,5.6601,5.6601,5.6562,5.6459,5.6443,5.6452,5.6561,5.6055,5.5469,5.5469,5.4922,5.4336,5.4336,5.4336,5.4336,5.4336,5.4336,5.4297,5.4219,5.4062,5.3789,5.3008,5.2187,5.1562,5.1562,5.1562,5.1562,5.1562,5.1562,5.1562,5.1562,5.1484,5.1406,5.1406,5.1406,5.1406,5.1406,5.1406,5.1406,5.1406,5.1406,5.1406,5.1406,5.1406,5.1445,5.1562,5.1562,5.1992,5.2851,5.2851,5.3242,5.3984,5.4101,5.457,4.9948,5.1169,5.2136,5.2711,5.1944,5.0469,4.8443,4.5855,4.3026,4.0119,3.8354,3.7081,3.6115,3.8546,4.155,4.4128,4.7398,5.0784,5.4049,5.5939,5.7286,5.7973,5.9435,6.0358,6.0358,6.0358,6.0435,6.0556,6.055,6.055,6.055,6.0704,6.0787,6.0787,6.0787,6.0787,6.0787,6.0787,6.0787,6.0787,6.0787,6.0877,6.0977,6.0822,6.0832,6.0974,5.9972,5.9197,5.8591,5.7775,5.7077,5.6561,5.6561,5.6562,5.6601,5.6601,5.6601,5.6601,5.6601,5.6601,5.6601,5.6561,5.6561,5.6561,5.6601,5.6484,5.6367,5.6367,5.6289,5.6133,5.6133,5.6133,5.6133,5.6133,5.6133,5.5937,5.5234,5.4492,5.3945,5.3789,5.3086,5.2461,5.2461,5.2461,5.2461,5.2461,5.2461,5.2461,5.2461,5.1836,5.1406,5.1406,5.1406,5.1406,5.1406,5.1406,5.1406,5.1406,5.1406,5.1406,5.1406,5.1406,5.1758,5.2461,5.2461,5.2891,5.3789,5.3789,5.3867,5.4023,5.4726,5.5156,5.0712,5.1684,5.2373,5.2787,5.1606,4.9486,4.6254,4.3547,4.0666,3.678,3.5315,3.4349,3.3077,3.5965,3.9084,4.0739,4.4239,4.8091,5.1977,5.4362,5.6362,5.8083,5.9781,6.0787,6.0787,6.0787,6.0787,6.0787,6.0787,6.0787,6.0787,6.0787,6.0787,6.0787,6.0787,6.0787,6.0787,6.0787,6.0787,6.0787,6.0787,6.0866,6.1001,6.1001,6.1137,6.1355,6.046,5.9931,5.9595,5.8307,5.7613,5.7226,5.6797,5.6601,5.6601,5.6601,5.6601,5.6601,5.6601,5.6601,5.6601,5.6601,5.6601,5.6601,5.6601,5.6601,5.6601,5.6601,5.6601,5.6601,5.6601,5.6601,5.6601,5.6601,5.6601,5.6484,5.6055,5.5273,5.4687,5.4687,5.3984,5.3398,5.3398,5.3398,5.3398,5.3398,5.3398,5.3203,5.2773,5.2344,5.1914,5.1445,5.1406,5.1562,5.2031,5.207,5.2266,5.2734,5.2734,5.2734,5.2734,5.2734,5.2969,5.3359,5.3398,5.3828,5.4687,5.4687,5.4922,5.5351,5.5781,5.5976,5.0925,5.1795,5.236,5.2316,5.1027,4.8583,4.4136,4.1474,3.8627,3.3891,3.2622,3.2003,3.0885,3.3542,3.6427,3.8007,4.1354,4.5393,5.0053,5.29,5.5434,5.8011,5.9781,6.0787,6.0787,6.0787,6.0787,6.0787,6.0787,6.0787,6.0787,6.0787,6.0787,6.0787,6.0787,6.0787,6.0787,6.0787,6.0816,6.0845,6.0845,6.0945,6.11,6.11,6.127,6.1487,6.0822,6.0493,6.0312,5.8984,5.8203,5.7812,5.7148,5.6758,5.6601,5.6601,5.6601,5.6601,5.6601,5.6601,5.6601,5.6601,5.6601,5.6601,5.6601,5.6601,5.6601,5.6601,5.6601,5.6601,5.6601,5.6601,5.6601,5.6601,5.6601,5.6601,5.6601,5.6055,5.5586,5.5586,5.4883,5.4297,5.4297,5.4297,5.4297,5.4297,5.4297,5.4023,5.3359,5.3086,5.2734,5.2031,5.1601,5.1758,5.2617,5.2695,5.3086,5.3945,5.3984,5.3984,5.3984,5.3984,5.4101,5.4258,5.4297,5.4726,5.5586,5.5586,5.5937,5.6601,5.6601,5.6601,5.0416,5.1337,5.1881,5.1509,5.0145,4.7884,4.3982,4.0585,3.7238,3.3622,3.1695,3.0808,3.1465,3.2506,3.4545,3.8511,4.0777,4.4047,4.9861,5.29,5.5434,5.8011,5.9781,6.0787,6.0787,6.0787,6.0787,6.0787,6.0787,6.0787,6.0787,6.0787,6.0787,6.0787,6.0787,6.0787,6.0787,6.0787,6.0844,6.097,6.097,6.1144,6.1441,6.1441,6.1526,6.1679,6.1601,6.1132,6.039,6.0234,5.9258,5.789,5.7812,5.7305,5.6601,5.6601,5.6601,5.6601,5.6601,5.6601,5.6601,5.6601,5.6601,5.6601,5.6601,5.6601,5.6601,5.6601,5.6601,5.6601,5.6601,5.6601,5.6601,5.6601,5.6601,5.6601,5.6601,5.6523,5.6484,5.6484,5.5781,5.5195,5.5195,5.5195,5.5195,5.5195,5.5195,5.5156,5.5078,5.4375,5.3867,5.3789,5.2344,5.1758,5.2617,5.2695,5.3086,5.3945,5.3984,5.3984,5.3984,5.3984,5.4375,5.5156,5.5195,5.5625,5.6484,5.6484,5.6523,5.6601,5.6601,5.6601,4.9879,5.0915,5.1444,5.1025,4.9296,4.6704,4.3133,3.9658,3.6388,3.3506,3.158,3.05,3.0846,3.1618,3.3237,3.6504,3.7965,4.0619,4.609,4.8625,5.1433,5.5549,5.7478,5.9132,6.0633,6.0787,6.0787,6.0787,6.0787,6.0787,6.0787,6.0787,6.0787,6.0787,6.0882,6.093,6.093,6.1036,6.1147,6.1186,6.1186,6.127,6.1504,6.1504,6.1578,6.1719,6.1719,6.1484,6.1133,6.0625,6.0,5.9297,5.8281,5.7695,5.7305,5.6797,5.6601,5.6601,5.6601,5.6601,5.6601,5.6601,5.6601,5.6601,5.6601,5.6601,5.6601,5.6601,5.6601,5.6601,5.6601,5.6601,5.6601,5.6601,5.6601,5.6601,5.6601,5.6601,5.6601,5.6601,5.6328,5.6094,5.6094,5.6094,5.6094,5.6094,5.6094,5.5898,5.5351,5.5,5.457,5.4062,5.3398,5.332,5.418,5.4258,5.4648,5.5508,5.5547,5.5547,5.5547,5.5547,5.5742,5.6094,5.6094,5.625,5.6601,5.6601,5.6601,5.6601,5.7148,5.7301,4.9205,5.0121,5.0357,5.0312,4.8394,4.5701,4.2504,3.9158,3.5965,3.343,3.158,3.0385,3.0385,3.1118,3.2465,3.4734,3.6234,3.8773,4.3624,4.6009,4.8851,5.3203,5.5247,5.717,5.944,6.0364,6.0787,6.0787,6.0787,6.0787,6.0787,6.0834,6.0839,6.0839,6.0949,6.1031,6.1097,6.123,6.1309,6.1352,6.1352,6.1415,6.1572,6.1572,6.1629,6.1719,6.1719,6.1719,6.164,6.1055,6.0625,6.0273,5.8828,5.8125,5.7773,5.6914,5.6601,5.6601,5.6601,5.6601,5.6601,5.6601,5.6601,5.6601,5.6601,5.6601,5.6601,5.6601,5.6601,5.6601,5.6601,5.6601,5.6601,5.6601,5.6601,5.6601,5.6601,5.6601,5.6601,5.6601,5.6601,5.6601,5.6601,5.6601,5.6601,5.6601,5.6601,5.6367,5.5742,5.5664,5.5469,5.4844,5.4765,5.4922,5.5273,5.5312,5.5664,5.6523,5.6601,5.6601,5.6601,5.6601,5.6601,5.6601,5.6601,5.6719,5.6992,5.6992,5.7109,5.7383,5.7927,5.8207,4.8404,4.8774,4.8351,4.9202,4.7514,4.4936,4.2389,3.9158,3.5965,3.343,3.158,3.0385,3.0385,3.1118,3.2237,3.3933,3.6357,3.9469,4.3701,4.6509,4.9043,5.1615,5.3472,5.5208,5.6868,5.9325,6.0787,6.0787,6.0787,6.0787,6.0787,6.094,6.0997,6.0997,6.1001,6.1105,6.1283,6.1286,6.1359,6.1502,6.1502,6.1576,6.1719,6.1719,6.1719,6.1719,6.1719,6.1719,6.1719,6.168,6.1172,6.0312,5.9492,5.8672,5.7773,5.6914,5.6601,5.6601,5.6601,5.6601,5.6601,5.6601,5.6601,5.6601,5.6601,5.6601,5.6601,5.6601,5.6601,5.6601,5.6601,5.6601,5.6601,5.6601,5.6601,5.6601,5.6601,5.6601,5.6601,5.6601,5.6601,5.6601,5.6601,5.6601,5.6601,5.6601,5.6601,5.6601,5.6601,5.6601,5.6562,5.6562,5.6562,5.6211,5.5351,5.5312,5.5664,5.6523,5.6601,5.6601,5.6601,5.6601,5.6601,5.6601,5.6601,5.7031,5.789,5.789,5.832,5.918,5.8995,5.916,4.2962,4.3974,4.4316,4.2859,4.1897,4.0627,3.8081,3.6196,3.443,3.2468,3.1195,3.0385,3.0385,3.0615,3.2118,3.6122,3.7469,3.9469,4.3701,4.6509,4.9043,5.1615,5.5972,5.9011,5.9556,6.0325,6.0787,6.0787,6.0787,6.0839,6.0911,6.1,6.1001,6.1001,6.1223,6.1385,6.146,6.1519,6.1585,6.1635,6.1635,6.1677,6.1719,6.1719,6.1719,6.1719,6.1719,6.1719,6.1719,6.1719,6.1523,6.1211,6.0351,5.9844,5.9492,5.8672,5.8398,5.8281,5.7695,5.75,5.7383,5.6797,5.6601,5.6601,5.6601,5.6601,5.6601,5.6601,5.6601,5.6601,5.6601,5.6601,5.6601,5.6601,5.6601,5.6601,5.6601,5.6601,5.6601,5.6601,5.6601,5.6601,5.6601,5.6601,5.6601,5.6601,5.6601,5.6601,5.6601,5.6601,5.6601,5.6601,5.6601,5.6484,5.6211,5.6172,5.6328,5.6562,5.6601,5.6601,5.6601,5.6601,5.6601,5.6601,5.6601,5.7031,5.789,5.776,5.8384,5.9728,5.9551,5.9875,3.9392,4.0589,4.0854,3.9627,3.8819,3.7815,3.5923,3.4584,3.3317,3.1968,3.1003,3.0385,3.0385,3.0923,3.2503,3.6007,3.7665,3.9738,4.3355,4.6317,4.9274,5.2505,5.6703,5.9517,5.9819,6.0465,6.0876,6.0876,6.0968,6.1014,6.1116,6.1154,6.1191,6.1191,6.1402,6.1516,6.1579,6.1677,6.1719,6.1719,6.1719,6.1719,6.1719,6.1719,6.1719,6.1719,6.1719,6.1719,0.0,6.1719,6.1719,6.1601,6.0742,6.039,6.0312,5.9492,5.9219,5.9101,5.8594,5.8398,5.8281,5.7773,5.7344,5.7031,5.6719,5.6601,5.6601,5.6601,5.6601,5.6601,5.6601,5.6601,5.6601,5.6601,5.6601,5.6601,5.6601,5.6601,5.6601,5.6601,5.6601,5.6601,5.6601,5.6601,5.6601,5.6601,5.6601,5.6601,5.6601,5.6601,5.6601,5.6601,5.6601,5.6601,5.6601,5.6601,5.6601,5.6601,5.6601,5.6601,5.6601,5.6601,5.6758,5.707,5.7109,5.7655,5.878,5.8916,5.9467,6.0363,6.0238,6.044,0.0,3.8049,3.7738,3.8473,3.7507,3.6119,3.5308,3.3926,0.0,3.1772,3.0962,3.0462,3.0654,3.1849,3.3237,3.4548,3.7357,4.0319,4.3008,4.6355,5.0125,5.4357,5.6307,5.7588,5.8424,6.0031,6.1023,6.1023,6.1197,6.1292,6.1301,6.1417,6.1505,6.1511,6.1511,6.1578,6.1719,6.1719,6.1719,6.1719,6.1719,6.1719,6.1719,6.1719,6.1719,6.1719,6.1719,6.1719,6.1719,6.1719,6.1719,6.1601,6.082,6.0508,6.039,5.9648,5.9375,5.9375,5.9297,5.9297,5.9297,5.9219,5.8594,5.7734,5.6953,5.664,5.6601,5.6601,5.6601,5.6601,5.6601,5.6601,5.6601,5.6601,5.6601,5.6601,5.6601,5.6601,5.6601,5.6601,5.6601,5.6601,5.6601,5.6601,5.6601,5.6601,5.6601,5.6601,5.6601,5.6601,5.6601,5.6601,5.6601,5.6601,5.6601,5.6601,5.6601,5.6601,5.664,5.668,5.668,5.6758,5.7187,5.7969,5.8047,5.8778,6.0155,6.0908,6.1179,6.0975,6.0975,6.0925,2.9997,0.0,3.308,3.2619,3.2695,3.2657,0.0,3.1811,3.1734,3.0885,3.0538,3.1,3.2929,3.2583,3.3734,3.9158,4.0127,4.1589,4.5466,5.0048,5.4318,5.7896,5.9369,6.0146,6.0335,6.0887,6.123,6.123,6.1265,6.1336,6.1467,6.1493,6.1567,6.1637,6.1637,6.1678,6.1719,6.1719,6.1719,6.1719,6.1719,6.1719,6.1719,6.1719,6.1719,6.1719,6.1719,6.1719,6.1719,6.1719,6.1719,6.168,6.1484,6.1406,6.1367,6.1172,6.1094,6.1015,6.0351,6.0117,6.0039,5.9414,5.8594,5.7851,5.7656,5.7148,5.6601,5.6601,5.6601,5.6601,5.6601,5.6601,5.6601,5.6601,5.6601,5.6601,5.6601,5.6601,5.6601,5.6601,5.6601,5.6601,5.6601,5.6601,5.6601,5.6601,5.6601,5.6601,5.6601,5.6601,5.6601,5.6601,5.6601,5.6601,5.6601,5.6601,5.6601,5.6601,5.7226,5.7578,5.7578,5.8242,5.8672,5.8906,5.9398,5.9695,5.9816,6.067,6.1,6.085,6.085,6.0817,2.7082,2.9467,3.158,3.1118,3.1618,3.2122,3.1657,3.1311,3.0962,3.05,3.0731,3.1542,3.3279,3.3814,3.5465,3.9931,4.155,4.4167,4.9625,5.3433,5.6801,5.9817,6.0688,6.104,6.1135,6.1304,6.1383,6.1383,6.1469,6.1512,6.1583,6.1584,6.1632,6.1719,6.1719,6.1719,6.1719,6.1719,6.1719,6.1719,6.1719,6.1719,6.1719,6.1719,6.1719,6.1719,6.1719,6.1719,6.1719,6.1719,6.1719,6.1719,6.1719,6.1719,6.1719,6.1719,6.1719,6.164,6.1172,6.1015,6.0859,6.0039,5.918,5.8437,5.8008,5.7305,5.6601,5.6601,5.6601,5.6601,5.6601,5.6601,5.6601,5.6601,5.6601,5.6601,5.6601,5.6601,5.6601,5.6601,5.6601,5.6719,5.7148,5.7187,5.7187,5.7187,5.7187,5.7031,5.664,5.6601,5.6601,5.6601,5.6601,5.6601,5.6601,5.6953,5.7187,5.7187,5.7656,5.8086,5.8476,5.8945,5.9335,5.9635,6.027,6.0475,6.0291,6.0727,6.0866,6.0787,6.0787,6.0787,2.6849,2.958,3.1968,3.1429,3.2199,3.3045,3.2776,3.1695,3.0769,3.0769,3.1465,3.2468,3.366,3.5622,3.7853,4.0089,4.328,4.7658,5.385,5.6202,5.8201,6.0721,6.1042,6.113,6.1309,6.1432,6.152,6.152,6.1634,6.1719,6.1719,6.1719,6.1719,6.1719,6.1719,6.1719,6.1719,6.1719,6.1719,6.1719,6.1719,6.1719,6.1719,6.1719,6.1719,6.1719,6.1719,6.1719,6.1719,6.1719,6.1719,6.1719,6.1719,6.1719,6.1719,6.1719,6.1719,6.1719,6.1719,6.1719,6.1562,6.0664,5.9844,5.9023,5.8164,5.7305,5.6601,5.6601,5.6601,5.6601,5.6601,5.6601,5.6601,5.6601,5.6601,5.6601,5.6601,5.6601,5.664,5.6758,5.6797,5.707,5.7969,5.8086,5.8086,5.8086,5.8086,5.7812,5.7109,5.6992,5.6992,5.6992,5.6992,5.6992,5.6992,5.7656,5.8164,5.8281,5.8281,5.8672,5.953,5.9569,5.9788,6.0291,6.0752,6.0984,6.0986,6.0872,6.0787,6.0787,6.0787,6.0787,2.9,3.1775,3.3125,3.0201,3.1778,3.3625,3.2199,3.2199,3.2506,3.2506,3.3202,3.4741,3.7742,3.8627,4.0396,4.5004,4.8674,5.2124,5.5327,5.7296,5.9137,6.1016,6.1361,6.1428,6.1481,6.1584,6.1678,6.1678,6.1679,6.1719,6.1719,6.1719,6.1719,6.1719,6.1719,6.1719,6.1719,6.1719,6.1719,6.1719,6.1719,6.1719,6.1719,6.1719,6.1719,6.1719,6.1719,6.1719,6.1719,6.1719,6.1719,6.1719,6.1719,6.1719,6.1719,6.1719,6.1719,6.1719,6.1719,6.1719,6.1562,6.0664,5.9844,5.9023,5.8164,5.7305,5.6601,5.6601,5.6601,5.6601,5.6601,5.6601,5.6601,5.6601,5.6601,5.6601,5.6601,5.6601,5.6836,5.7578,5.7695,5.7969,5.8867,5.8984,5.8984,5.8984,5.8984,5.8945,5.8828,5.8789,5.8789,5.8789,5.8789,5.8789,5.8789,5.8906,5.9297,5.9961,6.0039,6.0347,6.1131,6.1167,6.1051,6.0872,6.0958,6.0935,6.0817,6.081,6.0787,6.0787,6.0787,6.0787,2.7808,3.0544,3.2586,3.1432,3.4395,3.7284,3.6087,3.5738,3.5661,3.5661,3.6357,3.7549,3.9592,4.105,4.3662,4.8774,5.1824,5.4451,5.6993,5.8522,5.989,6.1236,6.1478,6.1519,6.1587,6.1677,6.1719,6.1719,6.1719,6.1719,6.1719,6.1719,6.1719,6.1719,6.1719,6.1719,6.1719,6.1719,6.1719,6.1719,6.1719,6.1719,6.1719,6.1719,6.1719,6.1719,6.1719,6.1719,6.1719,6.1719,6.1719,6.1719,6.1719,6.1719,6.1719,6.1719,6.1719,6.1719,6.1719,6.1719,6.1562,6.0664,5.9844,5.9023,5.8164,5.7305,5.6601,5.6601,5.6601,5.6601,5.6601,5.6601,5.6601,5.6601,5.6601,5.6601,5.6601,5.6953,5.7422,5.7812,5.8281,5.8867,5.9687,5.9844,5.9844,5.9844,5.9844,5.9687,5.9258,5.9219,5.9219,5.9219,5.9219,5.9219,5.9219,5.9609,6.0,6.039,6.0774,6.1144,6.1505,6.1315,6.1158,6.1006,6.0945,6.0844,6.0787,6.0787,6.0787,6.0787,6.0787,6.0787,2.7349,2.9849,3.2314,3.3737,3.6857,3.9588,3.9588,3.8934,3.8469,3.9084,3.9896,4.0666,4.1281,4.382,4.7267,5.1833,5.43,5.6393,5.8595,5.9755,6.0683,6.1444,6.1566,6.1583,6.1679,6.1719,6.1719,6.1719,6.1719,6.1719,6.1719,6.1719,6.1719,6.1719,6.1719,6.1719,6.1719,6.1719,6.1719,6.1719,6.1719,6.1719,6.1719,6.1719,6.1719,6.1719,6.1719,6.1719,6.1719,6.1719,6.1719,6.1719,6.1719,6.1719,6.1719,6.1719,6.1719,6.1719,6.1719,6.1719,6.1562,6.0664,5.9844,5.9023,5.8164,5.7305,5.6601,5.6601,5.6758,5.6914,5.6914,5.6914,5.6914,5.6914,5.6914,5.6914,5.6914,5.7422,5.8008,5.8398,5.9023,5.9726,6.0547,6.0703,6.0703,6.0703,6.0703,6.0469,5.9844,5.9805,5.9805,5.9805,5.9805,5.9805,5.9805,6.0351,6.0703,6.0661,6.118,6.1495,6.1434,6.1158,6.0975,6.0954,6.0867,6.0787,6.0787,6.0787,6.0787,6.0787,6.0787,6.0787,3.0234,3.2045,3.3583,3.6815,3.7311,3.7581,3.9896,3.9785,3.9896,4.2239,4.3393,4.3974,4.4013,4.7437,5.1182,5.4045,5.6683,5.881,5.9921,6.0921,6.1601,6.1679,6.1679,6.1679,6.1719,6.1719,6.1719,6.1719,6.1719,6.1719,6.1719,6.1719,6.1719,6.1719,6.1719,6.1719,6.1719,6.1719,6.1719,6.1719,6.1719,6.1719,6.1719,6.1719,6.1719,6.1719,6.1719,6.1719,6.1719,6.1719,6.1719,6.1719,6.1719,6.1719,6.1719,6.1719,6.1719,6.1719,6.1719,6.1719,6.1562,6.0664,5.9844,5.9023,5.8164,5.7305,5.6601,5.6601,5.7187,5.7812,5.7812,5.7812,5.7812,5.7812,5.7812,5.7812,5.7812,5.7851,5.8359,5.9922,6.0273,6.0586,6.1445,6.1601,6.1601,6.1601,6.1601,6.1601,6.1523,6.1523,6.1523,6.1523,6.1523,6.1523,6.1523,6.1562,6.1558,6.1437,6.1468,6.1426,6.1309,6.1124,6.093,6.0821,6.0798,6.0787,6.0787,6.0787,6.0787,6.0787,6.0787,6.0787,2.8582,3.1083,3.3583,3.6465,3.8123,3.9588,4.1666,4.3124,4.4586,4.6586,4.7706,4.8283,4.8283,5.001,5.2338,5.5072,5.7282,5.9253,6.0792,6.1396,6.1719,6.1719,6.1719,6.1719,6.1719,6.1719,6.1719,6.1719,6.1719,6.1719,6.1719,6.1719,6.1719,6.1719,6.1719,6.1719,6.1719,6.1719,6.1719,6.1719,6.1719,6.1719,6.1719,6.1719,6.1719,6.1719,6.1719,6.1719,6.1719,6.1719,6.1719,6.1719,6.1719,6.1719,6.1719,6.1719,6.1719,6.1719,6.1719,6.1719,6.1562,6.0664,5.9844,5.9023,5.8164,5.7305,5.6601,5.6601,5.7226,5.789,5.789,5.8281,5.8711,5.8711,5.8711,5.8711,5.8711,5.9101,5.9648,6.0273,6.0859,6.1328,6.164,6.1719,6.1719,6.1719,6.1719,6.1719,6.1719,6.1719,6.1719,6.1719,6.1719,6.1719,6.1719,6.1632,6.153,6.1505,6.1409,6.1306,6.1132,6.0978,6.0861,6.0787,6.0787,6.0787,6.0787,6.0787,6.0787,6.0787,6.0787,6.0787,2.8275,3.0968,3.393,3.6465,3.8819,4.1166,4.3739,4.5658,4.7543,4.974,5.0476,5.0861,5.1399,5.1737,5.2962,5.5984,5.7742,5.9422,6.1293,6.1636,6.1719,6.1719,6.1719,6.1719,6.1719,6.1719,6.1719,6.1719,6.1719,6.1719,6.1719,6.1719,6.1719,6.1719,6.1719,6.1719,6.1719,6.1719,6.1719,6.1719,6.1719,6.1719,6.1719,6.1719,6.1719,6.1719,6.1719,6.1719,6.1719,6.1719,6.1719,6.1719,6.1719,6.1719,6.1719,6.1719,6.1719,6.1719,6.1719,6.1719,6.1601,6.1015,6.0234,5.9414,5.8555,5.7695,5.6992,5.6992,5.7422,5.8008,5.8555,5.914,5.9492,5.9258,5.9375,5.957,5.957,6.0,6.0469,6.0742,6.1289,6.1719,6.1719,6.1719,6.1719,6.1719,6.1719,6.1719,6.1719,6.1719,6.1719,6.1719,6.1719,6.1679,6.1635,6.157,6.1441,6.1334,6.1274,6.115,6.1006,6.091,6.0845,6.0787,6.0839,6.0839,6.0787,6.0787,6.0787,6.0787,6.0787,6.0787,3.0154,3.2275,3.4818,3.7392,3.9281,4.1666,4.5966,4.6928,4.7889,5.1231,5.1318,5.1246,5.2895,5.261,5.3307,5.6897,5.8295,5.9578,6.1445,6.1719,6.1719,6.1719,6.1719,6.1719,6.1719,6.1719,6.1719,6.1719,6.1719,6.1719,6.1719,6.1719,6.1719,6.1719,6.1719,6.1719,6.1719,6.1719,6.1719,6.1719,6.1719,6.1719,6.1719,6.1719,6.1719,6.1719,6.1719,6.1719,6.1719,6.1719,6.1719,6.1719,6.1719,6.1719,6.1719,6.168,6.168,6.168,6.168,6.168,6.168,6.1719,6.1094,6.0234,5.9453,5.8594,5.789,5.789,5.789,5.8281,5.9961,6.039,6.0195,5.9414,5.9844,6.039,6.039,6.039,6.0664,6.1523,6.1719,6.1719,6.1719,6.1719,6.1719,6.1719,6.1719,6.1719,6.1719,6.1719,6.1719,6.1719,6.1719,6.1636,6.1509,6.1502,6.1378,6.1031,6.1006,6.1001,6.1001,6.1001,6.0925,6.0793,6.0916,6.0916,6.0787,6.0787,6.0787,6.0787,6.0787,6.0787,2.9583,3.2237,3.5734,3.828,4.1512,4.4898,4.7971,4.9125,5.0515,5.3895,5.3933,5.351,5.401,5.4001,5.4696,5.7092,5.8295,5.9578,6.1445,6.1719,6.1719,6.1719,6.1719,6.1719,6.1719,6.1719,6.1719,6.1719,6.1719,6.1719,6.1719,6.1719,6.1719,6.1719,6.1719,6.1719,6.1719,6.1719,6.1719,6.1719,6.1719,6.1719,6.1719,6.1719,6.1719,6.1719,6.1719,6.1719,6.1719,6.1719,6.1719,6.1719,6.1719,6.1719,6.164,6.1015,6.0781,6.0781,6.0781,6.0781,6.0898,6.1484,6.1094,6.0234,5.9453,5.9023,5.8672,5.8086,5.875,5.9648,5.957,6.043,6.125,6.1015,6.1133,6.1328,6.1328,6.1328,6.1406,6.164,6.1719,6.1719,6.1719,6.1719,6.1719,6.1719,6.1719,6.1719,6.1719,6.1719,6.1719,6.1719,6.163,6.1526,6.1505,6.1402,6.1315,6.122,6.1214,6.1154,6.1006,6.1001,6.0966,6.093,6.0966,6.0916,6.0787,6.0787,6.0787,6.0787,6.0787,6.0787,3.2394,3.5007,3.8161,4.1089,4.3709,4.6513,5.0087,5.1587,5.2861,5.5208,5.5054,5.4587,5.4934,5.4886,5.5356,5.717,5.805,5.9012,6.0508,6.0703,6.082,6.1133,6.1172,6.1328,6.168,6.1719,6.1719,6.1719,6.1719,6.1719,6.1719,6.1719,6.1719,6.1719,6.1719,6.1719,6.1719,6.1719,6.1719,6.1719,6.1719,6.1719,6.1719,6.1719,6.1719,6.1719,6.1719,6.1719,6.1719,6.1719,6.1719,6.1719,6.1719,6.1484,6.1133,6.0586,6.0195,5.9922,5.9922,6.0117,6.0508,6.1015,6.1055,6.0742,5.9922,5.9687,5.957,5.9023,5.9375,5.9961,6.0156,6.0703,6.1172,6.1172,6.1445,6.1719,6.1719,6.1719,6.1719,6.1719,6.1719,6.1719,6.1719,6.1719,6.1719,6.1719,6.1719,6.1679,6.1633,6.1631,6.1587,6.1566,6.1512,6.149,6.1411,6.1385,6.1349,6.1289,6.1286,6.1243,6.1132,6.1128,6.1089,6.1001,6.1001,6.0916,6.0787,6.0787,6.0787,6.0787,6.0787,6.0787,3.6815,3.905,4.1324,4.4748,4.5898,4.7398,5.2125,5.3857,5.4741,5.5516,5.5131,5.4818,5.5555,5.5339,5.5538,5.7136,5.7695,5.8203,5.9062,5.9219,5.9453,6.0195,6.0273,6.0586,6.1406,6.1484,6.1484,6.1484,6.1484,6.1484,6.1484,6.1523,6.1562,6.1562,6.164,6.1719,6.1719,6.1719,6.1719,6.1719,6.1601,6.1601,6.1719,6.1719,6.1719,6.1719,6.1601,6.1562,6.1562,6.1484,6.1484,6.1484,6.1484,6.0976,6.0273,6.0195,5.9765,5.9219,5.9219,5.9726,6.039,6.0508,6.1055,6.1523,6.0664,6.0469,6.0508,6.043,5.9922,5.9765,6.1289,6.1094,6.0508,6.0508,6.1133,6.1719,6.1719,6.1719,6.1719,6.1719,6.1719,6.1719,6.1719,6.1719,6.1719,6.1719,6.1719,6.1677,6.1521,6.1514,6.1485,6.1341,6.1419,6.1432,6.1318,6.1415,6.1469,6.1315,6.1306,6.1306,6.1306,6.1295,6.1207,6.1006,6.1001,6.0916,6.0787,6.0787,6.0787,6.0787,6.0787,6.0787,3.4818,3.7707,4.1324,4.4748,4.8086,5.1005,5.2774,5.3857,5.4741,5.5516,5.5555,5.5478,5.567,5.58,5.6236,5.7253,5.7695,5.8203,5.9062,5.9219,5.9258,5.9453,5.9453,5.9531,5.9726,5.9726,5.9726,5.9726,5.9726,5.9726,5.9726,6.0351,6.0664,6.0664,6.1328,6.1719,6.1719,6.1719,6.1719,6.168,6.1015,6.1055,6.1719,6.1719,6.1719,6.164,6.0976,6.0664,6.0625,6.0,5.9726,5.9726,5.9726,5.9609,5.9375,5.8672,5.875,5.9219,5.9219,5.9726,6.0508,6.1211,6.1562,6.1523,6.0664,6.0898,6.1289,6.0586,6.0781,6.125,6.1601,6.1562,6.1406,6.1406,6.1562,6.1719,6.1719,6.1719,6.1719,6.1719,6.1719,6.1719,6.1719,6.1719,6.1719,6.1719,6.1719,6.1679,6.1677,6.1677,6.1636,6.1631,6.1566,6.1496,6.1476,6.1493,6.1496,6.1476,6.1474,6.1474,6.1474,6.1347,6.1207,6.1006,6.1001,6.0916,6.0787,6.0787,6.0787,6.0787,6.0787,6.0787,3.5972,3.8819,4.2047,4.5855,4.9351,5.2,5.2467,5.3236,5.401,5.4434,5.5126,5.5707,5.5794,5.6019,5.6371,5.6821,5.7124,5.7422,5.789,5.7969,5.8125,5.8515,5.8594,5.875,5.914,5.9219,5.9219,5.9219,5.9219,5.9219,5.9219,5.9609,5.9844,5.9844,6.0273,6.0508,6.0508,6.0508,6.0508,6.0508,6.0039,6.0078,6.0508,6.0898,6.1094,6.1015,6.0195,5.9844,5.9805,5.9375,5.9219,5.9219,5.9219,5.8945,5.8555,5.8555,5.8281,5.8008,5.8437,5.914,5.9883,6.0351,6.1055,6.1601,6.1172,6.1328,6.1601,6.1133,6.1367,6.1719,6.1719,6.1719,6.1719,6.1719,6.1719,6.1719,6.1719,6.1719,6.1719,6.1719,6.1719,6.1719,6.1719,6.1719,6.1719,6.1719,6.1719,6.1679,6.1629,6.1588,6.158,6.1512,6.1505,6.1504,6.1504,6.1572,6.1576,6.1505,6.1504,6.1426,6.1267,6.1178,6.1116,6.1001,6.0925,6.0866,6.0787,6.0787,6.0787,6.0787,6.0787,6.0787,3.6741,3.9854,4.285,4.7235,4.9928,5.1543,5.1846,5.2467,5.3005,5.3159,5.4434,5.5522,5.5689,5.5968,5.6237,5.6377,5.6513,5.6601,5.6601,5.6601,5.6875,5.7578,5.7695,5.7969,5.8672,5.875,5.875,5.875,5.875,5.875,5.875,5.8906,5.8984,5.8984,5.9101,5.9219,5.9219,5.9219,5.9219,5.9219,5.9219,5.9101,5.8984,5.9648,6.0039,6.0156,5.9336,5.8984,5.8945,5.8828,5.875,5.875,5.875,5.832,5.7773,5.8633,5.8047,5.6953,5.7812,5.8672,5.9414,5.9414,6.0469,6.1719,6.1719,6.1719,6.1719,6.1719,6.1719,6.1719,6.1719,6.1719,6.1719,6.1719,6.1719,6.1719,6.1719,6.1719,6.1719,6.1719,6.1719,6.1719,6.1719,6.1719,6.1719,6.1719,6.1719,6.1677,6.1567,6.1521,6.1498,6.1373,6.1483,6.1521,6.1521,6.1634,6.1636,6.1508,6.149,6.131,6.1019,6.0961,6.0977,6.0977,6.0872,6.0787,6.0787,6.0787,6.0787,6.0787,6.0787,6.0787,3.2122,3.7157,4.3004,4.7971,4.9471,5.0125,5.1582,5.2,5.2274,5.3044,5.3972,5.4713,5.485,5.5586,5.6237,5.6377,5.6513,5.6601,5.6601,5.6601,5.664,5.6758,5.6758,5.6836,5.6953,5.6953,5.6953,5.6953,5.6953,5.6953,5.6953,5.7656,5.8086,5.8086,5.8828,5.9219,5.9219,5.9219,5.9219,5.9219,5.9219,5.8789,5.8086,5.8164,5.8633,5.9297,5.8437,5.8086,5.8008,5.7265,5.6953,5.6953,5.6953,5.6875,5.6875,5.7734,5.793,5.7851,5.8711,5.957,6.0234,6.0234,6.0898,6.1719,6.1719,6.1719,6.1719,6.1719,6.1719,6.1719,6.1719,6.1719,6.1719,6.1719,6.1719,6.1719,6.1719,6.1719,6.1719,6.1719,6.1719,6.1719,6.1719,6.1719,6.1719,6.1719,6.1719,6.1679,6.1679,6.1678,6.1678,6.1636,6.1677,6.1678,6.1678,6.1679,6.1636,6.1508,6.1383,6.1237,6.101,6.0902,6.0844,6.0844,6.0804,6.0787,6.0787,6.0787,6.0787,6.0787,6.0787,6.0787,3.4007,3.8815,4.3389,4.7086,4.8355,4.9009,5.024,5.0505,5.0741,5.1625,5.2506,5.3365,5.3961,5.4497,5.5074,5.5686,5.5818,5.6055,5.6523,5.6601,5.6601,5.6601,5.6601,5.6601,5.6601,5.6601,5.6601,5.6601,5.6601,5.6601,5.6601,5.6953,5.7187,5.7187,5.7539,5.7734,5.7734,5.7734,5.7734,5.7734,5.7734,5.7539,5.7187,5.7187,5.7656,5.8437,5.7539,5.7187,5.7148,5.6758,5.6601,5.6601,5.6601,5.6601,5.6719,5.7578,5.7578,5.7305,5.8164,5.8711,5.9062,5.957,6.0273,6.1055,6.1562,6.1719,6.1719,6.1719,6.1719,6.1719,6.1719,6.1719,6.1719,6.1719,6.1719,6.1719,6.1719,6.1719,6.1719,6.1719,6.1719,6.1719,6.1719,6.1719,6.1719,6.1719,6.1719,6.1719,6.1719,6.1719,6.1719,6.1719,6.1719,6.1678,6.1585,6.1583,6.1463,6.1238,6.1147,6.1044,6.0874,6.0817,6.0787,6.0787,6.0787,6.0787,6.0787,6.0787,6.0787,6.0787,6.0787,6.0787,3.4737,3.8392,4.1393,4.5043,4.6543,4.7471,4.8779,4.9086,4.9317,5.0207,5.0982,5.1813,5.2785,5.3403,5.4066,5.4843,5.4961,5.5195,5.5859,5.5937,5.5937,5.5937,5.6133,5.6289,5.6289,5.6484,5.6601,5.6601,5.6601,5.6601,5.6601,5.6601,5.6601,5.6601,5.6601,5.6601,5.6601,5.6601,5.6601,5.6601,5.6601,5.6601,5.6601,5.6601,5.6953,5.7539,5.6875,5.6601,5.6601,5.6601,5.6601,5.6601,5.6601,5.6601,5.6719,5.7578,5.7344,5.6719,5.7617,5.789,5.8008,5.8672,5.9414,6.0234,6.0859,6.1055,6.1094,6.1328,6.1367,6.1406,6.164,6.1719,6.1719,6.1719,6.1719,6.1719,6.1719,6.1719,6.1719,6.1719,6.1719,6.1719,6.1719,6.1719,6.1719,6.1719,6.1719,6.1719,6.1719,6.1719,6.1719,6.1719,6.1719,6.1636,6.1509,6.1504,6.1378,6.1031,6.1001,6.093,6.0798,6.0787,6.0787,6.0787,6.0787,6.0787,6.0787,6.0787,6.0787,6.0787,6.0787,6.0787,3.0811,3.2699,3.5007,4.1662,4.3893,4.5124,4.7625,4.8159,4.8394,4.9279,4.9709,5.0201,5.1052,5.2623,5.3871,5.4023,5.4062,5.4062,5.4141,5.4141,5.4141,5.4141,5.4844,5.5351,5.5351,5.6133,5.6601,5.6601,5.6601,5.6601,5.6601,5.6601,5.6601,5.6601,5.6601,5.6601,5.6601,5.6601,5.6601,5.6601,5.6601,5.6601,5.6601,5.6601,5.6601,5.668,5.6601,5.6601,5.6601,5.6601,5.6601,5.6601,5.6601,5.6601,5.6719,5.7578,5.7344,5.6719,5.7617,5.789,5.789,5.7969,5.8555,5.9258,5.9336,5.9336,5.9492,6.0234,6.0469,6.0664,6.1484,6.1719,6.1719,6.1719,6.1719,6.1719,6.1719,6.1719,6.1719,6.1719,6.1719,6.1719,6.1719,6.1719,6.1719,6.1719,6.1719,6.1719,6.1719,6.1719,6.1719,6.1719,6.1719,6.1636,6.1509,6.1504,6.1378,6.1031,6.1001,6.093,6.0798,6.0787,6.0787,6.0787,6.0787,6.0787,6.0787,6.0787,6.0787,6.0787,6.0787,6.0787,3.0,3.1465,3.3237,3.785,4.0431,4.2397,4.4432,4.6158,4.7584,4.8495,4.8854,4.9255,5.0212,5.1412,5.2456,5.3086,5.3164,5.3359,5.3906,5.3984,5.3984,5.3984,5.4297,5.4453,5.4453,5.5234,5.5781,5.5781,5.6289,5.6601,5.6601,5.6601,5.6601,5.6601,5.6601,5.6601,5.6601,5.6601,5.6601,5.6601,5.6601,5.6601,5.6601,5.6601,5.6601,5.6601,5.6601,5.6601,5.6601,5.6601,5.6601,5.6601,5.6601,5.6601,5.664,5.6953,5.6875,5.664,5.6953,5.707,5.7148,5.7734,5.8125,5.8476,5.9023,5.9219,5.9375,6.0156,6.039,6.0586,6.1484,6.1719,6.1719,6.1719,6.1719,6.1719,6.1719,6.1719,6.1719,6.1719,6.1719,6.1719,6.1719,6.1719,6.1719,6.1719,6.1719,6.1719,6.1719,6.1719,6.1719,6.1719,6.1719,6.1636,6.1509,6.1409,6.128,6.1019,6.0925,6.0861,6.0787,6.0787,6.0787,6.0787,6.0787,6.0787,6.0787,6.0787,6.0787,6.0787,6.0787,6.0787,2.8577,2.9772,3.1429,3.5657,3.7546,3.9281,4.2701,4.4389,4.5625,4.7079,4.7735,4.836,4.9322,5.0061,5.0937,5.207,5.2266,5.2461,5.3047,5.3125,5.3125,5.3125,5.3398,5.3555,5.3555,5.4336,5.4844,5.4844,5.539,5.5742,5.5742,5.6015,5.6289,5.6601,5.6601,5.6601,5.6601,5.6601,5.6601,5.6601,5.6601,5.6601,5.6601,5.6601,5.6601,5.6601,5.6601,5.6601,5.6601,5.6601,5.6601,5.6601,5.6601,5.6601,5.6601,5.6601,5.6601,5.6601,5.6601,5.6601,5.6719,5.7265,5.7461,5.7578,5.8164,5.832,5.8555,5.9687,6.0,6.0273,6.1406,6.1719,6.1719,6.1719,6.1719,6.1719,6.1719,6.1719,6.1719,6.1719,6.1719,6.1719,6.1719,6.1719,6.1719,6.1719,6.1719,6.1719,6.1719,6.1719,6.1719,6.1719,6.1719,6.1633,6.1469,6.1344,6.119,6.0935,6.0856,6.0787,6.0787,6.0787,6.0787,6.0787,6.0787,6.0787,6.0787,6.0787,6.0787,6.0787,6.0787,6.0787,0.0,0.0,0.0,3.4965,3.5238,3.5818,4.2474,4.2777,4.2393,4.4992,4.6358,4.733,4.8306,4.8676,4.9414,5.1055,5.1367,5.1367,5.1406,5.1406,5.1406,5.1406,5.2148,5.2656,5.2656,5.3437,5.3945,5.3945,5.3984,5.3984,5.3984,5.4844,5.5703,5.6523,5.6601,5.6601,5.6601,5.6601,5.6601,5.6601,5.6601,5.6601,5.6601,5.6601,5.6601,5.6601,5.6601,5.6601,5.6601,5.6601,5.6601,5.6601,5.6601,5.6601,5.6601,5.6601,5.6601,5.6601,5.6601,5.6601,5.6601,5.6601,5.6601,5.6601,5.6601,5.6601,5.6953,5.8711,5.9219,5.9609,6.125,6.1719,6.1719,6.1719,6.1719,6.1719,6.1719,6.1719,6.1719,6.1719,6.1719,6.1719,6.1719,6.1719,6.1719,6.1719,6.1719,6.1719,6.1719,6.1719,6.1719,6.1719,6.1719,6.1584,6.1318,6.1289,6.1174,6.0839,6.0787,6.0787,6.0787,6.0787,6.0787,6.0787,6.0787,6.0787,6.0787,6.0787,6.0787,6.0787,6.0787,6.0787,2.5769,0.0,0.0,0.0,0.0,0.0,3.6164,3.7584,3.921,4.3178,4.3752,4.439,4.7322,4.7927,4.832,4.9414,5.0117,5.0742,5.1328,5.1406,5.1406,5.1406,5.1601,5.1758,5.1758,5.2539,5.3047,5.3047,5.3633,5.3984,5.3984,5.4844,5.539,5.5664,5.6289,5.6601,5.6601,5.6601,5.6601,5.6601,5.6601,5.6601,5.6601,5.6601,5.6601,5.6601,5.6601,5.6601,5.6601,5.6601,5.6601,5.6601,5.6601,5.6601,5.6601,5.6601,5.6601,5.6601,5.6601,5.6601,5.6601,5.6601,5.6601,5.6601,5.6601,5.6601,5.6953,5.8711,5.9219,5.9609,6.125,6.1719,6.1719,6.1719,6.1719,6.1719,6.1719,6.1719,6.1719,6.1719,6.1719,6.1719,6.1719,6.1719,6.1719,6.1719,6.1719,6.1719,6.1719,6.1719,6.1719,6.1719,6.1719,6.1633,6.1476,6.1347,6.1193,6.0959,6.0867,6.0787,6.0787,6.0787,6.0787,6.0787,6.0787,6.0787,6.0787,6.0787,6.0787,6.0787,6.0787,6.0787,2.7118,2.7274,2.8008,2.939,0.0,0.0,3.4968,3.6007,3.7346,4.1349,4.2135,4.2861,4.5394,4.6205,4.6797,4.7656,4.8555,4.9414,5.0234,5.0351,5.0508,5.0859,5.0898,5.1016,5.1367,5.1875,5.2148,5.2148,5.2617,5.3086,5.3437,5.4297,5.4922,5.5273,5.6133,5.6601,5.6601,5.6601,5.6601,5.6601,5.6601,5.6601,5.6601,5.6601,5.6601,5.6601,5.6601,5.6601,5.6601,5.6601,5.6601,5.6601,5.6601,5.6601,5.6601,5.6601,5.6601,5.6601,5.6601,5.6601,5.6601,5.6601,5.6601,5.6601,5.6601,5.6601,5.6953,5.8711,5.9687,6.0469,6.1445,6.1719,6.1719,6.1719,6.1719,6.1719,6.1719,6.1719,6.1719,6.1719,6.1719,6.1719,6.1719,6.1719,6.1719,6.1719,6.1719,6.1719,6.1719,6.1719,6.1719,6.1719,6.1637,6.1574,6.1415,6.128,6.1097,6.094,6.0845,6.0787,6.0787,6.0787,6.0787,6.0787,6.0787,6.0787,6.0787,6.0787,6.0787,6.0787,6.0787,6.0787,2.9778,2.9662,3.047,3.324,3.2429,0.0,3.6315,3.6234,3.6126,3.9314,4.0657,4.1558,4.2654,4.3672,4.4647,4.5468,4.6484,4.7578,4.875,4.8906,4.918,4.9961,5.0078,5.0351,5.1172,5.1289,5.1289,5.1406,5.1406,5.1758,5.25,5.3398,5.4258,5.5117,5.6015,5.6484,5.6601,5.6601,5.6601,5.6601,5.6601,5.6601,5.6601,5.6601,5.6601,5.6601,5.6601,5.6601,5.6601,5.6601,5.6601,5.6601,5.6601,5.6601,5.6601,5.6601,5.6601,5.6601,5.6601,5.6601,5.6601,5.6601,5.6601,5.6601,5.6601,5.668,5.7109,5.8828,6.0469,6.1719,6.1719,6.1719,6.1719,6.1719,6.1719,6.1719,6.1719,6.1719,6.1719,6.1719,6.1719,6.1719,6.1719,6.1719,6.1719,6.1719,6.1719,6.1719,6.1719,6.1719,6.1719,6.1719,6.158,6.1467,6.1301,6.1124,6.0935,6.0804,6.0787,6.0787,6.0787,6.0787,6.0787,6.0787,6.0787,6.0787,6.0787,6.0787,6.0787,6.0787,6.0787,6.0787,3.2583,3.3196,3.3926,3.2545,3.3349,0.0,3.3157,3.3199,3.4019,3.6112,3.6227,3.6608,3.8866,4.0033,4.073,4.1037,4.2914,4.5458,4.8476,4.8906,4.8945,4.9141,4.9141,4.9492,5.0351,5.043,5.0703,5.1367,5.1406,5.1484,5.1641,5.2461,5.3359,5.4219,5.5117,5.5898,5.6601,5.6601,5.6601,5.6601,5.6601,5.6601,5.6601,5.6601,5.6601,5.6601,5.6601,5.6601,5.6601,5.6601,5.6601,5.6601,5.6601,5.6601,5.6601,5.6601,5.6601,5.6601,5.6601,5.6601,5.6601,5.6601,5.6601,5.6601,5.6601,5.7109,5.8008,5.9687,6.0898,6.1719,6.1719,6.1719,6.1719,6.1719,6.1719,6.1719,6.1719,6.1719,6.1719,6.1719,6.1719,6.1719,6.1719,6.1719,6.1719,6.1719,6.1719,6.1719,6.1719,6.1719,6.1719,6.1719,6.158,6.1467,6.1301,6.1124,6.0935,6.0804,6.0787,6.0787,6.0787,6.0787,6.0787,6.0787,6.0787,6.0787,6.0787,6.0787,6.0787,6.0787,6.0787,6.0787,3.5273,3.5427,3.5888,3.5042,3.5157,0.0,0.0,3.3503,3.3772,3.6805,3.5816,3.5314,3.8315,3.8917,3.9123,3.9622,4.1873,4.4078,4.5419,4.6756,4.7773,4.8203,4.8242,4.8594,4.9453,4.9531,4.9883,5.0742,5.1172,5.1406,5.1406,5.2226,5.2891,5.3359,5.4219,5.5078,5.5937,5.5937,5.6172,5.6601,5.6601,5.6601,5.6601,5.6601,5.6601,5.6601,5.6601,5.6601,5.6601,5.6601,5.6601,5.6601,5.6601,5.6601,5.6601,5.6601,5.6601,5.6601,5.6601,5.6601,5.6601,5.6601,5.6601,5.6601,5.6601,5.75,5.8828,6.0039,6.1015,6.1719,6.1719,6.1719,6.1719,6.1719,6.1719,6.1719,6.1719,6.1719,6.1719,6.1719,6.1719,6.1719,6.1719,6.1719,6.1719,6.1719,6.1719,6.1719,6.1719,6.1719,6.1719,6.1719,6.1515,6.1364,6.1292,6.1062,6.0866,6.0793,6.0787,6.0787,6.0787,6.0787,6.0787,6.0787,6.0787,6.0787,6.0787,6.0787,6.0787,6.0787,6.0787,6.0787,3.835,3.8042,3.8196,3.8238,3.7581,3.685,0.0,0.0,0.0,3.7434,3.5944,3.4925,3.7658,3.7649,3.75,3.8215,4.0731,4.225,4.1395,4.3581,4.5624,4.6484,4.6875,4.7422,4.832,4.8242,4.8633,4.9844,5.0078,5.0469,5.1133,5.1836,5.2383,5.2695,5.3398,5.418,5.5039,5.5234,5.5664,5.6367,5.6523,5.6601,5.6601,5.6601,5.6601,5.6601,5.6601,5.6601,5.6601,5.6601,5.6601,5.6601,5.6601,5.6601,5.6601,5.6601,5.6601,5.6601,5.6601,5.6601,5.664,5.6797,5.6953,5.7148,5.7265,5.832,5.9609,6.043,6.1172,6.1719,6.1719,6.1719,6.1719,6.1719,6.1719,6.1719,6.1719,6.1719,6.1719,6.1719,6.1719,6.1719,6.1719,6.1719,6.1719,6.1719,6.1719,6.1719,6.1719,6.1719,6.1719,6.1719,6.1476,6.1286,6.1286,6.0988,6.0787,6.0787,6.0787,6.0787,6.0787,6.0787,6.0787,6.0787,6.0787,6.0787,6.0787,6.0787,6.0787,6.0787,6.0787,6.0902,4.2624,4.2893,4.2739,3.9858,4.07,4.0893,3.5664,0.0,3.5773,3.4007,0.0,3.3195,3.358,0.0,0.0,3.3799,3.6631,3.8544,3.7738,3.9906,4.1936,4.289,4.4336,4.5625,4.6523,4.5898,4.6445,4.8867,4.6992,4.707,5.0156,5.043,5.1172,5.2656,5.2812,5.3281,5.4141,5.4922,5.5351,5.5469,5.6211,5.6601,5.6601,5.6601,5.6601,5.6601,5.6601,5.6601,5.6601,5.6601,5.6601,5.6601,5.6601,5.6601,5.6601,5.6601,5.6601,5.6601,5.6601,5.6601,5.6719,5.75,5.8281,5.9023,5.9765,6.0117,6.043,6.1328,6.1601,6.1719,6.1719,6.1719,6.1719,6.1719,6.1719,6.1719,6.1719,6.1719,6.1719,6.1719,6.1719,6.1719,6.1719,6.1719,6.1719,6.1719,6.1719,6.1719,6.1719,6.1719,6.1719,6.1719,6.1476,6.1286,6.1286,6.0988,6.0787,6.0787,6.0787,6.0787,6.0787,6.0787,6.0787,6.0787,6.0787,6.0787,6.0787,6.0787,6.0787,6.0787,6.0787,6.121,4.3316,4.3355,4.3124,4.1239,4.0816,4.0127,3.7088,3.5818,3.5353,3.5776,0.0,0.0,0.0,0.0,0.0,0.0,3.5382,3.6238,3.4919,3.707,3.9508,4.1356,4.1873,4.2773,4.4609,4.4453,4.5312,4.7969,4.6172,4.6289,4.9297,4.9922,5.0508,5.1211,5.1719,5.2344,5.3242,5.4101,5.4805,5.5312,5.6172,5.6601,5.6601,5.6601,5.6601,5.6601,5.6601,5.6601,5.6601,5.6601,5.6601,5.6601,5.6601,5.6601,5.6601,5.6601,5.6601,5.6601,5.6601,5.6601,5.6758,5.7617,5.8476,5.9336,6.0156,6.039,6.0586,6.1445,6.1719,6.1719,6.1719,6.1719,6.1719,6.1719,6.1719,6.1719,6.1719,6.1719,6.1719,6.1719,6.1719,6.1719,6.1719,6.1719,6.1719,6.1719,6.1719,6.1719,6.1719,6.1719,6.1719,6.1719,6.1476,6.1286,6.1286,6.0988,6.0787,6.0787,6.0787,6.0787,6.0787,6.0787,6.0787,6.0787,6.0787,6.0787,6.0787,6.0787,6.0787,6.0787,6.0787,6.1287,4.4008,4.3778,4.3393,4.1854,4.055,3.9204,3.7661,3.6238,3.5703,3.7315,3.6045,0.0,0.0,0.0,3.4007,3.4164,0.0,3.4915,3.3001,3.4657,3.6821,3.8994,3.9644,4.0703,4.2812,4.2148,4.2851,4.5937,4.4141,4.4453,4.8008,4.9023,4.9726,5.0195,5.0976,5.1719,5.2344,5.3203,5.4062,5.4961,5.582,5.6367,5.6601,5.6601,5.6601,5.6601,5.6601,5.6601,5.6601,5.6601,5.6601,5.6601,5.6601,5.6601,5.6601,5.6601,5.6601,5.6601,5.6601,5.6914,5.7461,5.832,5.918,6.0,6.0586,6.0742,6.0898,6.1523,6.1719,6.1719,6.1719,6.1719,6.1719,6.1719,6.1719,6.1719,6.1719,6.1719,6.1719,6.1719,6.1719,6.1719,6.1719,6.1719,6.1719,6.1719,6.1719,6.1719,6.1719,6.1719,6.1719,6.1719,6.1499,6.1331,6.1289,6.1014,6.0834,6.0787,6.0787,6.0787,6.0787,6.0787,6.0787,6.0787,6.0787,6.0787,6.0787,6.0787,6.0787,6.0787,6.0787,6.1402,4.5744,4.5518,4.471,4.1362,4.0516,3.9588,3.635,3.6773,3.7661,3.6888,3.8007,3.8857,3.8084,3.7196,3.6042,3.4472,3.4933,0.0,0.0,3.2565,3.3559,3.466,3.781,4.0273,4.1172,3.8242,3.8008,4.2266,3.9453,4.0117,4.6055,4.7226,4.8476,5.0156,5.0976,5.1406,5.1445,5.2305,5.3164,5.4062,5.4922,5.5781,5.6601,5.6601,5.6601,5.6601,5.6601,5.6601,5.6601,5.6601,5.6601,5.6601,5.6601,5.6601,5.6601,5.6601,5.6601,5.6601,5.6601,5.7695,5.9258,6.0078,6.0898,6.1601,6.164,6.164,6.164,6.168,6.1719,6.1719,6.1719,6.1719,6.1719,6.1719,6.1719,6.1719,6.1719,6.1719,6.1719,6.1719,6.1719,6.1719,6.1719,6.1719,6.1719,6.1719,6.1719,6.1719,6.1719,6.1719,6.1719,6.1719,6.1579,6.1424,6.1298,6.1116,6.0925,6.0804,6.0787,6.0787,6.0787,6.0787,6.0787,6.0787,6.0787,6.0787,6.0787,6.0787,6.0787,6.0787,6.0787,6.1666,4.7317,4.724,4.6586,4.3705,4.2162,4.0623,3.7811,3.7584,3.7738,3.6888,3.8084,3.9011,3.8161,3.7273,3.635,3.5234,3.4349,3.308,0.0,3.121,3.1839,3.2783,3.6012,3.8086,3.7773,3.7226,3.8164,4.1367,4.0,4.0898,4.5195,4.6797,4.8125,4.9297,5.0156,5.0859,5.1406,5.2266,5.3125,5.4023,5.4883,5.5742,5.6601,5.6601,5.6601,5.6601,5.6601,5.6601,5.6601,5.6601,5.6601,5.6601,5.6601,5.6601,5.6601,5.6601,5.6953,5.7539,5.8125,5.9062,6.0039,6.0312,6.0976,6.1719,6.1719,6.1719,6.1719,6.1719,6.1719,6.1719,6.1719,6.1719,6.1719,6.1719,6.1719,6.1719,6.1719,6.1719,6.1719,6.1719,6.1719,6.1719,6.1719,6.1719,6.1719,6.1719,6.1719,6.1719,6.1719,6.1719,6.1719,6.1719,6.1504,6.1341,6.1289,6.1027,6.0856,6.0793,6.0787,6.0787,6.0787,6.0787,6.0787,6.0787,6.0787,6.0787,6.0787,6.0787,6.0787,6.0787,6.0787,6.1704,4.8197,4.8082,4.7548,4.5321,4.4001,4.246,3.9569,3.9424,3.9556,3.8357,3.9217,4.0134,3.9937,3.8652,3.7263,3.6183,3.452,3.266,0.0,3.055,3.0885,3.143,3.4094,3.582,3.5547,3.5234,3.6484,4.0,3.918,4.0273,4.4336,4.6172,4.7695,4.8867,4.9766,5.0586,5.1406,5.1953,5.2812,5.4023,5.457,5.5469,5.6601,5.6601,5.6601,5.6601,5.6601,5.6601,5.6601,5.6601,5.6601,5.6601,5.6601,5.6797,5.707,5.707,5.7617,5.8476,5.9336,5.9961,6.0469,6.0742,6.125,6.1719,6.1719,6.1719,6.1719,6.1719,6.1719,6.1719,6.1719,6.1719,6.1719,6.1719,6.1719,6.1719,6.1719,6.1719,6.1719,6.1719,6.1719,6.1719,6.1719,6.1719,6.1719,6.1719,6.1719,6.1719,6.1719,6.1719,6.1719,6.1719,6.1505,6.1323,6.1207,6.094,6.0787,6.0787,6.0787,6.0787,6.0787,6.0787,6.0787,6.0787,6.0787,6.0787,6.0787,6.0787,6.0787,6.0825,6.1133,6.1973]}]]